<?xml version="1.0" encoding="UTF-8" standalone="no" ?>
<gpx xmlns="http://www.topografix.com/GPX/1/1" xmlns:xsi="http://www.w3.org/2001/XMLSchema-instance" xsi:schemaLocation="http://www.topografix.com/GPX/1/1 http://www.topografix.com/GPX/1/1/gpx.xsd" version="1.1" creator="VisuGPX - https://www.visugpx.com">
  <metadata>
    <name>Circuit VTT Onet l'église</name>
    <desc><![CDATA[Circuit court et technique, il a pour principal interet d'alterner portions roulantes et sineuses. Idéal pour la préparation en compétition]]></desc>
  </metadata>
  <wpt lat="44.41958" lon="2.5641">
    <ele>582</ele>
    <name><![CDATA[Start of Track]]></name>
    <type><![CDATA[Start]]></type>
  </wpt>
  <wpt lat="44.41977" lon="2.56405">
    <ele>579</ele>
    <name><![CDATA[End of Track]]></name>
    <type><![CDATA[Stop]]></type>
  </wpt>
  <trk>
    <name><![CDATA[Route]]></name>
    <trkseg>
      <trkpt lat="44.41958" lon="2.5641">
        <ele>582</ele>
        <time>2008-09-16T08:28:40Z</time>
      </trkpt>
      <trkpt lat="44.41958" lon="2.5641">
        <ele>582</ele>
        <time>2008-09-16T08:28:40Z</time>
      </trkpt>
      <trkpt lat="44.41957" lon="2.56411">
        <ele>582</ele>
        <time>2008-09-16T08:28:40Z</time>
      </trkpt>
      <trkpt lat="44.41957" lon="2.56411">
        <ele>582</ele>
        <time>2008-09-16T08:28:40Z</time>
      </trkpt>
      <trkpt lat="44.41956" lon="2.56412">
        <ele>582</ele>
        <time>2008-09-16T08:28:40Z</time>
      </trkpt>
      <trkpt lat="44.41955" lon="2.56414">
        <ele>582</ele>
        <time>2008-09-16T08:28:40Z</time>
      </trkpt>
      <trkpt lat="44.41953" lon="2.56415">
        <ele>582</ele>
        <time>2008-09-16T08:28:40Z</time>
      </trkpt>
      <trkpt lat="44.41952" lon="2.56418">
        <ele>580</ele>
        <time>2008-09-16T08:28:41Z</time>
      </trkpt>
      <trkpt lat="44.4195" lon="2.5642">
        <ele>578</ele>
        <time>2008-09-16T08:28:41Z</time>
      </trkpt>
      <trkpt lat="44.41947" lon="2.56421">
        <ele>577</ele>
        <time>2008-09-16T08:28:42Z</time>
      </trkpt>
      <trkpt lat="44.41943" lon="2.56424">
        <ele>577</ele>
        <time>2008-09-16T08:28:42Z</time>
      </trkpt>
      <trkpt lat="44.4194" lon="2.56428">
        <ele>577</ele>
        <time>2008-09-16T08:28:43Z</time>
      </trkpt>
      <trkpt lat="44.41939" lon="2.56433">
        <ele>576</ele>
        <time>2008-09-16T08:28:44Z</time>
      </trkpt>
      <trkpt lat="44.41937" lon="2.56438">
        <ele>576</ele>
        <time>2008-09-16T08:28:44Z</time>
      </trkpt>
      <trkpt lat="44.41936" lon="2.56445">
        <ele>575</ele>
        <time>2008-09-16T08:28:45Z</time>
      </trkpt>
      <trkpt lat="44.41936" lon="2.56451">
        <ele>575</ele>
        <time>2008-09-16T08:28:46Z</time>
      </trkpt>
      <trkpt lat="44.41935" lon="2.56457">
        <ele>575</ele>
        <time>2008-09-16T08:28:46Z</time>
      </trkpt>
      <trkpt lat="44.41934" lon="2.56462">
        <ele>575</ele>
        <time>2008-09-16T08:28:47Z</time>
      </trkpt>
      <trkpt lat="44.41933" lon="2.56467">
        <ele>575</ele>
        <time>2008-09-16T08:28:48Z</time>
      </trkpt>
      <trkpt lat="44.41932" lon="2.56473">
        <ele>575</ele>
        <time>2008-09-16T08:28:48Z</time>
      </trkpt>
      <trkpt lat="44.41931" lon="2.56479">
        <ele>575</ele>
        <time>2008-09-16T08:28:49Z</time>
      </trkpt>
      <trkpt lat="44.41929" lon="2.56484">
        <ele>575</ele>
        <time>2008-09-16T08:28:50Z</time>
      </trkpt>
      <trkpt lat="44.41928" lon="2.56489">
        <ele>576</ele>
        <time>2008-09-16T08:28:50Z</time>
      </trkpt>
      <trkpt lat="44.41926" lon="2.56493">
        <ele>576</ele>
        <time>2008-09-16T08:28:51Z</time>
      </trkpt>
      <trkpt lat="44.41924" lon="2.56494">
        <ele>576</ele>
        <time>2008-09-16T08:28:51Z</time>
      </trkpt>
      <trkpt lat="44.41922" lon="2.56493">
        <ele>576</ele>
        <time>2008-09-16T08:28:52Z</time>
      </trkpt>
      <trkpt lat="44.41918" lon="2.56491">
        <ele>575</ele>
        <time>2008-09-16T08:28:52Z</time>
      </trkpt>
      <trkpt lat="44.41913" lon="2.5649">
        <ele>575</ele>
        <time>2008-09-16T08:28:53Z</time>
      </trkpt>
      <trkpt lat="44.41908" lon="2.56489">
        <ele>575</ele>
        <time>2008-09-16T08:28:54Z</time>
      </trkpt>
      <trkpt lat="44.41903" lon="2.56489">
        <ele>574</ele>
        <time>2008-09-16T08:28:55Z</time>
      </trkpt>
      <trkpt lat="44.41898" lon="2.5649">
        <ele>574</ele>
        <time>2008-09-16T08:28:55Z</time>
      </trkpt>
      <trkpt lat="44.41895" lon="2.56489">
        <ele>574</ele>
        <time>2008-09-16T08:28:56Z</time>
      </trkpt>
      <trkpt lat="44.41893" lon="2.56485">
        <ele>573</ele>
        <time>2008-09-16T08:28:56Z</time>
      </trkpt>
      <trkpt lat="44.41893" lon="2.56479">
        <ele>572</ele>
        <time>2008-09-16T08:28:57Z</time>
      </trkpt>
      <trkpt lat="44.41894" lon="2.56474">
        <ele>572</ele>
        <time>2008-09-16T08:28:58Z</time>
      </trkpt>
      <trkpt lat="44.41894" lon="2.5647">
        <ele>571</ele>
        <time>2008-09-16T08:28:58Z</time>
      </trkpt>
      <trkpt lat="44.41893" lon="2.56467">
        <ele>571</ele>
        <time>2008-09-16T08:28:59Z</time>
      </trkpt>
      <trkpt lat="44.41891" lon="2.56467">
        <ele>570</ele>
        <time>2008-09-16T08:28:59Z</time>
      </trkpt>
      <trkpt lat="44.41889" lon="2.56469">
        <ele>570</ele>
        <time>2008-09-16T08:28:59Z</time>
      </trkpt>
      <trkpt lat="44.41888" lon="2.56474">
        <ele>569</ele>
        <time>2008-09-16T08:29:00Z</time>
      </trkpt>
      <trkpt lat="44.41887" lon="2.5648">
        <ele>569</ele>
        <time>2008-09-16T08:29:01Z</time>
      </trkpt>
      <trkpt lat="44.41885" lon="2.56487">
        <ele>569</ele>
        <time>2008-09-16T08:29:01Z</time>
      </trkpt>
      <trkpt lat="44.41884" lon="2.56494">
        <ele>568</ele>
        <time>2008-09-16T08:29:02Z</time>
      </trkpt>
      <trkpt lat="44.41883" lon="2.565">
        <ele>568</ele>
        <time>2008-09-16T08:29:03Z</time>
      </trkpt>
      <trkpt lat="44.41881" lon="2.56503">
        <ele>568</ele>
        <time>2008-09-16T08:29:03Z</time>
      </trkpt>
      <trkpt lat="44.41879" lon="2.56505">
        <ele>567</ele>
        <time>2008-09-16T08:29:04Z</time>
      </trkpt>
      <trkpt lat="44.41878" lon="2.56507">
        <ele>568</ele>
        <time>2008-09-16T08:29:04Z</time>
      </trkpt>
      <trkpt lat="44.41874" lon="2.56501">
        <ele>567</ele>
        <time>2008-09-16T08:29:05Z</time>
      </trkpt>
      <trkpt lat="44.4187" lon="2.56499">
        <ele>567</ele>
        <time>2008-09-16T08:29:06Z</time>
      </trkpt>
      <trkpt lat="44.41866" lon="2.56498">
        <ele>566</ele>
        <time>2008-09-16T08:29:06Z</time>
      </trkpt>
      <trkpt lat="44.41863" lon="2.56499">
        <ele>565</ele>
        <time>2008-09-16T08:29:07Z</time>
      </trkpt>
      <trkpt lat="44.41861" lon="2.56502">
        <ele>565</ele>
        <time>2008-09-16T08:29:07Z</time>
      </trkpt>
      <trkpt lat="44.41861" lon="2.56505">
        <ele>565</ele>
        <time>2008-09-16T08:29:08Z</time>
      </trkpt>
      <trkpt lat="44.41859" lon="2.56509">
        <ele>565</ele>
        <time>2008-09-16T08:29:08Z</time>
      </trkpt>
      <trkpt lat="44.41858" lon="2.56513">
        <ele>566</ele>
        <time>2008-09-16T08:29:09Z</time>
      </trkpt>
      <trkpt lat="44.41857" lon="2.56517">
        <ele>566</ele>
        <time>2008-09-16T08:29:09Z</time>
      </trkpt>
      <trkpt lat="44.41856" lon="2.56521">
        <ele>566</ele>
        <time>2008-09-16T08:29:10Z</time>
      </trkpt>
      <trkpt lat="44.41855" lon="2.56525">
        <ele>566</ele>
        <time>2008-09-16T08:29:10Z</time>
      </trkpt>
      <trkpt lat="44.41854" lon="2.5653">
        <ele>566</ele>
        <time>2008-09-16T08:29:11Z</time>
      </trkpt>
      <trkpt lat="44.41853" lon="2.56534">
        <ele>566</ele>
        <time>2008-09-16T08:29:11Z</time>
      </trkpt>
      <trkpt lat="44.41852" lon="2.56538">
        <ele>567</ele>
        <time>2008-09-16T08:29:12Z</time>
      </trkpt>
      <trkpt lat="44.4185" lon="2.56542">
        <ele>567</ele>
        <time>2008-09-16T08:29:12Z</time>
      </trkpt>
      <trkpt lat="44.41849" lon="2.56546">
        <ele>567</ele>
        <time>2008-09-16T08:29:13Z</time>
      </trkpt>
      <trkpt lat="44.41847" lon="2.56551">
        <ele>568</ele>
        <time>2008-09-16T08:29:13Z</time>
      </trkpt>
      <trkpt lat="44.41845" lon="2.56555">
        <ele>568</ele>
        <time>2008-09-16T08:29:14Z</time>
      </trkpt>
      <trkpt lat="44.41844" lon="2.56559">
        <ele>568</ele>
        <time>2008-09-16T08:29:15Z</time>
      </trkpt>
      <trkpt lat="44.41842" lon="2.56563">
        <ele>568</ele>
        <time>2008-09-16T08:29:15Z</time>
      </trkpt>
      <trkpt lat="44.4184" lon="2.56568">
        <ele>568</ele>
        <time>2008-09-16T08:29:16Z</time>
      </trkpt>
      <trkpt lat="44.41839" lon="2.56573">
        <ele>569</ele>
        <time>2008-09-16T08:29:16Z</time>
      </trkpt>
      <trkpt lat="44.41837" lon="2.56578">
        <ele>569</ele>
        <time>2008-09-16T08:29:17Z</time>
      </trkpt>
      <trkpt lat="44.41835" lon="2.56582">
        <ele>569</ele>
        <time>2008-09-16T08:29:18Z</time>
      </trkpt>
      <trkpt lat="44.41833" lon="2.56587">
        <ele>570</ele>
        <time>2008-09-16T08:29:18Z</time>
      </trkpt>
      <trkpt lat="44.41831" lon="2.56591">
        <ele>571</ele>
        <time>2008-09-16T08:29:19Z</time>
      </trkpt>
      <trkpt lat="44.41829" lon="2.56596">
        <ele>571</ele>
        <time>2008-09-16T08:29:19Z</time>
      </trkpt>
      <trkpt lat="44.41827" lon="2.56601">
        <ele>572</ele>
        <time>2008-09-16T08:29:20Z</time>
      </trkpt>
      <trkpt lat="44.41826" lon="2.56606">
        <ele>572</ele>
        <time>2008-09-16T08:29:21Z</time>
      </trkpt>
      <trkpt lat="44.41824" lon="2.5661">
        <ele>573</ele>
        <time>2008-09-16T08:29:21Z</time>
      </trkpt>
      <trkpt lat="44.41822" lon="2.56614">
        <ele>573</ele>
        <time>2008-09-16T08:29:22Z</time>
      </trkpt>
      <trkpt lat="44.4182" lon="2.56619">
        <ele>574</ele>
        <time>2008-09-16T08:29:22Z</time>
      </trkpt>
      <trkpt lat="44.41818" lon="2.56623">
        <ele>574</ele>
        <time>2008-09-16T08:29:23Z</time>
      </trkpt>
      <trkpt lat="44.41817" lon="2.56626">
        <ele>574</ele>
        <time>2008-09-16T08:29:23Z</time>
      </trkpt>
      <trkpt lat="44.41815" lon="2.56629">
        <ele>575</ele>
        <time>2008-09-16T08:29:24Z</time>
      </trkpt>
      <trkpt lat="44.41814" lon="2.56631">
        <ele>575</ele>
        <time>2008-09-16T08:29:24Z</time>
      </trkpt>
      <trkpt lat="44.41813" lon="2.56633">
        <ele>575</ele>
        <time>2008-09-16T08:29:24Z</time>
      </trkpt>
      <trkpt lat="44.41812" lon="2.56633">
        <ele>574</ele>
        <time>2008-09-16T08:29:24Z</time>
      </trkpt>
      <trkpt lat="44.41811" lon="2.56634">
        <ele>574</ele>
        <time>2008-09-16T08:29:25Z</time>
      </trkpt>
      <trkpt lat="44.41809" lon="2.56635">
        <ele>573</ele>
        <time>2008-09-16T08:29:25Z</time>
      </trkpt>
      <trkpt lat="44.41807" lon="2.56635">
        <ele>573</ele>
        <time>2008-09-16T08:29:25Z</time>
      </trkpt>
      <trkpt lat="44.41804" lon="2.56636">
        <ele>573</ele>
        <time>2008-09-16T08:29:26Z</time>
      </trkpt>
      <trkpt lat="44.41801" lon="2.56635">
        <ele>573</ele>
        <time>2008-09-16T08:29:26Z</time>
      </trkpt>
      <trkpt lat="44.41797" lon="2.56635">
        <ele>573</ele>
        <time>2008-09-16T08:29:27Z</time>
      </trkpt>
      <trkpt lat="44.41793" lon="2.56634">
        <ele>573</ele>
        <time>2008-09-16T08:29:28Z</time>
      </trkpt>
      <trkpt lat="44.4179" lon="2.56634">
        <ele>573</ele>
        <time>2008-09-16T08:29:28Z</time>
      </trkpt>
      <trkpt lat="44.41786" lon="2.56634">
        <ele>573</ele>
        <time>2008-09-16T08:29:29Z</time>
      </trkpt>
      <trkpt lat="44.41783" lon="2.56635">
        <ele>573</ele>
        <time>2008-09-16T08:29:29Z</time>
      </trkpt>
      <trkpt lat="44.41779" lon="2.56635">
        <ele>573</ele>
        <time>2008-09-16T08:29:30Z</time>
      </trkpt>
      <trkpt lat="44.41775" lon="2.56635">
        <ele>573</ele>
        <time>2008-09-16T08:29:30Z</time>
      </trkpt>
      <trkpt lat="44.41772" lon="2.56635">
        <ele>574</ele>
        <time>2008-09-16T08:29:31Z</time>
      </trkpt>
      <trkpt lat="44.41768" lon="2.56635">
        <ele>574</ele>
        <time>2008-09-16T08:29:32Z</time>
      </trkpt>
      <trkpt lat="44.41765" lon="2.56634">
        <ele>574</ele>
        <time>2008-09-16T08:29:32Z</time>
      </trkpt>
      <trkpt lat="44.41761" lon="2.56632">
        <ele>574</ele>
        <time>2008-09-16T08:29:33Z</time>
      </trkpt>
      <trkpt lat="44.41758" lon="2.5663">
        <ele>574</ele>
        <time>2008-09-16T08:29:33Z</time>
      </trkpt>
      <trkpt lat="44.41756" lon="2.56628">
        <ele>575</ele>
        <time>2008-09-16T08:29:34Z</time>
      </trkpt>
      <trkpt lat="44.41753" lon="2.56626">
        <ele>575</ele>
        <time>2008-09-16T08:29:34Z</time>
      </trkpt>
      <trkpt lat="44.41751" lon="2.56623">
        <ele>575</ele>
        <time>2008-09-16T08:29:35Z</time>
      </trkpt>
      <trkpt lat="44.41749" lon="2.56619">
        <ele>575</ele>
        <time>2008-09-16T08:29:35Z</time>
      </trkpt>
      <trkpt lat="44.41747" lon="2.56616">
        <ele>575</ele>
        <time>2008-09-16T08:29:36Z</time>
      </trkpt>
      <trkpt lat="44.41746" lon="2.56614">
        <ele>575</ele>
        <time>2008-09-16T08:29:36Z</time>
      </trkpt>
      <trkpt lat="44.41744" lon="2.56612">
        <ele>576</ele>
        <time>2008-09-16T08:29:36Z</time>
      </trkpt>
      <trkpt lat="44.41743" lon="2.56609">
        <ele>576</ele>
        <time>2008-09-16T08:29:37Z</time>
      </trkpt>
      <trkpt lat="44.41742" lon="2.56607">
        <ele>576</ele>
        <time>2008-09-16T08:29:37Z</time>
      </trkpt>
      <trkpt lat="44.41741" lon="2.56605">
        <ele>576</ele>
        <time>2008-09-16T08:29:37Z</time>
      </trkpt>
      <trkpt lat="44.4174" lon="2.56604">
        <ele>577</ele>
        <time>2008-09-16T08:29:37Z</time>
      </trkpt>
      <trkpt lat="44.41738" lon="2.56603">
        <ele>577</ele>
        <time>2008-09-16T08:29:38Z</time>
      </trkpt>
      <trkpt lat="44.41737" lon="2.56601">
        <ele>578</ele>
        <time>2008-09-16T08:29:38Z</time>
      </trkpt>
      <trkpt lat="44.41736" lon="2.56599">
        <ele>578</ele>
        <time>2008-09-16T08:29:38Z</time>
      </trkpt>
      <trkpt lat="44.41735" lon="2.56597">
        <ele>578</ele>
        <time>2008-09-16T08:29:39Z</time>
      </trkpt>
      <trkpt lat="44.41734" lon="2.56595">
        <ele>578</ele>
        <time>2008-09-16T08:29:39Z</time>
      </trkpt>
      <trkpt lat="44.41734" lon="2.56594">
        <ele>578</ele>
        <time>2008-09-16T08:29:39Z</time>
      </trkpt>
      <trkpt lat="44.41733" lon="2.56592">
        <ele>579</ele>
        <time>2008-09-16T08:29:39Z</time>
      </trkpt>
      <trkpt lat="44.41732" lon="2.56591">
        <ele>579</ele>
        <time>2008-09-16T08:29:39Z</time>
      </trkpt>
      <trkpt lat="44.41731" lon="2.56591">
        <ele>579</ele>
        <time>2008-09-16T08:29:40Z</time>
      </trkpt>
      <trkpt lat="44.4173" lon="2.5659">
        <ele>579</ele>
        <time>2008-09-16T08:29:40Z</time>
      </trkpt>
      <trkpt lat="44.41729" lon="2.56589">
        <ele>579</ele>
        <time>2008-09-16T08:29:40Z</time>
      </trkpt>
      <trkpt lat="44.41728" lon="2.56587">
        <ele>579</ele>
        <time>2008-09-16T08:29:40Z</time>
      </trkpt>
      <trkpt lat="44.41728" lon="2.56586">
        <ele>579</ele>
        <time>2008-09-16T08:29:40Z</time>
      </trkpt>
      <trkpt lat="44.41727" lon="2.56584">
        <ele>579</ele>
        <time>2008-09-16T08:29:41Z</time>
      </trkpt>
      <trkpt lat="44.41726" lon="2.56582">
        <ele>579</ele>
        <time>2008-09-16T08:29:41Z</time>
      </trkpt>
      <trkpt lat="44.41726" lon="2.56581">
        <ele>578</ele>
        <time>2008-09-16T08:29:41Z</time>
      </trkpt>
      <trkpt lat="44.41726" lon="2.5658">
        <ele>579</ele>
        <time>2008-09-16T08:29:41Z</time>
      </trkpt>
      <trkpt lat="44.41725" lon="2.5658">
        <ele>579</ele>
        <time>2008-09-16T08:29:41Z</time>
      </trkpt>
      <trkpt lat="44.41724" lon="2.56579">
        <ele>580</ele>
        <time>2008-09-16T08:29:41Z</time>
      </trkpt>
      <trkpt lat="44.41724" lon="2.56579">
        <ele>580</ele>
        <time>2008-09-16T08:29:41Z</time>
      </trkpt>
      <trkpt lat="44.41723" lon="2.56578">
        <ele>581</ele>
        <time>2008-09-16T08:29:42Z</time>
      </trkpt>
      <trkpt lat="44.41723" lon="2.56578">
        <ele>581</ele>
        <time>2008-09-16T08:29:42Z</time>
      </trkpt>
      <trkpt lat="44.41722" lon="2.56577">
        <ele>582</ele>
        <time>2008-09-16T08:29:42Z</time>
      </trkpt>
      <trkpt lat="44.41722" lon="2.56576">
        <ele>583</ele>
        <time>2008-09-16T08:29:42Z</time>
      </trkpt>
      <trkpt lat="44.41721" lon="2.56576">
        <ele>583</ele>
        <time>2008-09-16T08:29:42Z</time>
      </trkpt>
      <trkpt lat="44.41721" lon="2.56575">
        <ele>583</ele>
        <time>2008-09-16T08:29:42Z</time>
      </trkpt>
      <trkpt lat="44.4172" lon="2.56574">
        <ele>583</ele>
        <time>2008-09-16T08:29:42Z</time>
      </trkpt>
      <trkpt lat="44.4172" lon="2.56573">
        <ele>583</ele>
        <time>2008-09-16T08:29:42Z</time>
      </trkpt>
      <trkpt lat="44.41719" lon="2.56571">
        <ele>583</ele>
        <time>2008-09-16T08:29:43Z</time>
      </trkpt>
      <trkpt lat="44.41718" lon="2.56571">
        <ele>583</ele>
        <time>2008-09-16T08:29:43Z</time>
      </trkpt>
      <trkpt lat="44.41717" lon="2.5657">
        <ele>583</ele>
        <time>2008-09-16T08:29:43Z</time>
      </trkpt>
      <trkpt lat="44.41717" lon="2.56569">
        <ele>584</ele>
        <time>2008-09-16T08:29:43Z</time>
      </trkpt>
      <trkpt lat="44.41716" lon="2.56569">
        <ele>584</ele>
        <time>2008-09-16T08:29:43Z</time>
      </trkpt>
      <trkpt lat="44.41716" lon="2.56568">
        <ele>584</ele>
        <time>2008-09-16T08:29:43Z</time>
      </trkpt>
      <trkpt lat="44.41715" lon="2.56566">
        <ele>584</ele>
        <time>2008-09-16T08:29:43Z</time>
      </trkpt>
      <trkpt lat="44.41715" lon="2.56566">
        <ele>583</ele>
        <time>2008-09-16T08:29:44Z</time>
      </trkpt>
      <trkpt lat="44.41714" lon="2.56564">
        <ele>582</ele>
        <time>2008-09-16T08:29:44Z</time>
      </trkpt>
      <trkpt lat="44.41714" lon="2.56563">
        <ele>582</ele>
        <time>2008-09-16T08:29:44Z</time>
      </trkpt>
      <trkpt lat="44.41713" lon="2.56562">
        <ele>582</ele>
        <time>2008-09-16T08:29:44Z</time>
      </trkpt>
      <trkpt lat="44.41713" lon="2.5656">
        <ele>581</ele>
        <time>2008-09-16T08:29:44Z</time>
      </trkpt>
      <trkpt lat="44.41712" lon="2.56559">
        <ele>581</ele>
        <time>2008-09-16T08:29:44Z</time>
      </trkpt>
      <trkpt lat="44.41711" lon="2.56557">
        <ele>581</ele>
        <time>2008-09-16T08:29:45Z</time>
      </trkpt>
      <trkpt lat="44.41711" lon="2.56556">
        <ele>581</ele>
        <time>2008-09-16T08:29:45Z</time>
      </trkpt>
      <trkpt lat="44.4171" lon="2.56555">
        <ele>581</ele>
        <time>2008-09-16T08:29:45Z</time>
      </trkpt>
      <trkpt lat="44.41708" lon="2.56554">
        <ele>581</ele>
        <time>2008-09-16T08:29:45Z</time>
      </trkpt>
      <trkpt lat="44.41707" lon="2.56553">
        <ele>580</ele>
        <time>2008-09-16T08:29:45Z</time>
      </trkpt>
      <trkpt lat="44.41706" lon="2.56551">
        <ele>581</ele>
        <time>2008-09-16T08:29:46Z</time>
      </trkpt>
      <trkpt lat="44.41706" lon="2.5655">
        <ele>581</ele>
        <time>2008-09-16T08:29:46Z</time>
      </trkpt>
      <trkpt lat="44.41705" lon="2.56548">
        <ele>580</ele>
        <time>2008-09-16T08:29:46Z</time>
      </trkpt>
      <trkpt lat="44.41704" lon="2.56546">
        <ele>581</ele>
        <time>2008-09-16T08:29:46Z</time>
      </trkpt>
      <trkpt lat="44.41703" lon="2.56545">
        <ele>581</ele>
        <time>2008-09-16T08:29:47Z</time>
      </trkpt>
      <trkpt lat="44.41702" lon="2.56543">
        <ele>582</ele>
        <time>2008-09-16T08:29:47Z</time>
      </trkpt>
      <trkpt lat="44.41701" lon="2.56542">
        <ele>582</ele>
        <time>2008-09-16T08:29:47Z</time>
      </trkpt>
      <trkpt lat="44.417" lon="2.56541">
        <ele>582</ele>
        <time>2008-09-16T08:29:47Z</time>
      </trkpt>
      <trkpt lat="44.41699" lon="2.5654">
        <ele>584</ele>
        <time>2008-09-16T08:29:47Z</time>
      </trkpt>
      <trkpt lat="44.41698" lon="2.56539">
        <ele>584</ele>
        <time>2008-09-16T08:29:48Z</time>
      </trkpt>
      <trkpt lat="44.41697" lon="2.56538">
        <ele>584</ele>
        <time>2008-09-16T08:29:48Z</time>
      </trkpt>
      <trkpt lat="44.41696" lon="2.56537">
        <ele>585</ele>
        <time>2008-09-16T08:29:48Z</time>
      </trkpt>
      <trkpt lat="44.41695" lon="2.56536">
        <ele>585</ele>
        <time>2008-09-16T08:29:48Z</time>
      </trkpt>
      <trkpt lat="44.41694" lon="2.56535">
        <ele>585</ele>
        <time>2008-09-16T08:29:49Z</time>
      </trkpt>
      <trkpt lat="44.41693" lon="2.56534">
        <ele>586</ele>
        <time>2008-09-16T08:29:49Z</time>
      </trkpt>
      <trkpt lat="44.41692" lon="2.56533">
        <ele>586</ele>
        <time>2008-09-16T08:29:49Z</time>
      </trkpt>
      <trkpt lat="44.41691" lon="2.56532">
        <ele>586</ele>
        <time>2008-09-16T08:29:49Z</time>
      </trkpt>
      <trkpt lat="44.4169" lon="2.56531">
        <ele>586</ele>
        <time>2008-09-16T08:29:49Z</time>
      </trkpt>
      <trkpt lat="44.41689" lon="2.5653">
        <ele>586</ele>
        <time>2008-09-16T08:29:49Z</time>
      </trkpt>
      <trkpt lat="44.41688" lon="2.5653">
        <ele>587</ele>
        <time>2008-09-16T08:29:50Z</time>
      </trkpt>
      <trkpt lat="44.41687" lon="2.56529">
        <ele>587</ele>
        <time>2008-09-16T08:29:50Z</time>
      </trkpt>
      <trkpt lat="44.41685" lon="2.56529">
        <ele>588</ele>
        <time>2008-09-16T08:29:50Z</time>
      </trkpt>
      <trkpt lat="44.41684" lon="2.56528">
        <ele>588</ele>
        <time>2008-09-16T08:29:50Z</time>
      </trkpt>
      <trkpt lat="44.41684" lon="2.56527">
        <ele>588</ele>
        <time>2008-09-16T08:29:50Z</time>
      </trkpt>
      <trkpt lat="44.41683" lon="2.56526">
        <ele>588</ele>
        <time>2008-09-16T08:29:51Z</time>
      </trkpt>
      <trkpt lat="44.41682" lon="2.56525">
        <ele>588</ele>
        <time>2008-09-16T08:29:51Z</time>
      </trkpt>
      <trkpt lat="44.4168" lon="2.56523">
        <ele>587</ele>
        <time>2008-09-16T08:29:51Z</time>
      </trkpt>
      <trkpt lat="44.41679" lon="2.56522">
        <ele>588</ele>
        <time>2008-09-16T08:29:51Z</time>
      </trkpt>
      <trkpt lat="44.41678" lon="2.56522">
        <ele>588</ele>
        <time>2008-09-16T08:29:52Z</time>
      </trkpt>
      <trkpt lat="44.41677" lon="2.56521">
        <ele>589</ele>
        <time>2008-09-16T08:29:52Z</time>
      </trkpt>
      <trkpt lat="44.41675" lon="2.56521">
        <ele>588</ele>
        <time>2008-09-16T08:29:52Z</time>
      </trkpt>
      <trkpt lat="44.41674" lon="2.56521">
        <ele>589</ele>
        <time>2008-09-16T08:29:52Z</time>
      </trkpt>
      <trkpt lat="44.41673" lon="2.5652">
        <ele>589</ele>
        <time>2008-09-16T08:29:52Z</time>
      </trkpt>
      <trkpt lat="44.41671" lon="2.56519">
        <ele>589</ele>
        <time>2008-09-16T08:29:53Z</time>
      </trkpt>
      <trkpt lat="44.4167" lon="2.56518">
        <ele>589</ele>
        <time>2008-09-16T08:29:53Z</time>
      </trkpt>
      <trkpt lat="44.41669" lon="2.56517">
        <ele>589</ele>
        <time>2008-09-16T08:29:53Z</time>
      </trkpt>
      <trkpt lat="44.41668" lon="2.56516">
        <ele>590</ele>
        <time>2008-09-16T08:29:53Z</time>
      </trkpt>
      <trkpt lat="44.41666" lon="2.56515">
        <ele>590</ele>
        <time>2008-09-16T08:29:54Z</time>
      </trkpt>
      <trkpt lat="44.41665" lon="2.56513">
        <ele>589</ele>
        <time>2008-09-16T08:29:54Z</time>
      </trkpt>
      <trkpt lat="44.41664" lon="2.56512">
        <ele>588</ele>
        <time>2008-09-16T08:29:54Z</time>
      </trkpt>
      <trkpt lat="44.41663" lon="2.5651">
        <ele>588</ele>
        <time>2008-09-16T08:29:54Z</time>
      </trkpt>
      <trkpt lat="44.41662" lon="2.56509">
        <ele>588</ele>
        <time>2008-09-16T08:29:54Z</time>
      </trkpt>
      <trkpt lat="44.41661" lon="2.56508">
        <ele>588</ele>
        <time>2008-09-16T08:29:55Z</time>
      </trkpt>
      <trkpt lat="44.4166" lon="2.56507">
        <ele>588</ele>
        <time>2008-09-16T08:29:55Z</time>
      </trkpt>
      <trkpt lat="44.41658" lon="2.56505">
        <ele>588</ele>
        <time>2008-09-16T08:29:55Z</time>
      </trkpt>
      <trkpt lat="44.41657" lon="2.56504">
        <ele>588</ele>
        <time>2008-09-16T08:29:55Z</time>
      </trkpt>
      <trkpt lat="44.41656" lon="2.56502">
        <ele>588</ele>
        <time>2008-09-16T08:29:56Z</time>
      </trkpt>
      <trkpt lat="44.41655" lon="2.565">
        <ele>587</ele>
        <time>2008-09-16T08:29:56Z</time>
      </trkpt>
      <trkpt lat="44.41654" lon="2.56499">
        <ele>587</ele>
        <time>2008-09-16T08:29:56Z</time>
      </trkpt>
      <trkpt lat="44.41652" lon="2.56497">
        <ele>586</ele>
        <time>2008-09-16T08:29:57Z</time>
      </trkpt>
      <trkpt lat="44.41651" lon="2.56496">
        <ele>586</ele>
        <time>2008-09-16T08:29:57Z</time>
      </trkpt>
      <trkpt lat="44.41649" lon="2.56494">
        <ele>586</ele>
        <time>2008-09-16T08:29:57Z</time>
      </trkpt>
      <trkpt lat="44.41647" lon="2.56492">
        <ele>587</ele>
        <time>2008-09-16T08:29:58Z</time>
      </trkpt>
      <trkpt lat="44.41646" lon="2.5649">
        <ele>587</ele>
        <time>2008-09-16T08:29:58Z</time>
      </trkpt>
      <trkpt lat="44.41645" lon="2.56489">
        <ele>587</ele>
        <time>2008-09-16T08:29:58Z</time>
      </trkpt>
      <trkpt lat="44.41643" lon="2.56487">
        <ele>587</ele>
        <time>2008-09-16T08:29:58Z</time>
      </trkpt>
      <trkpt lat="44.41642" lon="2.56486">
        <ele>587</ele>
        <time>2008-09-16T08:29:59Z</time>
      </trkpt>
      <trkpt lat="44.41641" lon="2.56485">
        <ele>587</ele>
        <time>2008-09-16T08:29:59Z</time>
      </trkpt>
      <trkpt lat="44.41639" lon="2.56483">
        <ele>587</ele>
        <time>2008-09-16T08:29:59Z</time>
      </trkpt>
      <trkpt lat="44.41638" lon="2.56482">
        <ele>587</ele>
        <time>2008-09-16T08:30:00Z</time>
      </trkpt>
      <trkpt lat="44.41636" lon="2.56481">
        <ele>587</ele>
        <time>2008-09-16T08:30:00Z</time>
      </trkpt>
      <trkpt lat="44.41635" lon="2.5648">
        <ele>588</ele>
        <time>2008-09-16T08:30:00Z</time>
      </trkpt>
      <trkpt lat="44.41633" lon="2.56478">
        <ele>588</ele>
        <time>2008-09-16T08:30:00Z</time>
      </trkpt>
      <trkpt lat="44.41631" lon="2.56477">
        <ele>588</ele>
        <time>2008-09-16T08:30:01Z</time>
      </trkpt>
      <trkpt lat="44.4163" lon="2.56475">
        <ele>588</ele>
        <time>2008-09-16T08:30:01Z</time>
      </trkpt>
      <trkpt lat="44.41628" lon="2.56474">
        <ele>589</ele>
        <time>2008-09-16T08:30:01Z</time>
      </trkpt>
      <trkpt lat="44.41626" lon="2.56473">
        <ele>589</ele>
        <time>2008-09-16T08:30:02Z</time>
      </trkpt>
      <trkpt lat="44.41625" lon="2.56472">
        <ele>589</ele>
        <time>2008-09-16T08:30:02Z</time>
      </trkpt>
      <trkpt lat="44.41623" lon="2.56471">
        <ele>589</ele>
        <time>2008-09-16T08:30:02Z</time>
      </trkpt>
      <trkpt lat="44.41621" lon="2.5647">
        <ele>590</ele>
        <time>2008-09-16T08:30:02Z</time>
      </trkpt>
      <trkpt lat="44.41619" lon="2.56469">
        <ele>590</ele>
        <time>2008-09-16T08:30:03Z</time>
      </trkpt>
      <trkpt lat="44.41617" lon="2.56469">
        <ele>591</ele>
        <time>2008-09-16T08:30:03Z</time>
      </trkpt>
      <trkpt lat="44.41615" lon="2.56468">
        <ele>592</ele>
        <time>2008-09-16T08:30:03Z</time>
      </trkpt>
      <trkpt lat="44.41613" lon="2.56467">
        <ele>593</ele>
        <time>2008-09-16T08:30:04Z</time>
      </trkpt>
      <trkpt lat="44.41611" lon="2.56467">
        <ele>593</ele>
        <time>2008-09-16T08:30:04Z</time>
      </trkpt>
      <trkpt lat="44.41609" lon="2.56466">
        <ele>595</ele>
        <time>2008-09-16T08:30:04Z</time>
      </trkpt>
      <trkpt lat="44.41607" lon="2.56465">
        <ele>595</ele>
        <time>2008-09-16T08:30:05Z</time>
      </trkpt>
      <trkpt lat="44.41605" lon="2.56464">
        <ele>595</ele>
        <time>2008-09-16T08:30:05Z</time>
      </trkpt>
      <trkpt lat="44.41603" lon="2.56463">
        <ele>595</ele>
        <time>2008-09-16T08:30:05Z</time>
      </trkpt>
      <trkpt lat="44.41601" lon="2.56463">
        <ele>595</ele>
        <time>2008-09-16T08:30:06Z</time>
      </trkpt>
      <trkpt lat="44.41599" lon="2.56462">
        <ele>595</ele>
        <time>2008-09-16T08:30:06Z</time>
      </trkpt>
      <trkpt lat="44.41597" lon="2.56461">
        <ele>597</ele>
        <time>2008-09-16T08:30:07Z</time>
      </trkpt>
      <trkpt lat="44.41595" lon="2.5646">
        <ele>598</ele>
        <time>2008-09-16T08:30:07Z</time>
      </trkpt>
      <trkpt lat="44.41592" lon="2.5646">
        <ele>598</ele>
        <time>2008-09-16T08:30:07Z</time>
      </trkpt>
      <trkpt lat="44.4159" lon="2.56459">
        <ele>599</ele>
        <time>2008-09-16T08:30:08Z</time>
      </trkpt>
      <trkpt lat="44.41587" lon="2.56459">
        <ele>600</ele>
        <time>2008-09-16T08:30:08Z</time>
      </trkpt>
      <trkpt lat="44.41585" lon="2.5646">
        <ele>600</ele>
        <time>2008-09-16T08:30:08Z</time>
      </trkpt>
      <trkpt lat="44.41582" lon="2.56459">
        <ele>601</ele>
        <time>2008-09-16T08:30:09Z</time>
      </trkpt>
      <trkpt lat="44.4158" lon="2.56459">
        <ele>601</ele>
        <time>2008-09-16T08:30:09Z</time>
      </trkpt>
      <trkpt lat="44.41577" lon="2.56458">
        <ele>601</ele>
        <time>2008-09-16T08:30:10Z</time>
      </trkpt>
      <trkpt lat="44.41575" lon="2.56457">
        <ele>601</ele>
        <time>2008-09-16T08:30:10Z</time>
      </trkpt>
      <trkpt lat="44.41573" lon="2.56456">
        <ele>601</ele>
        <time>2008-09-16T08:30:10Z</time>
      </trkpt>
      <trkpt lat="44.41571" lon="2.56455">
        <ele>601</ele>
        <time>2008-09-16T08:30:11Z</time>
      </trkpt>
      <trkpt lat="44.41568" lon="2.56453">
        <ele>601</ele>
        <time>2008-09-16T08:30:11Z</time>
      </trkpt>
      <trkpt lat="44.41566" lon="2.56452">
        <ele>601</ele>
        <time>2008-09-16T08:30:12Z</time>
      </trkpt>
      <trkpt lat="44.41563" lon="2.56452">
        <ele>601</ele>
        <time>2008-09-16T08:30:12Z</time>
      </trkpt>
      <trkpt lat="44.41561" lon="2.56452">
        <ele>602</ele>
        <time>2008-09-16T08:30:12Z</time>
      </trkpt>
      <trkpt lat="44.41559" lon="2.56452">
        <ele>602</ele>
        <time>2008-09-16T08:30:13Z</time>
      </trkpt>
      <trkpt lat="44.41556" lon="2.56452">
        <ele>603</ele>
        <time>2008-09-16T08:30:13Z</time>
      </trkpt>
      <trkpt lat="44.41554" lon="2.56452">
        <ele>603</ele>
        <time>2008-09-16T08:30:14Z</time>
      </trkpt>
      <trkpt lat="44.41551" lon="2.56452">
        <ele>603</ele>
        <time>2008-09-16T08:30:14Z</time>
      </trkpt>
      <trkpt lat="44.41548" lon="2.56452">
        <ele>604</ele>
        <time>2008-09-16T08:30:14Z</time>
      </trkpt>
      <trkpt lat="44.41546" lon="2.56452">
        <ele>604</ele>
        <time>2008-09-16T08:30:15Z</time>
      </trkpt>
      <trkpt lat="44.41543" lon="2.56451">
        <ele>604</ele>
        <time>2008-09-16T08:30:15Z</time>
      </trkpt>
      <trkpt lat="44.4154" lon="2.5645">
        <ele>604</ele>
        <time>2008-09-16T08:30:16Z</time>
      </trkpt>
      <trkpt lat="44.41537" lon="2.5645">
        <ele>604</ele>
        <time>2008-09-16T08:30:16Z</time>
      </trkpt>
      <trkpt lat="44.41534" lon="2.56449">
        <ele>604</ele>
        <time>2008-09-16T08:30:17Z</time>
      </trkpt>
      <trkpt lat="44.41531" lon="2.56448">
        <ele>604</ele>
        <time>2008-09-16T08:30:17Z</time>
      </trkpt>
      <trkpt lat="44.41528" lon="2.56447">
        <ele>604</ele>
        <time>2008-09-16T08:30:18Z</time>
      </trkpt>
      <trkpt lat="44.41525" lon="2.56446">
        <ele>605</ele>
        <time>2008-09-16T08:30:18Z</time>
      </trkpt>
      <trkpt lat="44.41522" lon="2.56445">
        <ele>605</ele>
        <time>2008-09-16T08:30:19Z</time>
      </trkpt>
      <trkpt lat="44.41519" lon="2.56444">
        <ele>605</ele>
        <time>2008-09-16T08:30:19Z</time>
      </trkpt>
      <trkpt lat="44.41516" lon="2.56443">
        <ele>605</ele>
        <time>2008-09-16T08:30:20Z</time>
      </trkpt>
      <trkpt lat="44.41512" lon="2.56442">
        <ele>605</ele>
        <time>2008-09-16T08:30:20Z</time>
      </trkpt>
      <trkpt lat="44.41509" lon="2.56442">
        <ele>605</ele>
        <time>2008-09-16T08:30:21Z</time>
      </trkpt>
      <trkpt lat="44.41506" lon="2.56442">
        <ele>605</ele>
        <time>2008-09-16T08:30:21Z</time>
      </trkpt>
      <trkpt lat="44.41503" lon="2.56444">
        <ele>605</ele>
        <time>2008-09-16T08:30:22Z</time>
      </trkpt>
      <trkpt lat="44.41501" lon="2.56446">
        <ele>605</ele>
        <time>2008-09-16T08:30:22Z</time>
      </trkpt>
      <trkpt lat="44.41498" lon="2.56449">
        <ele>605</ele>
        <time>2008-09-16T08:30:23Z</time>
      </trkpt>
      <trkpt lat="44.41496" lon="2.56451">
        <ele>605</ele>
        <time>2008-09-16T08:30:23Z</time>
      </trkpt>
      <trkpt lat="44.41493" lon="2.56452">
        <ele>605</ele>
        <time>2008-09-16T08:30:24Z</time>
      </trkpt>
      <trkpt lat="44.4149" lon="2.56451">
        <ele>605</ele>
        <time>2008-09-16T08:30:24Z</time>
      </trkpt>
      <trkpt lat="44.41487" lon="2.56447">
        <ele>606</ele>
        <time>2008-09-16T08:30:25Z</time>
      </trkpt>
      <trkpt lat="44.41484" lon="2.56443">
        <ele>606</ele>
        <time>2008-09-16T08:30:26Z</time>
      </trkpt>
      <trkpt lat="44.41482" lon="2.56438">
        <ele>606</ele>
        <time>2008-09-16T08:30:26Z</time>
      </trkpt>
      <trkpt lat="44.4148" lon="2.56433">
        <ele>606</ele>
        <time>2008-09-16T08:30:27Z</time>
      </trkpt>
      <trkpt lat="44.41477" lon="2.56428">
        <ele>605</ele>
        <time>2008-09-16T08:30:28Z</time>
      </trkpt>
      <trkpt lat="44.41474" lon="2.56422">
        <ele>605</ele>
        <time>2008-09-16T08:30:28Z</time>
      </trkpt>
      <trkpt lat="44.41471" lon="2.56417">
        <ele>605</ele>
        <time>2008-09-16T08:30:29Z</time>
      </trkpt>
      <trkpt lat="44.41467" lon="2.56412">
        <ele>605</ele>
        <time>2008-09-16T08:30:30Z</time>
      </trkpt>
      <trkpt lat="44.41463" lon="2.56407">
        <ele>604</ele>
        <time>2008-09-16T08:30:31Z</time>
      </trkpt>
      <trkpt lat="44.41459" lon="2.56402">
        <ele>604</ele>
        <time>2008-09-16T08:30:32Z</time>
      </trkpt>
      <trkpt lat="44.41454" lon="2.56397">
        <ele>604</ele>
        <time>2008-09-16T08:30:33Z</time>
      </trkpt>
      <trkpt lat="44.41449" lon="2.56392">
        <ele>603</ele>
        <time>2008-09-16T08:30:34Z</time>
      </trkpt>
      <trkpt lat="44.41444" lon="2.56388">
        <ele>603</ele>
        <time>2008-09-16T08:30:35Z</time>
      </trkpt>
      <trkpt lat="44.4144" lon="2.56383">
        <ele>603</ele>
        <time>2008-09-16T08:30:36Z</time>
      </trkpt>
      <trkpt lat="44.41435" lon="2.56377">
        <ele>602</ele>
        <time>2008-09-16T08:30:37Z</time>
      </trkpt>
      <trkpt lat="44.4143" lon="2.56372">
        <ele>602</ele>
        <time>2008-09-16T08:30:38Z</time>
      </trkpt>
      <trkpt lat="44.41425" lon="2.56367">
        <ele>602</ele>
        <time>2008-09-16T08:30:39Z</time>
      </trkpt>
      <trkpt lat="44.41421" lon="2.56362">
        <ele>602</ele>
        <time>2008-09-16T08:30:39Z</time>
      </trkpt>
      <trkpt lat="44.41416" lon="2.56357">
        <ele>602</ele>
        <time>2008-09-16T08:30:40Z</time>
      </trkpt>
      <trkpt lat="44.41412" lon="2.56352">
        <ele>602</ele>
        <time>2008-09-16T08:30:41Z</time>
      </trkpt>
      <trkpt lat="44.41407" lon="2.56347">
        <ele>602</ele>
        <time>2008-09-16T08:30:42Z</time>
      </trkpt>
      <trkpt lat="44.41403" lon="2.56343">
        <ele>602</ele>
        <time>2008-09-16T08:30:43Z</time>
      </trkpt>
      <trkpt lat="44.41398" lon="2.56338">
        <ele>602</ele>
        <time>2008-09-16T08:30:44Z</time>
      </trkpt>
      <trkpt lat="44.41394" lon="2.56334">
        <ele>602</ele>
        <time>2008-09-16T08:30:45Z</time>
      </trkpt>
      <trkpt lat="44.41389" lon="2.5633">
        <ele>602</ele>
        <time>2008-09-16T08:30:46Z</time>
      </trkpt>
      <trkpt lat="44.41384" lon="2.56326">
        <ele>602</ele>
        <time>2008-09-16T08:30:47Z</time>
      </trkpt>
      <trkpt lat="44.41379" lon="2.56323">
        <ele>602</ele>
        <time>2008-09-16T08:30:47Z</time>
      </trkpt>
      <trkpt lat="44.41374" lon="2.5632">
        <ele>602</ele>
        <time>2008-09-16T08:30:48Z</time>
      </trkpt>
      <trkpt lat="44.41369" lon="2.56318">
        <ele>602</ele>
        <time>2008-09-16T08:30:49Z</time>
      </trkpt>
      <trkpt lat="44.41364" lon="2.56316">
        <ele>603</ele>
        <time>2008-09-16T08:30:50Z</time>
      </trkpt>
      <trkpt lat="44.41359" lon="2.56316">
        <ele>603</ele>
        <time>2008-09-16T08:30:51Z</time>
      </trkpt>
      <trkpt lat="44.41355" lon="2.56314">
        <ele>603</ele>
        <time>2008-09-16T08:30:52Z</time>
      </trkpt>
      <trkpt lat="44.41352" lon="2.5631">
        <ele>603</ele>
        <time>2008-09-16T08:30:52Z</time>
      </trkpt>
      <trkpt lat="44.41351" lon="2.56306">
        <ele>603</ele>
        <time>2008-09-16T08:30:53Z</time>
      </trkpt>
      <trkpt lat="44.4135" lon="2.56301">
        <ele>603</ele>
        <time>2008-09-16T08:30:53Z</time>
      </trkpt>
      <trkpt lat="44.41349" lon="2.56296">
        <ele>603</ele>
        <time>2008-09-16T08:30:54Z</time>
      </trkpt>
      <trkpt lat="44.41348" lon="2.56291">
        <ele>603</ele>
        <time>2008-09-16T08:30:54Z</time>
      </trkpt>
      <trkpt lat="44.41347" lon="2.56286">
        <ele>602</ele>
        <time>2008-09-16T08:30:55Z</time>
      </trkpt>
      <trkpt lat="44.41347" lon="2.5628">
        <ele>602</ele>
        <time>2008-09-16T08:30:56Z</time>
      </trkpt>
      <trkpt lat="44.41346" lon="2.56274">
        <ele>602</ele>
        <time>2008-09-16T08:30:56Z</time>
      </trkpt>
      <trkpt lat="44.41346" lon="2.56268">
        <ele>602</ele>
        <time>2008-09-16T08:30:57Z</time>
      </trkpt>
      <trkpt lat="44.41345" lon="2.56262">
        <ele>601</ele>
        <time>2008-09-16T08:30:58Z</time>
      </trkpt>
      <trkpt lat="44.41344" lon="2.56256">
        <ele>602</ele>
        <time>2008-09-16T08:30:59Z</time>
      </trkpt>
      <trkpt lat="44.41342" lon="2.5625">
        <ele>602</ele>
        <time>2008-09-16T08:30:59Z</time>
      </trkpt>
      <trkpt lat="44.41341" lon="2.56245">
        <ele>601</ele>
        <time>2008-09-16T08:31:00Z</time>
      </trkpt>
      <trkpt lat="44.4134" lon="2.56239">
        <ele>601</ele>
        <time>2008-09-16T08:31:01Z</time>
      </trkpt>
      <trkpt lat="44.41339" lon="2.56233">
        <ele>601</ele>
        <time>2008-09-16T08:31:01Z</time>
      </trkpt>
      <trkpt lat="44.41337" lon="2.56228">
        <ele>602</ele>
        <time>2008-09-16T08:31:02Z</time>
      </trkpt>
      <trkpt lat="44.41335" lon="2.56223">
        <ele>601</ele>
        <time>2008-09-16T08:31:03Z</time>
      </trkpt>
      <trkpt lat="44.41333" lon="2.56218">
        <ele>601</ele>
        <time>2008-09-16T08:31:03Z</time>
      </trkpt>
      <trkpt lat="44.41331" lon="2.56212">
        <ele>601</ele>
        <time>2008-09-16T08:31:04Z</time>
      </trkpt>
      <trkpt lat="44.41329" lon="2.56207">
        <ele>601</ele>
        <time>2008-09-16T08:31:05Z</time>
      </trkpt>
      <trkpt lat="44.41327" lon="2.56201">
        <ele>601</ele>
        <time>2008-09-16T08:31:05Z</time>
      </trkpt>
      <trkpt lat="44.41325" lon="2.56196">
        <ele>601</ele>
        <time>2008-09-16T08:31:06Z</time>
      </trkpt>
      <trkpt lat="44.41322" lon="2.56192">
        <ele>601</ele>
        <time>2008-09-16T08:31:07Z</time>
      </trkpt>
      <trkpt lat="44.4132" lon="2.56187">
        <ele>601</ele>
        <time>2008-09-16T08:31:07Z</time>
      </trkpt>
      <trkpt lat="44.41318" lon="2.56183">
        <ele>601</ele>
        <time>2008-09-16T08:31:08Z</time>
      </trkpt>
      <trkpt lat="44.41315" lon="2.56178">
        <ele>601</ele>
        <time>2008-09-16T08:31:09Z</time>
      </trkpt>
      <trkpt lat="44.41313" lon="2.56174">
        <ele>601</ele>
        <time>2008-09-16T08:31:09Z</time>
      </trkpt>
      <trkpt lat="44.4131" lon="2.56169">
        <ele>601</ele>
        <time>2008-09-16T08:31:10Z</time>
      </trkpt>
      <trkpt lat="44.41308" lon="2.56165">
        <ele>601</ele>
        <time>2008-09-16T08:31:11Z</time>
      </trkpt>
      <trkpt lat="44.41306" lon="2.5616">
        <ele>602</ele>
        <time>2008-09-16T08:31:11Z</time>
      </trkpt>
      <trkpt lat="44.41303" lon="2.56155">
        <ele>602</ele>
        <time>2008-09-16T08:31:12Z</time>
      </trkpt>
      <trkpt lat="44.41301" lon="2.56151">
        <ele>602</ele>
        <time>2008-09-16T08:31:13Z</time>
      </trkpt>
      <trkpt lat="44.41299" lon="2.56146">
        <ele>602</ele>
        <time>2008-09-16T08:31:13Z</time>
      </trkpt>
      <trkpt lat="44.41297" lon="2.56142">
        <ele>602</ele>
        <time>2008-09-16T08:31:14Z</time>
      </trkpt>
      <trkpt lat="44.41295" lon="2.56138">
        <ele>602</ele>
        <time>2008-09-16T08:31:14Z</time>
      </trkpt>
      <trkpt lat="44.41294" lon="2.56134">
        <ele>602</ele>
        <time>2008-09-16T08:31:15Z</time>
      </trkpt>
      <trkpt lat="44.41292" lon="2.5613">
        <ele>602</ele>
        <time>2008-09-16T08:31:15Z</time>
      </trkpt>
      <trkpt lat="44.41291" lon="2.56126">
        <ele>602</ele>
        <time>2008-09-16T08:31:16Z</time>
      </trkpt>
      <trkpt lat="44.41289" lon="2.56123">
        <ele>602</ele>
        <time>2008-09-16T08:31:16Z</time>
      </trkpt>
      <trkpt lat="44.41287" lon="2.56119">
        <ele>602</ele>
        <time>2008-09-16T08:31:17Z</time>
      </trkpt>
      <trkpt lat="44.41285" lon="2.56116">
        <ele>602</ele>
        <time>2008-09-16T08:31:17Z</time>
      </trkpt>
      <trkpt lat="44.41284" lon="2.56112">
        <ele>602</ele>
        <time>2008-09-16T08:31:18Z</time>
      </trkpt>
      <trkpt lat="44.41282" lon="2.56108">
        <ele>602</ele>
        <time>2008-09-16T08:31:18Z</time>
      </trkpt>
      <trkpt lat="44.4128" lon="2.56104">
        <ele>602</ele>
        <time>2008-09-16T08:31:19Z</time>
      </trkpt>
      <trkpt lat="44.41279" lon="2.56101">
        <ele>602</ele>
        <time>2008-09-16T08:31:19Z</time>
      </trkpt>
      <trkpt lat="44.41277" lon="2.56098">
        <ele>602</ele>
        <time>2008-09-16T08:31:20Z</time>
      </trkpt>
      <trkpt lat="44.41275" lon="2.56095">
        <ele>602</ele>
        <time>2008-09-16T08:31:20Z</time>
      </trkpt>
      <trkpt lat="44.41274" lon="2.56091">
        <ele>602</ele>
        <time>2008-09-16T08:31:21Z</time>
      </trkpt>
      <trkpt lat="44.41272" lon="2.56087">
        <ele>601</ele>
        <time>2008-09-16T08:31:21Z</time>
      </trkpt>
      <trkpt lat="44.4127" lon="2.56084">
        <ele>602</ele>
        <time>2008-09-16T08:31:22Z</time>
      </trkpt>
      <trkpt lat="44.41269" lon="2.5608">
        <ele>602</ele>
        <time>2008-09-16T08:31:22Z</time>
      </trkpt>
      <trkpt lat="44.41267" lon="2.56076">
        <ele>602</ele>
        <time>2008-09-16T08:31:23Z</time>
      </trkpt>
      <trkpt lat="44.41266" lon="2.56072">
        <ele>602</ele>
        <time>2008-09-16T08:31:23Z</time>
      </trkpt>
      <trkpt lat="44.41264" lon="2.56068">
        <ele>602</ele>
        <time>2008-09-16T08:31:24Z</time>
      </trkpt>
      <trkpt lat="44.41263" lon="2.56063">
        <ele>602</ele>
        <time>2008-09-16T08:31:24Z</time>
      </trkpt>
      <trkpt lat="44.41262" lon="2.56059">
        <ele>602</ele>
        <time>2008-09-16T08:31:25Z</time>
      </trkpt>
      <trkpt lat="44.4126" lon="2.56055">
        <ele>602</ele>
        <time>2008-09-16T08:31:25Z</time>
      </trkpt>
      <trkpt lat="44.41258" lon="2.5605">
        <ele>602</ele>
        <time>2008-09-16T08:31:26Z</time>
      </trkpt>
      <trkpt lat="44.41256" lon="2.56045">
        <ele>602</ele>
        <time>2008-09-16T08:31:27Z</time>
      </trkpt>
      <trkpt lat="44.41255" lon="2.5604">
        <ele>602</ele>
        <time>2008-09-16T08:31:27Z</time>
      </trkpt>
      <trkpt lat="44.41253" lon="2.56034">
        <ele>602</ele>
        <time>2008-09-16T08:31:28Z</time>
      </trkpt>
      <trkpt lat="44.41252" lon="2.56029">
        <ele>602</ele>
        <time>2008-09-16T08:31:29Z</time>
      </trkpt>
      <trkpt lat="44.41251" lon="2.56023">
        <ele>602</ele>
        <time>2008-09-16T08:31:29Z</time>
      </trkpt>
      <trkpt lat="44.41251" lon="2.56017">
        <ele>601</ele>
        <time>2008-09-16T08:31:30Z</time>
      </trkpt>
      <trkpt lat="44.41251" lon="2.56011">
        <ele>601</ele>
        <time>2008-09-16T08:31:31Z</time>
      </trkpt>
      <trkpt lat="44.4125" lon="2.56004">
        <ele>601</ele>
        <time>2008-09-16T08:31:31Z</time>
      </trkpt>
      <trkpt lat="44.41249" lon="2.55998">
        <ele>601</ele>
        <time>2008-09-16T08:31:32Z</time>
      </trkpt>
      <trkpt lat="44.41248" lon="2.55992">
        <ele>601</ele>
        <time>2008-09-16T08:31:33Z</time>
      </trkpt>
      <trkpt lat="44.41247" lon="2.55986">
        <ele>602</ele>
        <time>2008-09-16T08:31:34Z</time>
      </trkpt>
      <trkpt lat="44.41247" lon="2.55979">
        <ele>602</ele>
        <time>2008-09-16T08:31:34Z</time>
      </trkpt>
      <trkpt lat="44.41246" lon="2.55973">
        <ele>602</ele>
        <time>2008-09-16T08:31:35Z</time>
      </trkpt>
      <trkpt lat="44.41245" lon="2.55968">
        <ele>602</ele>
        <time>2008-09-16T08:31:36Z</time>
      </trkpt>
      <trkpt lat="44.41245" lon="2.55962">
        <ele>602</ele>
        <time>2008-09-16T08:31:36Z</time>
      </trkpt>
      <trkpt lat="44.41245" lon="2.55956">
        <ele>601</ele>
        <time>2008-09-16T08:31:37Z</time>
      </trkpt>
      <trkpt lat="44.41244" lon="2.5595">
        <ele>601</ele>
        <time>2008-09-16T08:31:38Z</time>
      </trkpt>
      <trkpt lat="44.41243" lon="2.55943">
        <ele>600</ele>
        <time>2008-09-16T08:31:39Z</time>
      </trkpt>
      <trkpt lat="44.41242" lon="2.55936">
        <ele>600</ele>
        <time>2008-09-16T08:31:39Z</time>
      </trkpt>
      <trkpt lat="44.41242" lon="2.55929">
        <ele>599</ele>
        <time>2008-09-16T08:31:40Z</time>
      </trkpt>
      <trkpt lat="44.41242" lon="2.55923">
        <ele>599</ele>
        <time>2008-09-16T08:31:41Z</time>
      </trkpt>
      <trkpt lat="44.41242" lon="2.55916">
        <ele>598</ele>
        <time>2008-09-16T08:31:42Z</time>
      </trkpt>
      <trkpt lat="44.41242" lon="2.5591">
        <ele>597</ele>
        <time>2008-09-16T08:31:42Z</time>
      </trkpt>
      <trkpt lat="44.41241" lon="2.55903">
        <ele>597</ele>
        <time>2008-09-16T08:31:43Z</time>
      </trkpt>
      <trkpt lat="44.41241" lon="2.55896">
        <ele>596</ele>
        <time>2008-09-16T08:31:44Z</time>
      </trkpt>
      <trkpt lat="44.41241" lon="2.55889">
        <ele>595</ele>
        <time>2008-09-16T08:31:45Z</time>
      </trkpt>
      <trkpt lat="44.41241" lon="2.55881">
        <ele>595</ele>
        <time>2008-09-16T08:31:46Z</time>
      </trkpt>
      <trkpt lat="44.41241" lon="2.55873">
        <ele>594</ele>
        <time>2008-09-16T08:31:47Z</time>
      </trkpt>
      <trkpt lat="44.41241" lon="2.55865">
        <ele>595</ele>
        <time>2008-09-16T08:31:47Z</time>
      </trkpt>
      <trkpt lat="44.41241" lon="2.55858">
        <ele>595</ele>
        <time>2008-09-16T08:31:48Z</time>
      </trkpt>
      <trkpt lat="44.41242" lon="2.55851">
        <ele>596</ele>
        <time>2008-09-16T08:31:49Z</time>
      </trkpt>
      <trkpt lat="44.41242" lon="2.55843">
        <ele>595</ele>
        <time>2008-09-16T08:31:50Z</time>
      </trkpt>
      <trkpt lat="44.41243" lon="2.55835">
        <ele>594</ele>
        <time>2008-09-16T08:31:51Z</time>
      </trkpt>
      <trkpt lat="44.41243" lon="2.55827">
        <ele>594</ele>
        <time>2008-09-16T08:31:52Z</time>
      </trkpt>
      <trkpt lat="44.41244" lon="2.5582">
        <ele>594</ele>
        <time>2008-09-16T08:31:53Z</time>
      </trkpt>
      <trkpt lat="44.41245" lon="2.55812">
        <ele>593</ele>
        <time>2008-09-16T08:31:54Z</time>
      </trkpt>
      <trkpt lat="44.41245" lon="2.55805">
        <ele>592</ele>
        <time>2008-09-16T08:31:54Z</time>
      </trkpt>
      <trkpt lat="44.41245" lon="2.55799">
        <ele>592</ele>
        <time>2008-09-16T08:31:55Z</time>
      </trkpt>
      <trkpt lat="44.41243" lon="2.55794">
        <ele>591</ele>
        <time>2008-09-16T08:31:56Z</time>
      </trkpt>
      <trkpt lat="44.4124" lon="2.55788">
        <ele>591</ele>
        <time>2008-09-16T08:31:57Z</time>
      </trkpt>
      <trkpt lat="44.41236" lon="2.55785">
        <ele>591</ele>
        <time>2008-09-16T08:31:57Z</time>
      </trkpt>
      <trkpt lat="44.41231" lon="2.55781">
        <ele>591</ele>
        <time>2008-09-16T08:31:58Z</time>
      </trkpt>
      <trkpt lat="44.41226" lon="2.55777">
        <ele>591</ele>
        <time>2008-09-16T08:31:59Z</time>
      </trkpt>
      <trkpt lat="44.41222" lon="2.55774">
        <ele>591</ele>
        <time>2008-09-16T08:32:00Z</time>
      </trkpt>
      <trkpt lat="44.41219" lon="2.5577">
        <ele>591</ele>
        <time>2008-09-16T08:32:01Z</time>
      </trkpt>
      <trkpt lat="44.41219" lon="2.55766">
        <ele>591</ele>
        <time>2008-09-16T08:32:01Z</time>
      </trkpt>
      <trkpt lat="44.4122" lon="2.5576">
        <ele>590</ele>
        <time>2008-09-16T08:32:02Z</time>
      </trkpt>
      <trkpt lat="44.41221" lon="2.55753">
        <ele>591</ele>
        <time>2008-09-16T08:32:03Z</time>
      </trkpt>
      <trkpt lat="44.41223" lon="2.55745">
        <ele>591</ele>
        <time>2008-09-16T08:32:03Z</time>
      </trkpt>
      <trkpt lat="44.41224" lon="2.55738">
        <ele>591</ele>
        <time>2008-09-16T08:32:04Z</time>
      </trkpt>
      <trkpt lat="44.41225" lon="2.55732">
        <ele>592</ele>
        <time>2008-09-16T08:32:05Z</time>
      </trkpt>
      <trkpt lat="44.41225" lon="2.55726">
        <ele>592</ele>
        <time>2008-09-16T08:32:06Z</time>
      </trkpt>
      <trkpt lat="44.41226" lon="2.55722">
        <ele>592</ele>
        <time>2008-09-16T08:32:06Z</time>
      </trkpt>
      <trkpt lat="44.41227" lon="2.55716">
        <ele>592</ele>
        <time>2008-09-16T08:32:07Z</time>
      </trkpt>
      <trkpt lat="44.41229" lon="2.5571">
        <ele>591</ele>
        <time>2008-09-16T08:32:08Z</time>
      </trkpt>
      <trkpt lat="44.4123" lon="2.55704">
        <ele>591</ele>
        <time>2008-09-16T08:32:08Z</time>
      </trkpt>
      <trkpt lat="44.41231" lon="2.55698">
        <ele>591</ele>
        <time>2008-09-16T08:32:09Z</time>
      </trkpt>
      <trkpt lat="44.41232" lon="2.55693">
        <ele>591</ele>
        <time>2008-09-16T08:32:10Z</time>
      </trkpt>
      <trkpt lat="44.41233" lon="2.55688">
        <ele>591</ele>
        <time>2008-09-16T08:32:10Z</time>
      </trkpt>
      <trkpt lat="44.41234" lon="2.55682">
        <ele>591</ele>
        <time>2008-09-16T08:32:11Z</time>
      </trkpt>
      <trkpt lat="44.41235" lon="2.55675">
        <ele>591</ele>
        <time>2008-09-16T08:32:12Z</time>
      </trkpt>
      <trkpt lat="44.41237" lon="2.55669">
        <ele>591</ele>
        <time>2008-09-16T08:32:13Z</time>
      </trkpt>
      <trkpt lat="44.41238" lon="2.55662">
        <ele>591</ele>
        <time>2008-09-16T08:32:13Z</time>
      </trkpt>
      <trkpt lat="44.41239" lon="2.55654">
        <ele>590</ele>
        <time>2008-09-16T08:32:14Z</time>
      </trkpt>
      <trkpt lat="44.4124" lon="2.55645">
        <ele>590</ele>
        <time>2008-09-16T08:32:15Z</time>
      </trkpt>
      <trkpt lat="44.4124" lon="2.55637">
        <ele>589</ele>
        <time>2008-09-16T08:32:16Z</time>
      </trkpt>
      <trkpt lat="44.41241" lon="2.55628">
        <ele>589</ele>
        <time>2008-09-16T08:32:17Z</time>
      </trkpt>
      <trkpt lat="44.41241" lon="2.55619">
        <ele>588</ele>
        <time>2008-09-16T08:32:18Z</time>
      </trkpt>
      <trkpt lat="44.41241" lon="2.5561">
        <ele>588</ele>
        <time>2008-09-16T08:32:19Z</time>
      </trkpt>
      <trkpt lat="44.41239" lon="2.556">
        <ele>588</ele>
        <time>2008-09-16T08:32:21Z</time>
      </trkpt>
      <trkpt lat="44.41238" lon="2.55589">
        <ele>588</ele>
        <time>2008-09-16T08:32:22Z</time>
      </trkpt>
      <trkpt lat="44.41237" lon="2.55579">
        <ele>588</ele>
        <time>2008-09-16T08:32:23Z</time>
      </trkpt>
      <trkpt lat="44.41236" lon="2.55569">
        <ele>588</ele>
        <time>2008-09-16T08:32:24Z</time>
      </trkpt>
      <trkpt lat="44.41235" lon="2.5556">
        <ele>588</ele>
        <time>2008-09-16T08:32:25Z</time>
      </trkpt>
      <trkpt lat="44.41235" lon="2.55551">
        <ele>588</ele>
        <time>2008-09-16T08:32:26Z</time>
      </trkpt>
      <trkpt lat="44.41235" lon="2.55543">
        <ele>588</ele>
        <time>2008-09-16T08:32:27Z</time>
      </trkpt>
      <trkpt lat="44.41236" lon="2.55537">
        <ele>588</ele>
        <time>2008-09-16T08:32:28Z</time>
      </trkpt>
      <trkpt lat="44.41238" lon="2.55533">
        <ele>588</ele>
        <time>2008-09-16T08:32:28Z</time>
      </trkpt>
      <trkpt lat="44.41241" lon="2.5553">
        <ele>588</ele>
        <time>2008-09-16T08:32:29Z</time>
      </trkpt>
      <trkpt lat="44.41245" lon="2.5553">
        <ele>587</ele>
        <time>2008-09-16T08:32:30Z</time>
      </trkpt>
      <trkpt lat="44.41251" lon="2.5553">
        <ele>587</ele>
        <time>2008-09-16T08:32:30Z</time>
      </trkpt>
      <trkpt lat="44.41257" lon="2.55531">
        <ele>586</ele>
        <time>2008-09-16T08:32:31Z</time>
      </trkpt>
      <trkpt lat="44.41264" lon="2.55531">
        <ele>586</ele>
        <time>2008-09-16T08:32:33Z</time>
      </trkpt>
      <trkpt lat="44.41271" lon="2.5553">
        <ele>585</ele>
        <time>2008-09-16T08:32:34Z</time>
      </trkpt>
      <trkpt lat="44.41278" lon="2.5553">
        <ele>584</ele>
        <time>2008-09-16T08:32:35Z</time>
      </trkpt>
      <trkpt lat="44.41286" lon="2.55529">
        <ele>584</ele>
        <time>2008-09-16T08:32:36Z</time>
      </trkpt>
      <trkpt lat="44.41294" lon="2.55527">
        <ele>583</ele>
        <time>2008-09-16T08:32:37Z</time>
      </trkpt>
      <trkpt lat="44.41301" lon="2.55525">
        <ele>583</ele>
        <time>2008-09-16T08:32:39Z</time>
      </trkpt>
      <trkpt lat="44.41308" lon="2.55521">
        <ele>582</ele>
        <time>2008-09-16T08:32:40Z</time>
      </trkpt>
      <trkpt lat="44.41315" lon="2.55516">
        <ele>581</ele>
        <time>2008-09-16T08:32:41Z</time>
      </trkpt>
      <trkpt lat="44.41321" lon="2.55509">
        <ele>580</ele>
        <time>2008-09-16T08:32:42Z</time>
      </trkpt>
      <trkpt lat="44.41328" lon="2.55502">
        <ele>579</ele>
        <time>2008-09-16T08:32:44Z</time>
      </trkpt>
      <trkpt lat="44.41333" lon="2.55494">
        <ele>578</ele>
        <time>2008-09-16T08:32:45Z</time>
      </trkpt>
      <trkpt lat="44.41339" lon="2.55486">
        <ele>577</ele>
        <time>2008-09-16T08:32:46Z</time>
      </trkpt>
      <trkpt lat="44.41344" lon="2.55477">
        <ele>577</ele>
        <time>2008-09-16T08:32:48Z</time>
      </trkpt>
      <trkpt lat="44.41349" lon="2.55467">
        <ele>576</ele>
        <time>2008-09-16T08:32:49Z</time>
      </trkpt>
      <trkpt lat="44.41354" lon="2.55458">
        <ele>576</ele>
        <time>2008-09-16T08:32:50Z</time>
      </trkpt>
      <trkpt lat="44.41359" lon="2.55449">
        <ele>575</ele>
        <time>2008-09-16T08:32:51Z</time>
      </trkpt>
      <trkpt lat="44.41364" lon="2.55441">
        <ele>575</ele>
        <time>2008-09-16T08:32:53Z</time>
      </trkpt>
      <trkpt lat="44.4137" lon="2.55434">
        <ele>575</ele>
        <time>2008-09-16T08:32:54Z</time>
      </trkpt>
      <trkpt lat="44.41377" lon="2.55426">
        <ele>574</ele>
        <time>2008-09-16T08:32:55Z</time>
      </trkpt>
      <trkpt lat="44.41383" lon="2.55419">
        <ele>573</ele>
        <time>2008-09-16T08:32:57Z</time>
      </trkpt>
      <trkpt lat="44.4139" lon="2.55413">
        <ele>572</ele>
        <time>2008-09-16T08:32:58Z</time>
      </trkpt>
      <trkpt lat="44.41396" lon="2.55408">
        <ele>572</ele>
        <time>2008-09-16T08:32:59Z</time>
      </trkpt>
      <trkpt lat="44.41403" lon="2.55403">
        <ele>572</ele>
        <time>2008-09-16T08:33:00Z</time>
      </trkpt>
      <trkpt lat="44.41409" lon="2.55398">
        <ele>571</ele>
        <time>2008-09-16T08:33:01Z</time>
      </trkpt>
      <trkpt lat="44.41416" lon="2.55394">
        <ele>571</ele>
        <time>2008-09-16T08:33:03Z</time>
      </trkpt>
      <trkpt lat="44.41423" lon="2.55389">
        <ele>570</ele>
        <time>2008-09-16T08:33:04Z</time>
      </trkpt>
      <trkpt lat="44.4143" lon="2.55386">
        <ele>570</ele>
        <time>2008-09-16T08:33:05Z</time>
      </trkpt>
      <trkpt lat="44.41438" lon="2.55383">
        <ele>569</ele>
        <time>2008-09-16T08:33:06Z</time>
      </trkpt>
      <trkpt lat="44.41445" lon="2.55379">
        <ele>568</ele>
        <time>2008-09-16T08:33:08Z</time>
      </trkpt>
      <trkpt lat="44.41451" lon="2.55375">
        <ele>567</ele>
        <time>2008-09-16T08:33:09Z</time>
      </trkpt>
      <trkpt lat="44.41457" lon="2.5537">
        <ele>567</ele>
        <time>2008-09-16T08:33:10Z</time>
      </trkpt>
      <trkpt lat="44.41462" lon="2.55364">
        <ele>566</ele>
        <time>2008-09-16T08:33:11Z</time>
      </trkpt>
      <trkpt lat="44.41466" lon="2.55357">
        <ele>566</ele>
        <time>2008-09-16T08:33:12Z</time>
      </trkpt>
      <trkpt lat="44.4147" lon="2.55352">
        <ele>566</ele>
        <time>2008-09-16T08:33:13Z</time>
      </trkpt>
      <trkpt lat="44.41474" lon="2.55345">
        <ele>566</ele>
        <time>2008-09-16T08:33:14Z</time>
      </trkpt>
      <trkpt lat="44.41477" lon="2.55339">
        <ele>565</ele>
        <time>2008-09-16T08:33:15Z</time>
      </trkpt>
      <trkpt lat="44.41481" lon="2.55333">
        <ele>565</ele>
        <time>2008-09-16T08:33:16Z</time>
      </trkpt>
      <trkpt lat="44.41484" lon="2.55327">
        <ele>565</ele>
        <time>2008-09-16T08:33:16Z</time>
      </trkpt>
      <trkpt lat="44.41487" lon="2.55322">
        <ele>564</ele>
        <time>2008-09-16T08:33:17Z</time>
      </trkpt>
      <trkpt lat="44.41491" lon="2.55316">
        <ele>564</ele>
        <time>2008-09-16T08:33:18Z</time>
      </trkpt>
      <trkpt lat="44.41493" lon="2.5531">
        <ele>564</ele>
        <time>2008-09-16T08:33:19Z</time>
      </trkpt>
      <trkpt lat="44.41496" lon="2.55305">
        <ele>564</ele>
        <time>2008-09-16T08:33:20Z</time>
      </trkpt>
      <trkpt lat="44.41499" lon="2.55299">
        <ele>563</ele>
        <time>2008-09-16T08:33:20Z</time>
      </trkpt>
      <trkpt lat="44.41502" lon="2.55293">
        <ele>563</ele>
        <time>2008-09-16T08:33:21Z</time>
      </trkpt>
      <trkpt lat="44.41504" lon="2.55287">
        <ele>563</ele>
        <time>2008-09-16T08:33:22Z</time>
      </trkpt>
      <trkpt lat="44.41507" lon="2.5528">
        <ele>562</ele>
        <time>2008-09-16T08:33:23Z</time>
      </trkpt>
      <trkpt lat="44.4151" lon="2.55272">
        <ele>562</ele>
        <time>2008-09-16T08:33:24Z</time>
      </trkpt>
      <trkpt lat="44.41514" lon="2.55265">
        <ele>561</ele>
        <time>2008-09-16T08:33:25Z</time>
      </trkpt>
      <trkpt lat="44.41517" lon="2.55259">
        <ele>561</ele>
        <time>2008-09-16T08:33:26Z</time>
      </trkpt>
      <trkpt lat="44.4152" lon="2.55254">
        <ele>562</ele>
        <time>2008-09-16T08:33:27Z</time>
      </trkpt>
      <trkpt lat="44.41523" lon="2.55247">
        <ele>563</ele>
        <time>2008-09-16T08:33:28Z</time>
      </trkpt>
      <trkpt lat="44.41525" lon="2.55242">
        <ele>563</ele>
        <time>2008-09-16T08:33:28Z</time>
      </trkpt>
      <trkpt lat="44.41527" lon="2.55236">
        <ele>562</ele>
        <time>2008-09-16T08:33:29Z</time>
      </trkpt>
      <trkpt lat="44.4153" lon="2.55229">
        <ele>561</ele>
        <time>2008-09-16T08:33:30Z</time>
      </trkpt>
      <trkpt lat="44.41532" lon="2.55222">
        <ele>560</ele>
        <time>2008-09-16T08:33:31Z</time>
      </trkpt>
      <trkpt lat="44.41534" lon="2.55214">
        <ele>560</ele>
        <time>2008-09-16T08:33:32Z</time>
      </trkpt>
      <trkpt lat="44.41537" lon="2.55206">
        <ele>559</ele>
        <time>2008-09-16T08:33:33Z</time>
      </trkpt>
      <trkpt lat="44.4154" lon="2.55197">
        <ele>559</ele>
        <time>2008-09-16T08:33:34Z</time>
      </trkpt>
      <trkpt lat="44.41543" lon="2.5519">
        <ele>558</ele>
        <time>2008-09-16T08:33:35Z</time>
      </trkpt>
      <trkpt lat="44.41547" lon="2.55184">
        <ele>558</ele>
        <time>2008-09-16T08:33:36Z</time>
      </trkpt>
      <trkpt lat="44.41549" lon="2.55177">
        <ele>558</ele>
        <time>2008-09-16T08:33:37Z</time>
      </trkpt>
      <trkpt lat="44.41552" lon="2.55173">
        <ele>558</ele>
        <time>2008-09-16T08:33:37Z</time>
      </trkpt>
      <trkpt lat="44.41555" lon="2.55168">
        <ele>558</ele>
        <time>2008-09-16T08:33:38Z</time>
      </trkpt>
      <trkpt lat="44.41558" lon="2.55163">
        <ele>558</ele>
        <time>2008-09-16T08:33:39Z</time>
      </trkpt>
      <trkpt lat="44.41561" lon="2.55157">
        <ele>558</ele>
        <time>2008-09-16T08:33:40Z</time>
      </trkpt>
      <trkpt lat="44.41564" lon="2.55151">
        <ele>558</ele>
        <time>2008-09-16T08:33:40Z</time>
      </trkpt>
      <trkpt lat="44.41567" lon="2.55144">
        <ele>557</ele>
        <time>2008-09-16T08:33:41Z</time>
      </trkpt>
      <trkpt lat="44.41571" lon="2.55137">
        <ele>557</ele>
        <time>2008-09-16T08:33:42Z</time>
      </trkpt>
      <trkpt lat="44.41574" lon="2.55131">
        <ele>556</ele>
        <time>2008-09-16T08:33:43Z</time>
      </trkpt>
      <trkpt lat="44.41577" lon="2.55126">
        <ele>555</ele>
        <time>2008-09-16T08:33:44Z</time>
      </trkpt>
      <trkpt lat="44.4158" lon="2.55123">
        <ele>554</ele>
        <time>2008-09-16T08:33:45Z</time>
      </trkpt>
      <trkpt lat="44.41583" lon="2.55119">
        <ele>554</ele>
        <time>2008-09-16T08:33:45Z</time>
      </trkpt>
      <trkpt lat="44.41586" lon="2.55115">
        <ele>552</ele>
        <time>2008-09-16T08:33:46Z</time>
      </trkpt>
      <trkpt lat="44.41589" lon="2.55111">
        <ele>551</ele>
        <time>2008-09-16T08:33:46Z</time>
      </trkpt>
      <trkpt lat="44.41592" lon="2.55107">
        <ele>550</ele>
        <time>2008-09-16T08:33:47Z</time>
      </trkpt>
      <trkpt lat="44.41593" lon="2.55103">
        <ele>550</ele>
        <time>2008-09-16T08:33:48Z</time>
      </trkpt>
      <trkpt lat="44.41595" lon="2.551">
        <ele>550</ele>
        <time>2008-09-16T08:33:48Z</time>
      </trkpt>
      <trkpt lat="44.41598" lon="2.55098">
        <ele>550</ele>
        <time>2008-09-16T08:33:49Z</time>
      </trkpt>
      <trkpt lat="44.416" lon="2.55095">
        <ele>550</ele>
        <time>2008-09-16T08:33:49Z</time>
      </trkpt>
      <trkpt lat="44.41602" lon="2.55092">
        <ele>550</ele>
        <time>2008-09-16T08:33:50Z</time>
      </trkpt>
      <trkpt lat="44.41604" lon="2.55087">
        <ele>550</ele>
        <time>2008-09-16T08:33:50Z</time>
      </trkpt>
      <trkpt lat="44.41607" lon="2.55081">
        <ele>550</ele>
        <time>2008-09-16T08:33:51Z</time>
      </trkpt>
      <trkpt lat="44.41609" lon="2.55077">
        <ele>550</ele>
        <time>2008-09-16T08:33:52Z</time>
      </trkpt>
      <trkpt lat="44.41611" lon="2.55072">
        <ele>549</ele>
        <time>2008-09-16T08:33:52Z</time>
      </trkpt>
      <trkpt lat="44.41613" lon="2.55069">
        <ele>549</ele>
        <time>2008-09-16T08:33:53Z</time>
      </trkpt>
      <trkpt lat="44.41615" lon="2.55065">
        <ele>549</ele>
        <time>2008-09-16T08:33:53Z</time>
      </trkpt>
      <trkpt lat="44.41616" lon="2.55062">
        <ele>547</ele>
        <time>2008-09-16T08:33:54Z</time>
      </trkpt>
      <trkpt lat="44.41617" lon="2.55059">
        <ele>547</ele>
        <time>2008-09-16T08:33:54Z</time>
      </trkpt>
      <trkpt lat="44.41619" lon="2.55056">
        <ele>546</ele>
        <time>2008-09-16T08:33:55Z</time>
      </trkpt>
      <trkpt lat="44.41621" lon="2.55053">
        <ele>546</ele>
        <time>2008-09-16T08:33:55Z</time>
      </trkpt>
      <trkpt lat="44.41623" lon="2.55049">
        <ele>546</ele>
        <time>2008-09-16T08:33:56Z</time>
      </trkpt>
      <trkpt lat="44.41624" lon="2.55045">
        <ele>547</ele>
        <time>2008-09-16T08:33:56Z</time>
      </trkpt>
      <trkpt lat="44.41625" lon="2.55041">
        <ele>546</ele>
        <time>2008-09-16T08:33:57Z</time>
      </trkpt>
      <trkpt lat="44.41626" lon="2.55037">
        <ele>546</ele>
        <time>2008-09-16T08:33:57Z</time>
      </trkpt>
      <trkpt lat="44.41626" lon="2.55032">
        <ele>546</ele>
        <time>2008-09-16T08:33:58Z</time>
      </trkpt>
      <trkpt lat="44.41627" lon="2.55029">
        <ele>546</ele>
        <time>2008-09-16T08:33:58Z</time>
      </trkpt>
      <trkpt lat="44.41629" lon="2.55026">
        <ele>545</ele>
        <time>2008-09-16T08:33:58Z</time>
      </trkpt>
      <trkpt lat="44.4163" lon="2.55024">
        <ele>546</ele>
        <time>2008-09-16T08:33:59Z</time>
      </trkpt>
      <trkpt lat="44.41632" lon="2.55021">
        <ele>545</ele>
        <time>2008-09-16T08:33:59Z</time>
      </trkpt>
      <trkpt lat="44.41633" lon="2.55018">
        <ele>544</ele>
        <time>2008-09-16T08:34:00Z</time>
      </trkpt>
      <trkpt lat="44.41635" lon="2.55015">
        <ele>545</ele>
        <time>2008-09-16T08:34:00Z</time>
      </trkpt>
      <trkpt lat="44.41636" lon="2.55013">
        <ele>544</ele>
        <time>2008-09-16T08:34:00Z</time>
      </trkpt>
      <trkpt lat="44.41637" lon="2.55011">
        <ele>545</ele>
        <time>2008-09-16T08:34:01Z</time>
      </trkpt>
      <trkpt lat="44.41638" lon="2.55008">
        <ele>546</ele>
        <time>2008-09-16T08:34:01Z</time>
      </trkpt>
      <trkpt lat="44.41639" lon="2.55005">
        <ele>546</ele>
        <time>2008-09-16T08:34:01Z</time>
      </trkpt>
      <trkpt lat="44.41641" lon="2.55002">
        <ele>546</ele>
        <time>2008-09-16T08:34:02Z</time>
      </trkpt>
      <trkpt lat="44.41643" lon="2.54999">
        <ele>546</ele>
        <time>2008-09-16T08:34:02Z</time>
      </trkpt>
      <trkpt lat="44.41644" lon="2.54996">
        <ele>546</ele>
        <time>2008-09-16T08:34:03Z</time>
      </trkpt>
      <trkpt lat="44.41645" lon="2.54993">
        <ele>546</ele>
        <time>2008-09-16T08:34:03Z</time>
      </trkpt>
      <trkpt lat="44.41646" lon="2.54989">
        <ele>547</ele>
        <time>2008-09-16T08:34:03Z</time>
      </trkpt>
      <trkpt lat="44.41648" lon="2.54986">
        <ele>547</ele>
        <time>2008-09-16T08:34:04Z</time>
      </trkpt>
      <trkpt lat="44.41649" lon="2.54983">
        <ele>547</ele>
        <time>2008-09-16T08:34:04Z</time>
      </trkpt>
      <trkpt lat="44.4165" lon="2.54982">
        <ele>547</ele>
        <time>2008-09-16T08:34:05Z</time>
      </trkpt>
      <trkpt lat="44.41652" lon="2.54981">
        <ele>547</ele>
        <time>2008-09-16T08:34:05Z</time>
      </trkpt>
      <trkpt lat="44.41653" lon="2.54979">
        <ele>548</ele>
        <time>2008-09-16T08:34:05Z</time>
      </trkpt>
      <trkpt lat="44.41655" lon="2.54977">
        <ele>548</ele>
        <time>2008-09-16T08:34:05Z</time>
      </trkpt>
      <trkpt lat="44.41656" lon="2.54975">
        <ele>548</ele>
        <time>2008-09-16T08:34:06Z</time>
      </trkpt>
      <trkpt lat="44.41658" lon="2.54973">
        <ele>547</ele>
        <time>2008-09-16T08:34:06Z</time>
      </trkpt>
      <trkpt lat="44.4166" lon="2.54971">
        <ele>547</ele>
        <time>2008-09-16T08:34:07Z</time>
      </trkpt>
      <trkpt lat="44.41662" lon="2.5497">
        <ele>548</ele>
        <time>2008-09-16T08:34:07Z</time>
      </trkpt>
      <trkpt lat="44.41663" lon="2.54968">
        <ele>548</ele>
        <time>2008-09-16T08:34:07Z</time>
      </trkpt>
      <trkpt lat="44.41664" lon="2.54966">
        <ele>548</ele>
        <time>2008-09-16T08:34:07Z</time>
      </trkpt>
      <trkpt lat="44.41665" lon="2.54963">
        <ele>546</ele>
        <time>2008-09-16T08:34:08Z</time>
      </trkpt>
      <trkpt lat="44.41667" lon="2.5496">
        <ele>544</ele>
        <time>2008-09-16T08:34:08Z</time>
      </trkpt>
      <trkpt lat="44.41668" lon="2.54956">
        <ele>544</ele>
        <time>2008-09-16T08:34:09Z</time>
      </trkpt>
      <trkpt lat="44.4167" lon="2.54953">
        <ele>544</ele>
        <time>2008-09-16T08:34:09Z</time>
      </trkpt>
      <trkpt lat="44.41672" lon="2.5495">
        <ele>543</ele>
        <time>2008-09-16T08:34:10Z</time>
      </trkpt>
      <trkpt lat="44.41673" lon="2.54947">
        <ele>543</ele>
        <time>2008-09-16T08:34:10Z</time>
      </trkpt>
      <trkpt lat="44.41675" lon="2.54942">
        <ele>540</ele>
        <time>2008-09-16T08:34:11Z</time>
      </trkpt>
      <trkpt lat="44.41675" lon="2.54937">
        <ele>539</ele>
        <time>2008-09-16T08:34:11Z</time>
      </trkpt>
      <trkpt lat="44.41676" lon="2.54932">
        <ele>539</ele>
        <time>2008-09-16T08:34:12Z</time>
      </trkpt>
      <trkpt lat="44.41677" lon="2.54928">
        <ele>539</ele>
        <time>2008-09-16T08:34:12Z</time>
      </trkpt>
      <trkpt lat="44.41678" lon="2.54923">
        <ele>539</ele>
        <time>2008-09-16T08:34:13Z</time>
      </trkpt>
      <trkpt lat="44.41681" lon="2.54919">
        <ele>540</ele>
        <time>2008-09-16T08:34:14Z</time>
      </trkpt>
      <trkpt lat="44.41684" lon="2.54916">
        <ele>540</ele>
        <time>2008-09-16T08:34:14Z</time>
      </trkpt>
      <trkpt lat="44.41687" lon="2.54913">
        <ele>540</ele>
        <time>2008-09-16T08:34:15Z</time>
      </trkpt>
      <trkpt lat="44.4169" lon="2.5491">
        <ele>540</ele>
        <time>2008-09-16T08:34:15Z</time>
      </trkpt>
      <trkpt lat="44.41694" lon="2.54908">
        <ele>541</ele>
        <time>2008-09-16T08:34:16Z</time>
      </trkpt>
      <trkpt lat="44.41697" lon="2.54906">
        <ele>542</ele>
        <time>2008-09-16T08:34:17Z</time>
      </trkpt>
      <trkpt lat="44.41701" lon="2.54903">
        <ele>541</ele>
        <time>2008-09-16T08:34:17Z</time>
      </trkpt>
      <trkpt lat="44.41704" lon="2.549">
        <ele>542</ele>
        <time>2008-09-16T08:34:18Z</time>
      </trkpt>
      <trkpt lat="44.41709" lon="2.54898">
        <ele>541</ele>
        <time>2008-09-16T08:34:19Z</time>
      </trkpt>
      <trkpt lat="44.41712" lon="2.54895">
        <ele>541</ele>
        <time>2008-09-16T08:34:19Z</time>
      </trkpt>
      <trkpt lat="44.41716" lon="2.54892">
        <ele>541</ele>
        <time>2008-09-16T08:34:20Z</time>
      </trkpt>
      <trkpt lat="44.4172" lon="2.54888">
        <ele>540</ele>
        <time>2008-09-16T08:34:21Z</time>
      </trkpt>
      <trkpt lat="44.41724" lon="2.54885">
        <ele>540</ele>
        <time>2008-09-16T08:34:21Z</time>
      </trkpt>
      <trkpt lat="44.41728" lon="2.54882">
        <ele>539</ele>
        <time>2008-09-16T08:34:22Z</time>
      </trkpt>
      <trkpt lat="44.41732" lon="2.54879">
        <ele>539</ele>
        <time>2008-09-16T08:34:23Z</time>
      </trkpt>
      <trkpt lat="44.41737" lon="2.54876">
        <ele>539</ele>
        <time>2008-09-16T08:34:24Z</time>
      </trkpt>
      <trkpt lat="44.41741" lon="2.54872">
        <ele>539</ele>
        <time>2008-09-16T08:34:25Z</time>
      </trkpt>
      <trkpt lat="44.41745" lon="2.54868">
        <ele>539</ele>
        <time>2008-09-16T08:34:25Z</time>
      </trkpt>
      <trkpt lat="44.41749" lon="2.54865">
        <ele>539</ele>
        <time>2008-09-16T08:34:26Z</time>
      </trkpt>
      <trkpt lat="44.41754" lon="2.54862">
        <ele>539</ele>
        <time>2008-09-16T08:34:27Z</time>
      </trkpt>
      <trkpt lat="44.41758" lon="2.54858">
        <ele>539</ele>
        <time>2008-09-16T08:34:28Z</time>
      </trkpt>
      <trkpt lat="44.41763" lon="2.54854">
        <ele>539</ele>
        <time>2008-09-16T08:34:29Z</time>
      </trkpt>
      <trkpt lat="44.41768" lon="2.54851">
        <ele>538</ele>
        <time>2008-09-16T08:34:30Z</time>
      </trkpt>
      <trkpt lat="44.41772" lon="2.54848">
        <ele>538</ele>
        <time>2008-09-16T08:34:30Z</time>
      </trkpt>
      <trkpt lat="44.41776" lon="2.54846">
        <ele>538</ele>
        <time>2008-09-16T08:34:31Z</time>
      </trkpt>
      <trkpt lat="44.41779" lon="2.54843">
        <ele>538</ele>
        <time>2008-09-16T08:34:32Z</time>
      </trkpt>
      <trkpt lat="44.41782" lon="2.54839">
        <ele>537</ele>
        <time>2008-09-16T08:34:32Z</time>
      </trkpt>
      <trkpt lat="44.41784" lon="2.54836">
        <ele>537</ele>
        <time>2008-09-16T08:34:33Z</time>
      </trkpt>
      <trkpt lat="44.41787" lon="2.54833">
        <ele>537</ele>
        <time>2008-09-16T08:34:33Z</time>
      </trkpt>
      <trkpt lat="44.41789" lon="2.5483">
        <ele>537</ele>
        <time>2008-09-16T08:34:34Z</time>
      </trkpt>
      <trkpt lat="44.41792" lon="2.54827">
        <ele>537</ele>
        <time>2008-09-16T08:34:34Z</time>
      </trkpt>
      <trkpt lat="44.41795" lon="2.54823">
        <ele>537</ele>
        <time>2008-09-16T08:34:35Z</time>
      </trkpt>
      <trkpt lat="44.41798" lon="2.5482">
        <ele>537</ele>
        <time>2008-09-16T08:34:36Z</time>
      </trkpt>
      <trkpt lat="44.418" lon="2.54817">
        <ele>537</ele>
        <time>2008-09-16T08:34:36Z</time>
      </trkpt>
      <trkpt lat="44.41802" lon="2.54814">
        <ele>537</ele>
        <time>2008-09-16T08:34:36Z</time>
      </trkpt>
      <trkpt lat="44.41803" lon="2.54811">
        <ele>537</ele>
        <time>2008-09-16T08:34:37Z</time>
      </trkpt>
      <trkpt lat="44.41804" lon="2.54806">
        <ele>538</ele>
        <time>2008-09-16T08:34:37Z</time>
      </trkpt>
      <trkpt lat="44.41805" lon="2.54802">
        <ele>538</ele>
        <time>2008-09-16T08:34:38Z</time>
      </trkpt>
      <trkpt lat="44.41807" lon="2.54797">
        <ele>538</ele>
        <time>2008-09-16T08:34:39Z</time>
      </trkpt>
      <trkpt lat="44.4181" lon="2.54792">
        <ele>538</ele>
        <time>2008-09-16T08:34:39Z</time>
      </trkpt>
      <trkpt lat="44.41812" lon="2.54788">
        <ele>538</ele>
        <time>2008-09-16T08:34:40Z</time>
      </trkpt>
      <trkpt lat="44.41813" lon="2.54783">
        <ele>538</ele>
        <time>2008-09-16T08:34:41Z</time>
      </trkpt>
      <trkpt lat="44.41815" lon="2.54779">
        <ele>538</ele>
        <time>2008-09-16T08:34:41Z</time>
      </trkpt>
      <trkpt lat="44.41817" lon="2.54774">
        <ele>539</ele>
        <time>2008-09-16T08:34:42Z</time>
      </trkpt>
      <trkpt lat="44.41819" lon="2.54768">
        <ele>538</ele>
        <time>2008-09-16T08:34:42Z</time>
      </trkpt>
      <trkpt lat="44.41822" lon="2.54763">
        <ele>538</ele>
        <time>2008-09-16T08:34:43Z</time>
      </trkpt>
      <trkpt lat="44.41824" lon="2.54757">
        <ele>539</ele>
        <time>2008-09-16T08:34:44Z</time>
      </trkpt>
      <trkpt lat="44.41825" lon="2.54752">
        <ele>539</ele>
        <time>2008-09-16T08:34:45Z</time>
      </trkpt>
      <trkpt lat="44.41826" lon="2.54746">
        <ele>539</ele>
        <time>2008-09-16T08:34:45Z</time>
      </trkpt>
      <trkpt lat="44.41827" lon="2.54741">
        <ele>540</ele>
        <time>2008-09-16T08:34:46Z</time>
      </trkpt>
      <trkpt lat="44.41827" lon="2.54735">
        <ele>541</ele>
        <time>2008-09-16T08:34:47Z</time>
      </trkpt>
      <trkpt lat="44.41827" lon="2.5473">
        <ele>541</ele>
        <time>2008-09-16T08:34:47Z</time>
      </trkpt>
      <trkpt lat="44.41827" lon="2.54724">
        <ele>541</ele>
        <time>2008-09-16T08:34:48Z</time>
      </trkpt>
      <trkpt lat="44.41827" lon="2.54719">
        <ele>541</ele>
        <time>2008-09-16T08:34:48Z</time>
      </trkpt>
      <trkpt lat="44.41827" lon="2.54712">
        <ele>540</ele>
        <time>2008-09-16T08:34:49Z</time>
      </trkpt>
      <trkpt lat="44.41828" lon="2.54707">
        <ele>540</ele>
        <time>2008-09-16T08:34:50Z</time>
      </trkpt>
      <trkpt lat="44.41828" lon="2.54701">
        <ele>539</ele>
        <time>2008-09-16T08:34:50Z</time>
      </trkpt>
      <trkpt lat="44.41829" lon="2.54695">
        <ele>539</ele>
        <time>2008-09-16T08:34:51Z</time>
      </trkpt>
      <trkpt lat="44.41829" lon="2.5469">
        <ele>539</ele>
        <time>2008-09-16T08:34:52Z</time>
      </trkpt>
      <trkpt lat="44.4183" lon="2.54684">
        <ele>539</ele>
        <time>2008-09-16T08:34:52Z</time>
      </trkpt>
      <trkpt lat="44.4183" lon="2.54679">
        <ele>539</ele>
        <time>2008-09-16T08:34:53Z</time>
      </trkpt>
      <trkpt lat="44.4183" lon="2.54673">
        <ele>539</ele>
        <time>2008-09-16T08:34:54Z</time>
      </trkpt>
      <trkpt lat="44.4183" lon="2.54667">
        <ele>538</ele>
        <time>2008-09-16T08:34:54Z</time>
      </trkpt>
      <trkpt lat="44.41828" lon="2.54662">
        <ele>539</ele>
        <time>2008-09-16T08:34:55Z</time>
      </trkpt>
      <trkpt lat="44.41827" lon="2.54657">
        <ele>539</ele>
        <time>2008-09-16T08:34:56Z</time>
      </trkpt>
      <trkpt lat="44.41826" lon="2.54652">
        <ele>540</ele>
        <time>2008-09-16T08:34:56Z</time>
      </trkpt>
      <trkpt lat="44.41824" lon="2.54647">
        <ele>541</ele>
        <time>2008-09-16T08:34:57Z</time>
      </trkpt>
      <trkpt lat="44.41823" lon="2.54643">
        <ele>542</ele>
        <time>2008-09-16T08:34:57Z</time>
      </trkpt>
      <trkpt lat="44.41823" lon="2.54639">
        <ele>543</ele>
        <time>2008-09-16T08:34:58Z</time>
      </trkpt>
      <trkpt lat="44.41822" lon="2.54635">
        <ele>544</ele>
        <time>2008-09-16T08:34:58Z</time>
      </trkpt>
      <trkpt lat="44.41822" lon="2.54631">
        <ele>544</ele>
        <time>2008-09-16T08:34:59Z</time>
      </trkpt>
      <trkpt lat="44.41821" lon="2.54627">
        <ele>545</ele>
        <time>2008-09-16T08:34:59Z</time>
      </trkpt>
      <trkpt lat="44.4182" lon="2.54623">
        <ele>546</ele>
        <time>2008-09-16T08:35:00Z</time>
      </trkpt>
      <trkpt lat="44.41819" lon="2.5462">
        <ele>546</ele>
        <time>2008-09-16T08:35:00Z</time>
      </trkpt>
      <trkpt lat="44.41818" lon="2.54616">
        <ele>547</ele>
        <time>2008-09-16T08:35:01Z</time>
      </trkpt>
      <trkpt lat="44.41816" lon="2.54612">
        <ele>548</ele>
        <time>2008-09-16T08:35:01Z</time>
      </trkpt>
      <trkpt lat="44.41815" lon="2.54609">
        <ele>548</ele>
        <time>2008-09-16T08:35:01Z</time>
      </trkpt>
      <trkpt lat="44.41814" lon="2.54606">
        <ele>549</ele>
        <time>2008-09-16T08:35:02Z</time>
      </trkpt>
      <trkpt lat="44.41813" lon="2.54602">
        <ele>549</ele>
        <time>2008-09-16T08:35:02Z</time>
      </trkpt>
      <trkpt lat="44.41813" lon="2.54599">
        <ele>550</ele>
        <time>2008-09-16T08:35:03Z</time>
      </trkpt>
      <trkpt lat="44.41812" lon="2.54595">
        <ele>550</ele>
        <time>2008-09-16T08:35:03Z</time>
      </trkpt>
      <trkpt lat="44.41812" lon="2.54592">
        <ele>550</ele>
        <time>2008-09-16T08:35:03Z</time>
      </trkpt>
      <trkpt lat="44.41812" lon="2.54589">
        <ele>550</ele>
        <time>2008-09-16T08:35:04Z</time>
      </trkpt>
      <trkpt lat="44.41812" lon="2.54585">
        <ele>550</ele>
        <time>2008-09-16T08:35:04Z</time>
      </trkpt>
      <trkpt lat="44.41811" lon="2.54582">
        <ele>551</ele>
        <time>2008-09-16T08:35:05Z</time>
      </trkpt>
      <trkpt lat="44.41811" lon="2.54578">
        <ele>551</ele>
        <time>2008-09-16T08:35:05Z</time>
      </trkpt>
      <trkpt lat="44.41811" lon="2.54575">
        <ele>551</ele>
        <time>2008-09-16T08:35:05Z</time>
      </trkpt>
      <trkpt lat="44.4181" lon="2.54572">
        <ele>551</ele>
        <time>2008-09-16T08:35:06Z</time>
      </trkpt>
      <trkpt lat="44.4181" lon="2.54569">
        <ele>551</ele>
        <time>2008-09-16T08:35:06Z</time>
      </trkpt>
      <trkpt lat="44.4181" lon="2.54565">
        <ele>551</ele>
        <time>2008-09-16T08:35:07Z</time>
      </trkpt>
      <trkpt lat="44.4181" lon="2.54562">
        <ele>551</ele>
        <time>2008-09-16T08:35:07Z</time>
      </trkpt>
      <trkpt lat="44.41809" lon="2.54559">
        <ele>551</ele>
        <time>2008-09-16T08:35:07Z</time>
      </trkpt>
      <trkpt lat="44.41809" lon="2.54555">
        <ele>551</ele>
        <time>2008-09-16T08:35:08Z</time>
      </trkpt>
      <trkpt lat="44.41808" lon="2.54551">
        <ele>552</ele>
        <time>2008-09-16T08:35:08Z</time>
      </trkpt>
      <trkpt lat="44.41808" lon="2.54548">
        <ele>552</ele>
        <time>2008-09-16T08:35:09Z</time>
      </trkpt>
      <trkpt lat="44.41808" lon="2.54546">
        <ele>552</ele>
        <time>2008-09-16T08:35:09Z</time>
      </trkpt>
      <trkpt lat="44.41808" lon="2.54543">
        <ele>553</ele>
        <time>2008-09-16T08:35:09Z</time>
      </trkpt>
      <trkpt lat="44.41807" lon="2.5454">
        <ele>553</ele>
        <time>2008-09-16T08:35:09Z</time>
      </trkpt>
      <trkpt lat="44.41807" lon="2.54538">
        <ele>553</ele>
        <time>2008-09-16T08:35:10Z</time>
      </trkpt>
      <trkpt lat="44.41807" lon="2.54535">
        <ele>553</ele>
        <time>2008-09-16T08:35:10Z</time>
      </trkpt>
      <trkpt lat="44.41806" lon="2.54532">
        <ele>554</ele>
        <time>2008-09-16T08:35:10Z</time>
      </trkpt>
      <trkpt lat="44.41806" lon="2.5453">
        <ele>553</ele>
        <time>2008-09-16T08:35:11Z</time>
      </trkpt>
      <trkpt lat="44.41806" lon="2.54528">
        <ele>554</ele>
        <time>2008-09-16T08:35:11Z</time>
      </trkpt>
      <trkpt lat="44.41806" lon="2.54525">
        <ele>554</ele>
        <time>2008-09-16T08:35:11Z</time>
      </trkpt>
      <trkpt lat="44.41805" lon="2.54522">
        <ele>555</ele>
        <time>2008-09-16T08:35:12Z</time>
      </trkpt>
      <trkpt lat="44.41805" lon="2.5452">
        <ele>555</ele>
        <time>2008-09-16T08:35:12Z</time>
      </trkpt>
      <trkpt lat="44.41804" lon="2.54517">
        <ele>555</ele>
        <time>2008-09-16T08:35:12Z</time>
      </trkpt>
      <trkpt lat="44.41804" lon="2.54515">
        <ele>556</ele>
        <time>2008-09-16T08:35:12Z</time>
      </trkpt>
      <trkpt lat="44.41803" lon="2.54513">
        <ele>557</ele>
        <time>2008-09-16T08:35:13Z</time>
      </trkpt>
      <trkpt lat="44.41803" lon="2.5451">
        <ele>557</ele>
        <time>2008-09-16T08:35:13Z</time>
      </trkpt>
      <trkpt lat="44.41803" lon="2.54508">
        <ele>557</ele>
        <time>2008-09-16T08:35:13Z</time>
      </trkpt>
      <trkpt lat="44.41802" lon="2.54507">
        <ele>557</ele>
        <time>2008-09-16T08:35:13Z</time>
      </trkpt>
      <trkpt lat="44.41801" lon="2.54506">
        <ele>557</ele>
        <time>2008-09-16T08:35:14Z</time>
      </trkpt>
      <trkpt lat="44.418" lon="2.54505">
        <ele>558</ele>
        <time>2008-09-16T08:35:14Z</time>
      </trkpt>
      <trkpt lat="44.418" lon="2.54505">
        <ele>558</ele>
        <time>2008-09-16T08:35:14Z</time>
      </trkpt>
      <trkpt lat="44.41799" lon="2.54505">
        <ele>559</ele>
        <time>2008-09-16T08:35:14Z</time>
      </trkpt>
      <trkpt lat="44.41798" lon="2.54504">
        <ele>560</ele>
        <time>2008-09-16T08:35:14Z</time>
      </trkpt>
      <trkpt lat="44.41798" lon="2.54503">
        <ele>560</ele>
        <time>2008-09-16T08:35:14Z</time>
      </trkpt>
      <trkpt lat="44.41797" lon="2.54502">
        <ele>561</ele>
        <time>2008-09-16T08:35:14Z</time>
      </trkpt>
      <trkpt lat="44.41797" lon="2.54501">
        <ele>561</ele>
        <time>2008-09-16T08:35:15Z</time>
      </trkpt>
      <trkpt lat="44.41796" lon="2.545">
        <ele>561</ele>
        <time>2008-09-16T08:35:15Z</time>
      </trkpt>
      <trkpt lat="44.41796" lon="2.54499">
        <ele>561</ele>
        <time>2008-09-16T08:35:15Z</time>
      </trkpt>
      <trkpt lat="44.41796" lon="2.54498">
        <ele>561</ele>
        <time>2008-09-16T08:35:15Z</time>
      </trkpt>
      <trkpt lat="44.41796" lon="2.54497">
        <ele>562</ele>
        <time>2008-09-16T08:35:15Z</time>
      </trkpt>
      <trkpt lat="44.41796" lon="2.54496">
        <ele>562</ele>
        <time>2008-09-16T08:35:15Z</time>
      </trkpt>
      <trkpt lat="44.41796" lon="2.54495">
        <ele>562</ele>
        <time>2008-09-16T08:35:15Z</time>
      </trkpt>
      <trkpt lat="44.41796" lon="2.54494">
        <ele>562</ele>
        <time>2008-09-16T08:35:15Z</time>
      </trkpt>
      <trkpt lat="44.41796" lon="2.54493">
        <ele>562</ele>
        <time>2008-09-16T08:35:15Z</time>
      </trkpt>
      <trkpt lat="44.41796" lon="2.54492">
        <ele>562</ele>
        <time>2008-09-16T08:35:16Z</time>
      </trkpt>
      <trkpt lat="44.41796" lon="2.54491">
        <ele>563</ele>
        <time>2008-09-16T08:35:16Z</time>
      </trkpt>
      <trkpt lat="44.41796" lon="2.5449">
        <ele>563</ele>
        <time>2008-09-16T08:35:16Z</time>
      </trkpt>
      <trkpt lat="44.41796" lon="2.54489">
        <ele>563</ele>
        <time>2008-09-16T08:35:16Z</time>
      </trkpt>
      <trkpt lat="44.41797" lon="2.54488">
        <ele>563</ele>
        <time>2008-09-16T08:35:16Z</time>
      </trkpt>
      <trkpt lat="44.41797" lon="2.54487">
        <ele>562</ele>
        <time>2008-09-16T08:35:16Z</time>
      </trkpt>
      <trkpt lat="44.41797" lon="2.54486">
        <ele>563</ele>
        <time>2008-09-16T08:35:16Z</time>
      </trkpt>
      <trkpt lat="44.41798" lon="2.54484">
        <ele>563</ele>
        <time>2008-09-16T08:35:17Z</time>
      </trkpt>
      <trkpt lat="44.41798" lon="2.54483">
        <ele>563</ele>
        <time>2008-09-16T08:35:17Z</time>
      </trkpt>
      <trkpt lat="44.41798" lon="2.54482">
        <ele>563</ele>
        <time>2008-09-16T08:35:17Z</time>
      </trkpt>
      <trkpt lat="44.41799" lon="2.54481">
        <ele>562</ele>
        <time>2008-09-16T08:35:17Z</time>
      </trkpt>
      <trkpt lat="44.41799" lon="2.5448">
        <ele>563</ele>
        <time>2008-09-16T08:35:17Z</time>
      </trkpt>
      <trkpt lat="44.418" lon="2.54478">
        <ele>563</ele>
        <time>2008-09-16T08:35:17Z</time>
      </trkpt>
      <trkpt lat="44.418" lon="2.54477">
        <ele>563</ele>
        <time>2008-09-16T08:35:17Z</time>
      </trkpt>
      <trkpt lat="44.41801" lon="2.54476">
        <ele>563</ele>
        <time>2008-09-16T08:35:18Z</time>
      </trkpt>
      <trkpt lat="44.41802" lon="2.54474">
        <ele>563</ele>
        <time>2008-09-16T08:35:18Z</time>
      </trkpt>
      <trkpt lat="44.41802" lon="2.54472">
        <ele>563</ele>
        <time>2008-09-16T08:35:18Z</time>
      </trkpt>
      <trkpt lat="44.41803" lon="2.54471">
        <ele>563</ele>
        <time>2008-09-16T08:35:18Z</time>
      </trkpt>
      <trkpt lat="44.41803" lon="2.54469">
        <ele>564</ele>
        <time>2008-09-16T08:35:18Z</time>
      </trkpt>
      <trkpt lat="44.41804" lon="2.54468">
        <ele>564</ele>
        <time>2008-09-16T08:35:19Z</time>
      </trkpt>
      <trkpt lat="44.41804" lon="2.54466">
        <ele>564</ele>
        <time>2008-09-16T08:35:19Z</time>
      </trkpt>
      <trkpt lat="44.41804" lon="2.54465">
        <ele>564</ele>
        <time>2008-09-16T08:35:19Z</time>
      </trkpt>
      <trkpt lat="44.41805" lon="2.54465">
        <ele>563</ele>
        <time>2008-09-16T08:35:19Z</time>
      </trkpt>
      <trkpt lat="44.41805" lon="2.54463">
        <ele>564</ele>
        <time>2008-09-16T08:35:19Z</time>
      </trkpt>
      <trkpt lat="44.41805" lon="2.54461">
        <ele>564</ele>
        <time>2008-09-16T08:35:19Z</time>
      </trkpt>
      <trkpt lat="44.41806" lon="2.54459">
        <ele>564</ele>
        <time>2008-09-16T08:35:20Z</time>
      </trkpt>
      <trkpt lat="44.41807" lon="2.54457">
        <ele>564</ele>
        <time>2008-09-16T08:35:20Z</time>
      </trkpt>
      <trkpt lat="44.41808" lon="2.54454">
        <ele>563</ele>
        <time>2008-09-16T08:35:20Z</time>
      </trkpt>
      <trkpt lat="44.41808" lon="2.54451">
        <ele>563</ele>
        <time>2008-09-16T08:35:21Z</time>
      </trkpt>
      <trkpt lat="44.41809" lon="2.54448">
        <ele>563</ele>
        <time>2008-09-16T08:35:21Z</time>
      </trkpt>
      <trkpt lat="44.41809" lon="2.54444">
        <ele>563</ele>
        <time>2008-09-16T08:35:21Z</time>
      </trkpt>
      <trkpt lat="44.4181" lon="2.54441">
        <ele>562</ele>
        <time>2008-09-16T08:35:22Z</time>
      </trkpt>
      <trkpt lat="44.4181" lon="2.54438">
        <ele>563</ele>
        <time>2008-09-16T08:35:22Z</time>
      </trkpt>
      <trkpt lat="44.41812" lon="2.54435">
        <ele>563</ele>
        <time>2008-09-16T08:35:23Z</time>
      </trkpt>
      <trkpt lat="44.41813" lon="2.54432">
        <ele>562</ele>
        <time>2008-09-16T08:35:23Z</time>
      </trkpt>
      <trkpt lat="44.41814" lon="2.54429">
        <ele>562</ele>
        <time>2008-09-16T08:35:23Z</time>
      </trkpt>
      <trkpt lat="44.41815" lon="2.54425">
        <ele>562</ele>
        <time>2008-09-16T08:35:24Z</time>
      </trkpt>
      <trkpt lat="44.41816" lon="2.54423">
        <ele>562</ele>
        <time>2008-09-16T08:35:24Z</time>
      </trkpt>
      <trkpt lat="44.41818" lon="2.5442">
        <ele>561</ele>
        <time>2008-09-16T08:35:25Z</time>
      </trkpt>
      <trkpt lat="44.41819" lon="2.54418">
        <ele>561</ele>
        <time>2008-09-16T08:35:25Z</time>
      </trkpt>
      <trkpt lat="44.4182" lon="2.54415">
        <ele>561</ele>
        <time>2008-09-16T08:35:25Z</time>
      </trkpt>
      <trkpt lat="44.41821" lon="2.54413">
        <ele>561</ele>
        <time>2008-09-16T08:35:26Z</time>
      </trkpt>
      <trkpt lat="44.41822" lon="2.5441">
        <ele>561</ele>
        <time>2008-09-16T08:35:26Z</time>
      </trkpt>
      <trkpt lat="44.41823" lon="2.54407">
        <ele>561</ele>
        <time>2008-09-16T08:35:26Z</time>
      </trkpt>
      <trkpt lat="44.41824" lon="2.54404">
        <ele>561</ele>
        <time>2008-09-16T08:35:27Z</time>
      </trkpt>
      <trkpt lat="44.41825" lon="2.54401">
        <ele>561</ele>
        <time>2008-09-16T08:35:27Z</time>
      </trkpt>
      <trkpt lat="44.41826" lon="2.54398">
        <ele>561</ele>
        <time>2008-09-16T08:35:28Z</time>
      </trkpt>
      <trkpt lat="44.41827" lon="2.54395">
        <ele>561</ele>
        <time>2008-09-16T08:35:28Z</time>
      </trkpt>
      <trkpt lat="44.41828" lon="2.54392">
        <ele>561</ele>
        <time>2008-09-16T08:35:28Z</time>
      </trkpt>
      <trkpt lat="44.41829" lon="2.54389">
        <ele>561</ele>
        <time>2008-09-16T08:35:29Z</time>
      </trkpt>
      <trkpt lat="44.4183" lon="2.54386">
        <ele>561</ele>
        <time>2008-09-16T08:35:29Z</time>
      </trkpt>
      <trkpt lat="44.41831" lon="2.54384">
        <ele>561</ele>
        <time>2008-09-16T08:35:29Z</time>
      </trkpt>
      <trkpt lat="44.41833" lon="2.54382">
        <ele>560</ele>
        <time>2008-09-16T08:35:30Z</time>
      </trkpt>
      <trkpt lat="44.41835" lon="2.54382">
        <ele>560</ele>
        <time>2008-09-16T08:35:30Z</time>
      </trkpt>
      <trkpt lat="44.41837" lon="2.54381">
        <ele>559</ele>
        <time>2008-09-16T08:35:30Z</time>
      </trkpt>
      <trkpt lat="44.41839" lon="2.54381">
        <ele>558</ele>
        <time>2008-09-16T08:35:31Z</time>
      </trkpt>
      <trkpt lat="44.41841" lon="2.54381">
        <ele>557</ele>
        <time>2008-09-16T08:35:31Z</time>
      </trkpt>
      <trkpt lat="44.41842" lon="2.54381">
        <ele>557</ele>
        <time>2008-09-16T08:35:31Z</time>
      </trkpt>
      <trkpt lat="44.41844" lon="2.5438">
        <ele>556</ele>
        <time>2008-09-16T08:35:32Z</time>
      </trkpt>
      <trkpt lat="44.41846" lon="2.5438">
        <ele>555</ele>
        <time>2008-09-16T08:35:32Z</time>
      </trkpt>
      <trkpt lat="44.41848" lon="2.5438">
        <ele>554</ele>
        <time>2008-09-16T08:35:32Z</time>
      </trkpt>
      <trkpt lat="44.4185" lon="2.54379">
        <ele>553</ele>
        <time>2008-09-16T08:35:32Z</time>
      </trkpt>
      <trkpt lat="44.41851" lon="2.54379">
        <ele>552</ele>
        <time>2008-09-16T08:35:33Z</time>
      </trkpt>
      <trkpt lat="44.41853" lon="2.54379">
        <ele>551</ele>
        <time>2008-09-16T08:35:33Z</time>
      </trkpt>
      <trkpt lat="44.41855" lon="2.54378">
        <ele>551</ele>
        <time>2008-09-16T08:35:33Z</time>
      </trkpt>
      <trkpt lat="44.41856" lon="2.54377">
        <ele>550</ele>
        <time>2008-09-16T08:35:33Z</time>
      </trkpt>
      <trkpt lat="44.41857" lon="2.54377">
        <ele>550</ele>
        <time>2008-09-16T08:35:34Z</time>
      </trkpt>
      <trkpt lat="44.41858" lon="2.54377">
        <ele>549</ele>
        <time>2008-09-16T08:35:34Z</time>
      </trkpt>
      <trkpt lat="44.4186" lon="2.54376">
        <ele>549</ele>
        <time>2008-09-16T08:35:34Z</time>
      </trkpt>
      <trkpt lat="44.41863" lon="2.54375">
        <ele>548</ele>
        <time>2008-09-16T08:35:35Z</time>
      </trkpt>
      <trkpt lat="44.41865" lon="2.54372">
        <ele>548</ele>
        <time>2008-09-16T08:35:35Z</time>
      </trkpt>
      <trkpt lat="44.41867" lon="2.5437">
        <ele>548</ele>
        <time>2008-09-16T08:35:35Z</time>
      </trkpt>
      <trkpt lat="44.41869" lon="2.54368">
        <ele>547</ele>
        <time>2008-09-16T08:35:36Z</time>
      </trkpt>
      <trkpt lat="44.41871" lon="2.54366">
        <ele>547</ele>
        <time>2008-09-16T08:35:36Z</time>
      </trkpt>
      <trkpt lat="44.41873" lon="2.54363">
        <ele>548</ele>
        <time>2008-09-16T08:35:37Z</time>
      </trkpt>
      <trkpt lat="44.41875" lon="2.5436">
        <ele>548</ele>
        <time>2008-09-16T08:35:37Z</time>
      </trkpt>
      <trkpt lat="44.41878" lon="2.54357">
        <ele>548</ele>
        <time>2008-09-16T08:35:38Z</time>
      </trkpt>
      <trkpt lat="44.41879" lon="2.54354">
        <ele>548</ele>
        <time>2008-09-16T08:35:38Z</time>
      </trkpt>
      <trkpt lat="44.41881" lon="2.54351">
        <ele>549</ele>
        <time>2008-09-16T08:35:39Z</time>
      </trkpt>
      <trkpt lat="44.41882" lon="2.54347">
        <ele>549</ele>
        <time>2008-09-16T08:35:39Z</time>
      </trkpt>
      <trkpt lat="44.41882" lon="2.54345">
        <ele>549</ele>
        <time>2008-09-16T08:35:39Z</time>
      </trkpt>
      <trkpt lat="44.41883" lon="2.54343">
        <ele>549</ele>
        <time>2008-09-16T08:35:40Z</time>
      </trkpt>
      <trkpt lat="44.41884" lon="2.54341">
        <ele>550</ele>
        <time>2008-09-16T08:35:40Z</time>
      </trkpt>
      <trkpt lat="44.41885" lon="2.5434">
        <ele>550</ele>
        <time>2008-09-16T08:35:40Z</time>
      </trkpt>
      <trkpt lat="44.41886" lon="2.54339">
        <ele>550</ele>
        <time>2008-09-16T08:35:40Z</time>
      </trkpt>
      <trkpt lat="44.41887" lon="2.54338">
        <ele>550</ele>
        <time>2008-09-16T08:35:40Z</time>
      </trkpt>
      <trkpt lat="44.41889" lon="2.54338">
        <ele>550</ele>
        <time>2008-09-16T08:35:41Z</time>
      </trkpt>
      <trkpt lat="44.4189" lon="2.54338">
        <ele>550</ele>
        <time>2008-09-16T08:35:41Z</time>
      </trkpt>
      <trkpt lat="44.41892" lon="2.54338">
        <ele>550</ele>
        <time>2008-09-16T08:35:41Z</time>
      </trkpt>
      <trkpt lat="44.41893" lon="2.54338">
        <ele>551</ele>
        <time>2008-09-16T08:35:41Z</time>
      </trkpt>
      <trkpt lat="44.41895" lon="2.54337">
        <ele>550</ele>
        <time>2008-09-16T08:35:42Z</time>
      </trkpt>
      <trkpt lat="44.41896" lon="2.54337">
        <ele>550</ele>
        <time>2008-09-16T08:35:42Z</time>
      </trkpt>
      <trkpt lat="44.41898" lon="2.54336">
        <ele>550</ele>
        <time>2008-09-16T08:35:42Z</time>
      </trkpt>
      <trkpt lat="44.419" lon="2.54336">
        <ele>550</ele>
        <time>2008-09-16T08:35:43Z</time>
      </trkpt>
      <trkpt lat="44.41903" lon="2.54335">
        <ele>549</ele>
        <time>2008-09-16T08:35:43Z</time>
      </trkpt>
      <trkpt lat="44.41907" lon="2.54335">
        <ele>548</ele>
        <time>2008-09-16T08:35:44Z</time>
      </trkpt>
      <trkpt lat="44.4191" lon="2.54334">
        <ele>548</ele>
        <time>2008-09-16T08:35:44Z</time>
      </trkpt>
      <trkpt lat="44.41912" lon="2.54333">
        <ele>547</ele>
        <time>2008-09-16T08:35:44Z</time>
      </trkpt>
      <trkpt lat="44.41915" lon="2.54332">
        <ele>547</ele>
        <time>2008-09-16T08:35:45Z</time>
      </trkpt>
      <trkpt lat="44.41918" lon="2.54332">
        <ele>546</ele>
        <time>2008-09-16T08:35:45Z</time>
      </trkpt>
      <trkpt lat="44.41921" lon="2.54331">
        <ele>546</ele>
        <time>2008-09-16T08:35:46Z</time>
      </trkpt>
      <trkpt lat="44.41924" lon="2.54328">
        <ele>545</ele>
        <time>2008-09-16T08:35:47Z</time>
      </trkpt>
      <trkpt lat="44.41927" lon="2.54325">
        <ele>545</ele>
        <time>2008-09-16T08:35:47Z</time>
      </trkpt>
      <trkpt lat="44.4193" lon="2.5432">
        <ele>544</ele>
        <time>2008-09-16T08:35:48Z</time>
      </trkpt>
      <trkpt lat="44.41932" lon="2.54316">
        <ele>544</ele>
        <time>2008-09-16T08:35:48Z</time>
      </trkpt>
      <trkpt lat="44.41934" lon="2.54312">
        <ele>544</ele>
        <time>2008-09-16T08:35:49Z</time>
      </trkpt>
      <trkpt lat="44.41936" lon="2.5431">
        <ele>544</ele>
        <time>2008-09-16T08:35:49Z</time>
      </trkpt>
      <trkpt lat="44.41938" lon="2.54309">
        <ele>543</ele>
        <time>2008-09-16T08:35:50Z</time>
      </trkpt>
      <trkpt lat="44.41939" lon="2.54308">
        <ele>543</ele>
        <time>2008-09-16T08:35:50Z</time>
      </trkpt>
      <trkpt lat="44.4194" lon="2.54307">
        <ele>542</ele>
        <time>2008-09-16T08:35:50Z</time>
      </trkpt>
      <trkpt lat="44.41942" lon="2.54305">
        <ele>542</ele>
        <time>2008-09-16T08:35:50Z</time>
      </trkpt>
      <trkpt lat="44.41944" lon="2.54303">
        <ele>541</ele>
        <time>2008-09-16T08:35:51Z</time>
      </trkpt>
      <trkpt lat="44.41945" lon="2.54301">
        <ele>541</ele>
        <time>2008-09-16T08:35:51Z</time>
      </trkpt>
      <trkpt lat="44.41947" lon="2.54298">
        <ele>541</ele>
        <time>2008-09-16T08:35:52Z</time>
      </trkpt>
      <trkpt lat="44.41948" lon="2.54295">
        <ele>540</ele>
        <time>2008-09-16T08:35:52Z</time>
      </trkpt>
      <trkpt lat="44.4195" lon="2.54293">
        <ele>540</ele>
        <time>2008-09-16T08:35:52Z</time>
      </trkpt>
      <trkpt lat="44.41952" lon="2.54291">
        <ele>539</ele>
        <time>2008-09-16T08:35:53Z</time>
      </trkpt>
      <trkpt lat="44.41954" lon="2.5429">
        <ele>539</ele>
        <time>2008-09-16T08:35:53Z</time>
      </trkpt>
      <trkpt lat="44.41956" lon="2.54289">
        <ele>538</ele>
        <time>2008-09-16T08:35:53Z</time>
      </trkpt>
      <trkpt lat="44.41959" lon="2.54287">
        <ele>538</ele>
        <time>2008-09-16T08:35:54Z</time>
      </trkpt>
      <trkpt lat="44.41961" lon="2.54286">
        <ele>537</ele>
        <time>2008-09-16T08:35:54Z</time>
      </trkpt>
      <trkpt lat="44.41963" lon="2.54284">
        <ele>537</ele>
        <time>2008-09-16T08:35:55Z</time>
      </trkpt>
      <trkpt lat="44.41966" lon="2.54282">
        <ele>537</ele>
        <time>2008-09-16T08:35:55Z</time>
      </trkpt>
      <trkpt lat="44.41968" lon="2.54281">
        <ele>537</ele>
        <time>2008-09-16T08:35:56Z</time>
      </trkpt>
      <trkpt lat="44.41969" lon="2.54278">
        <ele>536</ele>
        <time>2008-09-16T08:35:56Z</time>
      </trkpt>
      <trkpt lat="44.41971" lon="2.54275">
        <ele>536</ele>
        <time>2008-09-16T08:35:56Z</time>
      </trkpt>
      <trkpt lat="44.41973" lon="2.54274">
        <ele>536</ele>
        <time>2008-09-16T08:35:57Z</time>
      </trkpt>
      <trkpt lat="44.41974" lon="2.54273">
        <ele>536</ele>
        <time>2008-09-16T08:35:57Z</time>
      </trkpt>
      <trkpt lat="44.41976" lon="2.54271">
        <ele>536</ele>
        <time>2008-09-16T08:35:57Z</time>
      </trkpt>
      <trkpt lat="44.41979" lon="2.54269">
        <ele>536</ele>
        <time>2008-09-16T08:35:58Z</time>
      </trkpt>
      <trkpt lat="44.41981" lon="2.54267">
        <ele>536</ele>
        <time>2008-09-16T08:35:58Z</time>
      </trkpt>
      <trkpt lat="44.41983" lon="2.54265">
        <ele>536</ele>
        <time>2008-09-16T08:35:59Z</time>
      </trkpt>
      <trkpt lat="44.41986" lon="2.54264">
        <ele>536</ele>
        <time>2008-09-16T08:35:59Z</time>
      </trkpt>
      <trkpt lat="44.41989" lon="2.54263">
        <ele>536</ele>
        <time>2008-09-16T08:36:00Z</time>
      </trkpt>
      <trkpt lat="44.41992" lon="2.54263">
        <ele>536</ele>
        <time>2008-09-16T08:36:00Z</time>
      </trkpt>
      <trkpt lat="44.41995" lon="2.54262">
        <ele>536</ele>
        <time>2008-09-16T08:36:01Z</time>
      </trkpt>
      <trkpt lat="44.41996" lon="2.54262">
        <ele>536</ele>
        <time>2008-09-16T08:36:01Z</time>
      </trkpt>
      <trkpt lat="44.41997" lon="2.54262">
        <ele>536</ele>
        <time>2008-09-16T08:36:01Z</time>
      </trkpt>
      <trkpt lat="44.41998" lon="2.54263">
        <ele>535</ele>
        <time>2008-09-16T08:36:01Z</time>
      </trkpt>
      <trkpt lat="44.41999" lon="2.54265">
        <ele>535</ele>
        <time>2008-09-16T08:36:01Z</time>
      </trkpt>
      <trkpt lat="44.42" lon="2.54267">
        <ele>535</ele>
        <time>2008-09-16T08:36:02Z</time>
      </trkpt>
      <trkpt lat="44.42001" lon="2.54268">
        <ele>535</ele>
        <time>2008-09-16T08:36:02Z</time>
      </trkpt>
      <trkpt lat="44.42001" lon="2.54269">
        <ele>535</ele>
        <time>2008-09-16T08:36:02Z</time>
      </trkpt>
      <trkpt lat="44.42002" lon="2.5427">
        <ele>535</ele>
        <time>2008-09-16T08:36:02Z</time>
      </trkpt>
      <trkpt lat="44.42002" lon="2.54271">
        <ele>534</ele>
        <time>2008-09-16T08:36:02Z</time>
      </trkpt>
      <trkpt lat="44.42004" lon="2.54272">
        <ele>534</ele>
        <time>2008-09-16T08:36:02Z</time>
      </trkpt>
      <trkpt lat="44.42007" lon="2.54271">
        <ele>534</ele>
        <time>2008-09-16T08:36:03Z</time>
      </trkpt>
      <trkpt lat="44.4201" lon="2.54269">
        <ele>534</ele>
        <time>2008-09-16T08:36:03Z</time>
      </trkpt>
      <trkpt lat="44.42013" lon="2.54267">
        <ele>533</ele>
        <time>2008-09-16T08:36:04Z</time>
      </trkpt>
      <trkpt lat="44.42016" lon="2.54264">
        <ele>533</ele>
        <time>2008-09-16T08:36:05Z</time>
      </trkpt>
      <trkpt lat="44.4202" lon="2.54261">
        <ele>532</ele>
        <time>2008-09-16T08:36:05Z</time>
      </trkpt>
      <trkpt lat="44.42024" lon="2.54257">
        <ele>532</ele>
        <time>2008-09-16T08:36:06Z</time>
      </trkpt>
      <trkpt lat="44.42029" lon="2.54253">
        <ele>531</ele>
        <time>2008-09-16T08:36:07Z</time>
      </trkpt>
      <trkpt lat="44.42033" lon="2.54248">
        <ele>531</ele>
        <time>2008-09-16T08:36:08Z</time>
      </trkpt>
      <trkpt lat="44.42037" lon="2.54243">
        <ele>530</ele>
        <time>2008-09-16T08:36:09Z</time>
      </trkpt>
      <trkpt lat="44.42042" lon="2.54237">
        <ele>530</ele>
        <time>2008-09-16T08:36:10Z</time>
      </trkpt>
      <trkpt lat="44.42046" lon="2.5423">
        <ele>529</ele>
        <time>2008-09-16T08:36:11Z</time>
      </trkpt>
      <trkpt lat="44.4205" lon="2.54222">
        <ele>528</ele>
        <time>2008-09-16T08:36:12Z</time>
      </trkpt>
      <trkpt lat="44.42053" lon="2.54214">
        <ele>527</ele>
        <time>2008-09-16T08:36:13Z</time>
      </trkpt>
      <trkpt lat="44.42057" lon="2.54205">
        <ele>527</ele>
        <time>2008-09-16T08:36:14Z</time>
      </trkpt>
      <trkpt lat="44.42061" lon="2.54197">
        <ele>526</ele>
        <time>2008-09-16T08:36:15Z</time>
      </trkpt>
      <trkpt lat="44.42065" lon="2.54189">
        <ele>526</ele>
        <time>2008-09-16T08:36:16Z</time>
      </trkpt>
      <trkpt lat="44.4207" lon="2.54182">
        <ele>525</ele>
        <time>2008-09-16T08:36:18Z</time>
      </trkpt>
      <trkpt lat="44.42076" lon="2.54177">
        <ele>525</ele>
        <time>2008-09-16T08:36:19Z</time>
      </trkpt>
      <trkpt lat="44.42082" lon="2.54173">
        <ele>525</ele>
        <time>2008-09-16T08:36:20Z</time>
      </trkpt>
      <trkpt lat="44.42089" lon="2.54172">
        <ele>524</ele>
        <time>2008-09-16T08:36:21Z</time>
      </trkpt>
      <trkpt lat="44.42097" lon="2.54173">
        <ele>524</ele>
        <time>2008-09-16T08:36:22Z</time>
      </trkpt>
      <trkpt lat="44.42104" lon="2.54174">
        <ele>523</ele>
        <time>2008-09-16T08:36:23Z</time>
      </trkpt>
      <trkpt lat="44.42111" lon="2.54175">
        <ele>523</ele>
        <time>2008-09-16T08:36:24Z</time>
      </trkpt>
      <trkpt lat="44.42119" lon="2.54175">
        <ele>523</ele>
        <time>2008-09-16T08:36:26Z</time>
      </trkpt>
      <trkpt lat="44.42126" lon="2.54175">
        <ele>523</ele>
        <time>2008-09-16T08:36:27Z</time>
      </trkpt>
      <trkpt lat="44.42133" lon="2.54174">
        <ele>523</ele>
        <time>2008-09-16T08:36:28Z</time>
      </trkpt>
      <trkpt lat="44.42141" lon="2.54172">
        <ele>522</ele>
        <time>2008-09-16T08:36:29Z</time>
      </trkpt>
      <trkpt lat="44.42148" lon="2.54171">
        <ele>522</ele>
        <time>2008-09-16T08:36:30Z</time>
      </trkpt>
      <trkpt lat="44.42154" lon="2.54169">
        <ele>522</ele>
        <time>2008-09-16T08:36:31Z</time>
      </trkpt>
      <trkpt lat="44.42161" lon="2.54167">
        <ele>522</ele>
        <time>2008-09-16T08:36:33Z</time>
      </trkpt>
      <trkpt lat="44.42167" lon="2.54164">
        <ele>522</ele>
        <time>2008-09-16T08:36:34Z</time>
      </trkpt>
      <trkpt lat="44.42173" lon="2.5416">
        <ele>522</ele>
        <time>2008-09-16T08:36:35Z</time>
      </trkpt>
      <trkpt lat="44.42178" lon="2.54156">
        <ele>522</ele>
        <time>2008-09-16T08:36:36Z</time>
      </trkpt>
      <trkpt lat="44.42183" lon="2.54152">
        <ele>522</ele>
        <time>2008-09-16T08:36:36Z</time>
      </trkpt>
      <trkpt lat="44.42187" lon="2.54146">
        <ele>522</ele>
        <time>2008-09-16T08:36:37Z</time>
      </trkpt>
      <trkpt lat="44.4219" lon="2.5414">
        <ele>522</ele>
        <time>2008-09-16T08:36:38Z</time>
      </trkpt>
      <trkpt lat="44.42192" lon="2.54133">
        <ele>523</ele>
        <time>2008-09-16T08:36:39Z</time>
      </trkpt>
      <trkpt lat="44.42194" lon="2.54126">
        <ele>523</ele>
        <time>2008-09-16T08:36:40Z</time>
      </trkpt>
      <trkpt lat="44.42196" lon="2.5412">
        <ele>524</ele>
        <time>2008-09-16T08:36:41Z</time>
      </trkpt>
      <trkpt lat="44.42198" lon="2.54113">
        <ele>524</ele>
        <time>2008-09-16T08:36:42Z</time>
      </trkpt>
      <trkpt lat="44.42199" lon="2.54106">
        <ele>524</ele>
        <time>2008-09-16T08:36:42Z</time>
      </trkpt>
      <trkpt lat="44.42201" lon="2.541">
        <ele>525</ele>
        <time>2008-09-16T08:36:43Z</time>
      </trkpt>
      <trkpt lat="44.42203" lon="2.54093">
        <ele>525</ele>
        <time>2008-09-16T08:36:44Z</time>
      </trkpt>
      <trkpt lat="44.42204" lon="2.54087">
        <ele>525</ele>
        <time>2008-09-16T08:36:45Z</time>
      </trkpt>
      <trkpt lat="44.42206" lon="2.54081">
        <ele>525</ele>
        <time>2008-09-16T08:36:45Z</time>
      </trkpt>
      <trkpt lat="44.42207" lon="2.54075">
        <ele>525</ele>
        <time>2008-09-16T08:36:46Z</time>
      </trkpt>
      <trkpt lat="44.42208" lon="2.54068">
        <ele>526</ele>
        <time>2008-09-16T08:36:47Z</time>
      </trkpt>
      <trkpt lat="44.4221" lon="2.54062">
        <ele>526</ele>
        <time>2008-09-16T08:36:48Z</time>
      </trkpt>
      <trkpt lat="44.42211" lon="2.54056">
        <ele>526</ele>
        <time>2008-09-16T08:36:48Z</time>
      </trkpt>
      <trkpt lat="44.42212" lon="2.5405">
        <ele>527</ele>
        <time>2008-09-16T08:36:49Z</time>
      </trkpt>
      <trkpt lat="44.42214" lon="2.54044">
        <ele>527</ele>
        <time>2008-09-16T08:36:50Z</time>
      </trkpt>
      <trkpt lat="44.42215" lon="2.54038">
        <ele>527</ele>
        <time>2008-09-16T08:36:51Z</time>
      </trkpt>
      <trkpt lat="44.42216" lon="2.54032">
        <ele>527</ele>
        <time>2008-09-16T08:36:51Z</time>
      </trkpt>
      <trkpt lat="44.42216" lon="2.54026">
        <ele>528</ele>
        <time>2008-09-16T08:36:52Z</time>
      </trkpt>
      <trkpt lat="44.42217" lon="2.5402">
        <ele>528</ele>
        <time>2008-09-16T08:36:53Z</time>
      </trkpt>
      <trkpt lat="44.42219" lon="2.54015">
        <ele>528</ele>
        <time>2008-09-16T08:36:53Z</time>
      </trkpt>
      <trkpt lat="44.4222" lon="2.54009">
        <ele>528</ele>
        <time>2008-09-16T08:36:54Z</time>
      </trkpt>
      <trkpt lat="44.42222" lon="2.54004">
        <ele>529</ele>
        <time>2008-09-16T08:36:55Z</time>
      </trkpt>
      <trkpt lat="44.42224" lon="2.53999">
        <ele>529</ele>
        <time>2008-09-16T08:36:55Z</time>
      </trkpt>
      <trkpt lat="44.42226" lon="2.53993">
        <ele>529</ele>
        <time>2008-09-16T08:36:56Z</time>
      </trkpt>
      <trkpt lat="44.42229" lon="2.53988">
        <ele>529</ele>
        <time>2008-09-16T08:36:57Z</time>
      </trkpt>
      <trkpt lat="44.42231" lon="2.53983">
        <ele>529</ele>
        <time>2008-09-16T08:36:57Z</time>
      </trkpt>
      <trkpt lat="44.42233" lon="2.53978">
        <ele>529</ele>
        <time>2008-09-16T08:36:58Z</time>
      </trkpt>
      <trkpt lat="44.42235" lon="2.53974">
        <ele>530</ele>
        <time>2008-09-16T08:36:59Z</time>
      </trkpt>
      <trkpt lat="44.42237" lon="2.53969">
        <ele>530</ele>
        <time>2008-09-16T08:36:59Z</time>
      </trkpt>
      <trkpt lat="44.42238" lon="2.53965">
        <ele>530</ele>
        <time>2008-09-16T08:37:00Z</time>
      </trkpt>
      <trkpt lat="44.4224" lon="2.53962">
        <ele>530</ele>
        <time>2008-09-16T08:37:00Z</time>
      </trkpt>
      <trkpt lat="44.42241" lon="2.53958">
        <ele>530</ele>
        <time>2008-09-16T08:37:01Z</time>
      </trkpt>
      <trkpt lat="44.42242" lon="2.53955">
        <ele>530</ele>
        <time>2008-09-16T08:37:01Z</time>
      </trkpt>
      <trkpt lat="44.42242" lon="2.53952">
        <ele>531</ele>
        <time>2008-09-16T08:37:01Z</time>
      </trkpt>
      <trkpt lat="44.42243" lon="2.53949">
        <ele>531</ele>
        <time>2008-09-16T08:37:02Z</time>
      </trkpt>
      <trkpt lat="44.42244" lon="2.53947">
        <ele>531</ele>
        <time>2008-09-16T08:37:02Z</time>
      </trkpt>
      <trkpt lat="44.42246" lon="2.53946">
        <ele>531</ele>
        <time>2008-09-16T08:37:02Z</time>
      </trkpt>
      <trkpt lat="44.42247" lon="2.53947">
        <ele>532</ele>
        <time>2008-09-16T08:37:03Z</time>
      </trkpt>
      <trkpt lat="44.42248" lon="2.5395">
        <ele>532</ele>
        <time>2008-09-16T08:37:03Z</time>
      </trkpt>
      <trkpt lat="44.42248" lon="2.53952">
        <ele>533</ele>
        <time>2008-09-16T08:37:03Z</time>
      </trkpt>
      <trkpt lat="44.42248" lon="2.53954">
        <ele>533</ele>
        <time>2008-09-16T08:37:03Z</time>
      </trkpt>
      <trkpt lat="44.42248" lon="2.53956">
        <ele>533</ele>
        <time>2008-09-16T08:37:04Z</time>
      </trkpt>
      <trkpt lat="44.42248" lon="2.53958">
        <ele>533</ele>
        <time>2008-09-16T08:37:04Z</time>
      </trkpt>
      <trkpt lat="44.42247" lon="2.5396">
        <ele>533</ele>
        <time>2008-09-16T08:37:04Z</time>
      </trkpt>
      <trkpt lat="44.42247" lon="2.53962">
        <ele>534</ele>
        <time>2008-09-16T08:37:04Z</time>
      </trkpt>
      <trkpt lat="44.42247" lon="2.53965">
        <ele>534</ele>
        <time>2008-09-16T08:37:05Z</time>
      </trkpt>
      <trkpt lat="44.42247" lon="2.53967">
        <ele>535</ele>
        <time>2008-09-16T08:37:05Z</time>
      </trkpt>
      <trkpt lat="44.42247" lon="2.5397">
        <ele>535</ele>
        <time>2008-09-16T08:37:05Z</time>
      </trkpt>
      <trkpt lat="44.42247" lon="2.53973">
        <ele>536</ele>
        <time>2008-09-16T08:37:06Z</time>
      </trkpt>
      <trkpt lat="44.42247" lon="2.53976">
        <ele>537</ele>
        <time>2008-09-16T08:37:06Z</time>
      </trkpt>
      <trkpt lat="44.42247" lon="2.53979">
        <ele>537</ele>
        <time>2008-09-16T08:37:06Z</time>
      </trkpt>
      <trkpt lat="44.42247" lon="2.53982">
        <ele>537</ele>
        <time>2008-09-16T08:37:07Z</time>
      </trkpt>
      <trkpt lat="44.42247" lon="2.53985">
        <ele>538</ele>
        <time>2008-09-16T08:37:07Z</time>
      </trkpt>
      <trkpt lat="44.42247" lon="2.53988">
        <ele>538</ele>
        <time>2008-09-16T08:37:07Z</time>
      </trkpt>
      <trkpt lat="44.42246" lon="2.53992">
        <ele>538</ele>
        <time>2008-09-16T08:37:08Z</time>
      </trkpt>
      <trkpt lat="44.42245" lon="2.53995">
        <ele>539</ele>
        <time>2008-09-16T08:37:08Z</time>
      </trkpt>
      <trkpt lat="44.42244" lon="2.53999">
        <ele>539</ele>
        <time>2008-09-16T08:37:09Z</time>
      </trkpt>
      <trkpt lat="44.42242" lon="2.54003">
        <ele>539</ele>
        <time>2008-09-16T08:37:09Z</time>
      </trkpt>
      <trkpt lat="44.4224" lon="2.54006">
        <ele>539</ele>
        <time>2008-09-16T08:37:10Z</time>
      </trkpt>
      <trkpt lat="44.42238" lon="2.5401">
        <ele>539</ele>
        <time>2008-09-16T08:37:10Z</time>
      </trkpt>
      <trkpt lat="44.42237" lon="2.54013">
        <ele>539</ele>
        <time>2008-09-16T08:37:11Z</time>
      </trkpt>
      <trkpt lat="44.42237" lon="2.54015">
        <ele>539</ele>
        <time>2008-09-16T08:37:11Z</time>
      </trkpt>
      <trkpt lat="44.42237" lon="2.54018">
        <ele>539</ele>
        <time>2008-09-16T08:37:11Z</time>
      </trkpt>
      <trkpt lat="44.42238" lon="2.54022">
        <ele>540</ele>
        <time>2008-09-16T08:37:12Z</time>
      </trkpt>
      <trkpt lat="44.42239" lon="2.54025">
        <ele>540</ele>
        <time>2008-09-16T08:37:12Z</time>
      </trkpt>
      <trkpt lat="44.4224" lon="2.54028">
        <ele>541</ele>
        <time>2008-09-16T08:37:12Z</time>
      </trkpt>
      <trkpt lat="44.4224" lon="2.5403">
        <ele>541</ele>
        <time>2008-09-16T08:37:13Z</time>
      </trkpt>
      <trkpt lat="44.4224" lon="2.54032">
        <ele>541</ele>
        <time>2008-09-16T08:37:13Z</time>
      </trkpt>
      <trkpt lat="44.4224" lon="2.54035">
        <ele>541</ele>
        <time>2008-09-16T08:37:13Z</time>
      </trkpt>
      <trkpt lat="44.42239" lon="2.54038">
        <ele>542</ele>
        <time>2008-09-16T08:37:14Z</time>
      </trkpt>
      <trkpt lat="44.42239" lon="2.5404">
        <ele>542</ele>
        <time>2008-09-16T08:37:14Z</time>
      </trkpt>
      <trkpt lat="44.42239" lon="2.54042">
        <ele>542</ele>
        <time>2008-09-16T08:37:14Z</time>
      </trkpt>
      <trkpt lat="44.42239" lon="2.54043">
        <ele>542</ele>
        <time>2008-09-16T08:37:14Z</time>
      </trkpt>
      <trkpt lat="44.42239" lon="2.54045">
        <ele>542</ele>
        <time>2008-09-16T08:37:14Z</time>
      </trkpt>
      <trkpt lat="44.42239" lon="2.54047">
        <ele>543</ele>
        <time>2008-09-16T08:37:15Z</time>
      </trkpt>
      <trkpt lat="44.42239" lon="2.54049">
        <ele>543</ele>
        <time>2008-09-16T08:37:15Z</time>
      </trkpt>
      <trkpt lat="44.42239" lon="2.54051">
        <ele>543</ele>
        <time>2008-09-16T08:37:15Z</time>
      </trkpt>
      <trkpt lat="44.42239" lon="2.54053">
        <ele>543</ele>
        <time>2008-09-16T08:37:15Z</time>
      </trkpt>
      <trkpt lat="44.42238" lon="2.54055">
        <ele>544</ele>
        <time>2008-09-16T08:37:16Z</time>
      </trkpt>
      <trkpt lat="44.42238" lon="2.54058">
        <ele>544</ele>
        <time>2008-09-16T08:37:16Z</time>
      </trkpt>
      <trkpt lat="44.42238" lon="2.54061">
        <ele>544</ele>
        <time>2008-09-16T08:37:16Z</time>
      </trkpt>
      <trkpt lat="44.42238" lon="2.54064">
        <ele>544</ele>
        <time>2008-09-16T08:37:17Z</time>
      </trkpt>
      <trkpt lat="44.42237" lon="2.54067">
        <ele>545</ele>
        <time>2008-09-16T08:37:17Z</time>
      </trkpt>
      <trkpt lat="44.42237" lon="2.5407">
        <ele>545</ele>
        <time>2008-09-16T08:37:17Z</time>
      </trkpt>
      <trkpt lat="44.42237" lon="2.54073">
        <ele>545</ele>
        <time>2008-09-16T08:37:18Z</time>
      </trkpt>
      <trkpt lat="44.42236" lon="2.54076">
        <ele>545</ele>
        <time>2008-09-16T08:37:18Z</time>
      </trkpt>
      <trkpt lat="44.42236" lon="2.54078">
        <ele>545</ele>
        <time>2008-09-16T08:37:18Z</time>
      </trkpt>
      <trkpt lat="44.42235" lon="2.54081">
        <ele>545</ele>
        <time>2008-09-16T08:37:19Z</time>
      </trkpt>
      <trkpt lat="44.42235" lon="2.54083">
        <ele>545</ele>
        <time>2008-09-16T08:37:19Z</time>
      </trkpt>
      <trkpt lat="44.42234" lon="2.54086">
        <ele>545</ele>
        <time>2008-09-16T08:37:19Z</time>
      </trkpt>
      <trkpt lat="44.42232" lon="2.54089">
        <ele>545</ele>
        <time>2008-09-16T08:37:20Z</time>
      </trkpt>
      <trkpt lat="44.42232" lon="2.54092">
        <ele>545</ele>
        <time>2008-09-16T08:37:20Z</time>
      </trkpt>
      <trkpt lat="44.42232" lon="2.54095">
        <ele>545</ele>
        <time>2008-09-16T08:37:20Z</time>
      </trkpt>
      <trkpt lat="44.42233" lon="2.54097">
        <ele>545</ele>
        <time>2008-09-16T08:37:21Z</time>
      </trkpt>
      <trkpt lat="44.42233" lon="2.54097">
        <ele>545</ele>
        <time>2008-09-16T08:37:21Z</time>
      </trkpt>
      <trkpt lat="44.42233" lon="2.54098">
        <ele>545</ele>
        <time>2008-09-16T08:37:21Z</time>
      </trkpt>
      <trkpt lat="44.42233" lon="2.541">
        <ele>545</ele>
        <time>2008-09-16T08:37:21Z</time>
      </trkpt>
      <trkpt lat="44.42234" lon="2.54101">
        <ele>545</ele>
        <time>2008-09-16T08:37:21Z</time>
      </trkpt>
      <trkpt lat="44.42233" lon="2.54102">
        <ele>545</ele>
        <time>2008-09-16T08:37:21Z</time>
      </trkpt>
      <trkpt lat="44.42233" lon="2.54103">
        <ele>545</ele>
        <time>2008-09-16T08:37:21Z</time>
      </trkpt>
      <trkpt lat="44.42233" lon="2.54103">
        <ele>545</ele>
        <time>2008-09-16T08:37:21Z</time>
      </trkpt>
      <trkpt lat="44.42232" lon="2.54104">
        <ele>547</ele>
        <time>2008-09-16T08:37:21Z</time>
      </trkpt>
      <trkpt lat="44.42232" lon="2.54105">
        <ele>547</ele>
        <time>2008-09-16T08:37:22Z</time>
      </trkpt>
      <trkpt lat="44.42231" lon="2.54107">
        <ele>547</ele>
        <time>2008-09-16T08:37:22Z</time>
      </trkpt>
      <trkpt lat="44.4223" lon="2.5411">
        <ele>547</ele>
        <time>2008-09-16T08:37:22Z</time>
      </trkpt>
      <trkpt lat="44.4223" lon="2.54112">
        <ele>547</ele>
        <time>2008-09-16T08:37:23Z</time>
      </trkpt>
      <trkpt lat="44.42229" lon="2.54116">
        <ele>547</ele>
        <time>2008-09-16T08:37:23Z</time>
      </trkpt>
      <trkpt lat="44.42229" lon="2.54119">
        <ele>547</ele>
        <time>2008-09-16T08:37:23Z</time>
      </trkpt>
      <trkpt lat="44.42228" lon="2.54123">
        <ele>547</ele>
        <time>2008-09-16T08:37:24Z</time>
      </trkpt>
      <trkpt lat="44.42228" lon="2.54127">
        <ele>547</ele>
        <time>2008-09-16T08:37:24Z</time>
      </trkpt>
      <trkpt lat="44.42227" lon="2.54131">
        <ele>547</ele>
        <time>2008-09-16T08:37:25Z</time>
      </trkpt>
      <trkpt lat="44.42226" lon="2.54135">
        <ele>547</ele>
        <time>2008-09-16T08:37:25Z</time>
      </trkpt>
      <trkpt lat="44.42225" lon="2.54138">
        <ele>547</ele>
        <time>2008-09-16T08:37:26Z</time>
      </trkpt>
      <trkpt lat="44.42224" lon="2.54142">
        <ele>547</ele>
        <time>2008-09-16T08:37:26Z</time>
      </trkpt>
      <trkpt lat="44.42222" lon="2.54146">
        <ele>546</ele>
        <time>2008-09-16T08:37:27Z</time>
      </trkpt>
      <trkpt lat="44.4222" lon="2.54149">
        <ele>546</ele>
        <time>2008-09-16T08:37:27Z</time>
      </trkpt>
      <trkpt lat="44.42219" lon="2.54154">
        <ele>546</ele>
        <time>2008-09-16T08:37:28Z</time>
      </trkpt>
      <trkpt lat="44.42218" lon="2.54158">
        <ele>545</ele>
        <time>2008-09-16T08:37:28Z</time>
      </trkpt>
      <trkpt lat="44.42216" lon="2.54163">
        <ele>545</ele>
        <time>2008-09-16T08:37:29Z</time>
      </trkpt>
      <trkpt lat="44.42214" lon="2.54168">
        <ele>545</ele>
        <time>2008-09-16T08:37:29Z</time>
      </trkpt>
      <trkpt lat="44.42212" lon="2.54174">
        <ele>544</ele>
        <time>2008-09-16T08:37:30Z</time>
      </trkpt>
      <trkpt lat="44.42211" lon="2.5418">
        <ele>544</ele>
        <time>2008-09-16T08:37:31Z</time>
      </trkpt>
      <trkpt lat="44.42209" lon="2.54186">
        <ele>544</ele>
        <time>2008-09-16T08:37:32Z</time>
      </trkpt>
      <trkpt lat="44.42208" lon="2.54192">
        <ele>544</ele>
        <time>2008-09-16T08:37:32Z</time>
      </trkpt>
      <trkpt lat="44.42205" lon="2.54197">
        <ele>544</ele>
        <time>2008-09-16T08:37:33Z</time>
      </trkpt>
      <trkpt lat="44.42202" lon="2.54201">
        <ele>543</ele>
        <time>2008-09-16T08:37:34Z</time>
      </trkpt>
      <trkpt lat="44.42201" lon="2.54207">
        <ele>542</ele>
        <time>2008-09-16T08:37:34Z</time>
      </trkpt>
      <trkpt lat="44.42199" lon="2.54213">
        <ele>541</ele>
        <time>2008-09-16T08:37:35Z</time>
      </trkpt>
      <trkpt lat="44.42198" lon="2.5422">
        <ele>542</ele>
        <time>2008-09-16T08:37:36Z</time>
      </trkpt>
      <trkpt lat="44.42197" lon="2.54227">
        <ele>541</ele>
        <time>2008-09-16T08:37:37Z</time>
      </trkpt>
      <trkpt lat="44.42196" lon="2.54233">
        <ele>541</ele>
        <time>2008-09-16T08:37:38Z</time>
      </trkpt>
      <trkpt lat="44.42194" lon="2.54238">
        <ele>540</ele>
        <time>2008-09-16T08:37:38Z</time>
      </trkpt>
      <trkpt lat="44.42192" lon="2.54242">
        <ele>539</ele>
        <time>2008-09-16T08:37:39Z</time>
      </trkpt>
      <trkpt lat="44.42192" lon="2.54245">
        <ele>539</ele>
        <time>2008-09-16T08:37:39Z</time>
      </trkpt>
      <trkpt lat="44.42191" lon="2.54247">
        <ele>538</ele>
        <time>2008-09-16T08:37:39Z</time>
      </trkpt>
      <trkpt lat="44.42191" lon="2.54248">
        <ele>538</ele>
        <time>2008-09-16T08:37:39Z</time>
      </trkpt>
      <trkpt lat="44.4219" lon="2.54249">
        <ele>537</ele>
        <time>2008-09-16T08:37:40Z</time>
      </trkpt>
      <trkpt lat="44.4219" lon="2.54252">
        <ele>537</ele>
        <time>2008-09-16T08:37:40Z</time>
      </trkpt>
      <trkpt lat="44.42189" lon="2.54254">
        <ele>537</ele>
        <time>2008-09-16T08:37:40Z</time>
      </trkpt>
      <trkpt lat="44.4219" lon="2.54255">
        <ele>538</ele>
        <time>2008-09-16T08:37:40Z</time>
      </trkpt>
      <trkpt lat="44.42191" lon="2.54257">
        <ele>538</ele>
        <time>2008-09-16T08:37:41Z</time>
      </trkpt>
      <trkpt lat="44.42192" lon="2.54259">
        <ele>538</ele>
        <time>2008-09-16T08:37:41Z</time>
      </trkpt>
      <trkpt lat="44.42192" lon="2.5426">
        <ele>538</ele>
        <time>2008-09-16T08:37:41Z</time>
      </trkpt>
      <trkpt lat="44.42192" lon="2.54262">
        <ele>538</ele>
        <time>2008-09-16T08:37:41Z</time>
      </trkpt>
      <trkpt lat="44.42192" lon="2.54263">
        <ele>538</ele>
        <time>2008-09-16T08:37:41Z</time>
      </trkpt>
      <trkpt lat="44.42192" lon="2.54264">
        <ele>538</ele>
        <time>2008-09-16T08:37:41Z</time>
      </trkpt>
      <trkpt lat="44.42192" lon="2.54266">
        <ele>539</ele>
        <time>2008-09-16T08:37:42Z</time>
      </trkpt>
      <trkpt lat="44.42192" lon="2.54268">
        <ele>539</ele>
        <time>2008-09-16T08:37:42Z</time>
      </trkpt>
      <trkpt lat="44.42192" lon="2.54269">
        <ele>539</ele>
        <time>2008-09-16T08:37:42Z</time>
      </trkpt>
      <trkpt lat="44.42193" lon="2.54271">
        <ele>539</ele>
        <time>2008-09-16T08:37:42Z</time>
      </trkpt>
      <trkpt lat="44.42193" lon="2.54273">
        <ele>539</ele>
        <time>2008-09-16T08:37:42Z</time>
      </trkpt>
      <trkpt lat="44.42193" lon="2.54275">
        <ele>539</ele>
        <time>2008-09-16T08:37:43Z</time>
      </trkpt>
      <trkpt lat="44.42193" lon="2.54277">
        <ele>540</ele>
        <time>2008-09-16T08:37:43Z</time>
      </trkpt>
      <trkpt lat="44.42193" lon="2.54279">
        <ele>540</ele>
        <time>2008-09-16T08:37:43Z</time>
      </trkpt>
      <trkpt lat="44.42193" lon="2.54281">
        <ele>540</ele>
        <time>2008-09-16T08:37:43Z</time>
      </trkpt>
      <trkpt lat="44.42193" lon="2.54283">
        <ele>540</ele>
        <time>2008-09-16T08:37:44Z</time>
      </trkpt>
      <trkpt lat="44.42194" lon="2.54284">
        <ele>541</ele>
        <time>2008-09-16T08:37:44Z</time>
      </trkpt>
      <trkpt lat="44.42194" lon="2.54286">
        <ele>541</ele>
        <time>2008-09-16T08:37:44Z</time>
      </trkpt>
      <trkpt lat="44.42194" lon="2.54287">
        <ele>541</ele>
        <time>2008-09-16T08:37:44Z</time>
      </trkpt>
      <trkpt lat="44.42194" lon="2.54289">
        <ele>541</ele>
        <time>2008-09-16T08:37:44Z</time>
      </trkpt>
      <trkpt lat="44.42195" lon="2.54291">
        <ele>542</ele>
        <time>2008-09-16T08:37:45Z</time>
      </trkpt>
      <trkpt lat="44.42195" lon="2.54293">
        <ele>542</ele>
        <time>2008-09-16T08:37:45Z</time>
      </trkpt>
      <trkpt lat="44.42195" lon="2.54294">
        <ele>542</ele>
        <time>2008-09-16T08:37:45Z</time>
      </trkpt>
      <trkpt lat="44.42196" lon="2.54296">
        <ele>542</ele>
        <time>2008-09-16T08:37:45Z</time>
      </trkpt>
      <trkpt lat="44.42196" lon="2.54297">
        <ele>542</ele>
        <time>2008-09-16T08:37:45Z</time>
      </trkpt>
      <trkpt lat="44.42196" lon="2.54299">
        <ele>542</ele>
        <time>2008-09-16T08:37:45Z</time>
      </trkpt>
      <trkpt lat="44.42196" lon="2.543">
        <ele>542</ele>
        <time>2008-09-16T08:37:46Z</time>
      </trkpt>
      <trkpt lat="44.42195" lon="2.54302">
        <ele>543</ele>
        <time>2008-09-16T08:37:46Z</time>
      </trkpt>
      <trkpt lat="44.42195" lon="2.54303">
        <ele>543</ele>
        <time>2008-09-16T08:37:46Z</time>
      </trkpt>
      <trkpt lat="44.42195" lon="2.54305">
        <ele>543</ele>
        <time>2008-09-16T08:37:46Z</time>
      </trkpt>
      <trkpt lat="44.42195" lon="2.54307">
        <ele>543</ele>
        <time>2008-09-16T08:37:46Z</time>
      </trkpt>
      <trkpt lat="44.42194" lon="2.54308">
        <ele>543</ele>
        <time>2008-09-16T08:37:47Z</time>
      </trkpt>
      <trkpt lat="44.42194" lon="2.5431">
        <ele>543</ele>
        <time>2008-09-16T08:37:47Z</time>
      </trkpt>
      <trkpt lat="44.42194" lon="2.54312">
        <ele>543</ele>
        <time>2008-09-16T08:37:47Z</time>
      </trkpt>
      <trkpt lat="44.42194" lon="2.54315">
        <ele>543</ele>
        <time>2008-09-16T08:37:47Z</time>
      </trkpt>
      <trkpt lat="44.42193" lon="2.54317">
        <ele>543</ele>
        <time>2008-09-16T08:37:48Z</time>
      </trkpt>
      <trkpt lat="44.42193" lon="2.54319">
        <ele>544</ele>
        <time>2008-09-16T08:37:48Z</time>
      </trkpt>
      <trkpt lat="44.42193" lon="2.54322">
        <ele>544</ele>
        <time>2008-09-16T08:37:48Z</time>
      </trkpt>
      <trkpt lat="44.42193" lon="2.54325">
        <ele>544</ele>
        <time>2008-09-16T08:37:48Z</time>
      </trkpt>
      <trkpt lat="44.42194" lon="2.54327">
        <ele>544</ele>
        <time>2008-09-16T08:37:49Z</time>
      </trkpt>
      <trkpt lat="44.42195" lon="2.5433">
        <ele>544</ele>
        <time>2008-09-16T08:37:49Z</time>
      </trkpt>
      <trkpt lat="44.42195" lon="2.54331">
        <ele>545</ele>
        <time>2008-09-16T08:37:49Z</time>
      </trkpt>
      <trkpt lat="44.42196" lon="2.54333">
        <ele>545</ele>
        <time>2008-09-16T08:37:50Z</time>
      </trkpt>
      <trkpt lat="44.42196" lon="2.54334">
        <ele>545</ele>
        <time>2008-09-16T08:37:50Z</time>
      </trkpt>
      <trkpt lat="44.42196" lon="2.54336">
        <ele>545</ele>
        <time>2008-09-16T08:37:50Z</time>
      </trkpt>
      <trkpt lat="44.42195" lon="2.54338">
        <ele>546</ele>
        <time>2008-09-16T08:37:50Z</time>
      </trkpt>
      <trkpt lat="44.42193" lon="2.5434">
        <ele>546</ele>
        <time>2008-09-16T08:37:50Z</time>
      </trkpt>
      <trkpt lat="44.42192" lon="2.54342">
        <ele>545</ele>
        <time>2008-09-16T08:37:51Z</time>
      </trkpt>
      <trkpt lat="44.42191" lon="2.54345">
        <ele>545</ele>
        <time>2008-09-16T08:37:51Z</time>
      </trkpt>
      <trkpt lat="44.4219" lon="2.54348">
        <ele>545</ele>
        <time>2008-09-16T08:37:52Z</time>
      </trkpt>
      <trkpt lat="44.42189" lon="2.54352">
        <ele>544</ele>
        <time>2008-09-16T08:37:52Z</time>
      </trkpt>
      <trkpt lat="44.42188" lon="2.54355">
        <ele>544</ele>
        <time>2008-09-16T08:37:52Z</time>
      </trkpt>
      <trkpt lat="44.42188" lon="2.5436">
        <ele>544</ele>
        <time>2008-09-16T08:37:53Z</time>
      </trkpt>
      <trkpt lat="44.42187" lon="2.54366">
        <ele>543</ele>
        <time>2008-09-16T08:37:54Z</time>
      </trkpt>
      <trkpt lat="44.42186" lon="2.54371">
        <ele>543</ele>
        <time>2008-09-16T08:37:54Z</time>
      </trkpt>
      <trkpt lat="44.42185" lon="2.54377">
        <ele>543</ele>
        <time>2008-09-16T08:37:55Z</time>
      </trkpt>
      <trkpt lat="44.42184" lon="2.54382">
        <ele>543</ele>
        <time>2008-09-16T08:37:56Z</time>
      </trkpt>
      <trkpt lat="44.42183" lon="2.54388">
        <ele>543</ele>
        <time>2008-09-16T08:37:56Z</time>
      </trkpt>
      <trkpt lat="44.42182" lon="2.54393">
        <ele>543</ele>
        <time>2008-09-16T08:37:57Z</time>
      </trkpt>
      <trkpt lat="44.42181" lon="2.54398">
        <ele>542</ele>
        <time>2008-09-16T08:37:58Z</time>
      </trkpt>
      <trkpt lat="44.42181" lon="2.54403">
        <ele>542</ele>
        <time>2008-09-16T08:37:58Z</time>
      </trkpt>
      <trkpt lat="44.42181" lon="2.54407">
        <ele>542</ele>
        <time>2008-09-16T08:37:59Z</time>
      </trkpt>
      <trkpt lat="44.4218" lon="2.54411">
        <ele>542</ele>
        <time>2008-09-16T08:37:59Z</time>
      </trkpt>
      <trkpt lat="44.42179" lon="2.54416">
        <ele>542</ele>
        <time>2008-09-16T08:38:00Z</time>
      </trkpt>
      <trkpt lat="44.42178" lon="2.54421">
        <ele>542</ele>
        <time>2008-09-16T08:38:00Z</time>
      </trkpt>
      <trkpt lat="44.42177" lon="2.54426">
        <ele>543</ele>
        <time>2008-09-16T08:38:01Z</time>
      </trkpt>
      <trkpt lat="44.42176" lon="2.54431">
        <ele>543</ele>
        <time>2008-09-16T08:38:01Z</time>
      </trkpt>
      <trkpt lat="44.42176" lon="2.54437">
        <ele>543</ele>
        <time>2008-09-16T08:38:02Z</time>
      </trkpt>
      <trkpt lat="44.42176" lon="2.54442">
        <ele>543</ele>
        <time>2008-09-16T08:38:03Z</time>
      </trkpt>
      <trkpt lat="44.42175" lon="2.54447">
        <ele>543</ele>
        <time>2008-09-16T08:38:03Z</time>
      </trkpt>
      <trkpt lat="44.42175" lon="2.54452">
        <ele>543</ele>
        <time>2008-09-16T08:38:04Z</time>
      </trkpt>
      <trkpt lat="44.42174" lon="2.54457">
        <ele>544</ele>
        <time>2008-09-16T08:38:04Z</time>
      </trkpt>
      <trkpt lat="44.42173" lon="2.54461">
        <ele>544</ele>
        <time>2008-09-16T08:38:05Z</time>
      </trkpt>
      <trkpt lat="44.42173" lon="2.54466">
        <ele>544</ele>
        <time>2008-09-16T08:38:05Z</time>
      </trkpt>
      <trkpt lat="44.42172" lon="2.54471">
        <ele>545</ele>
        <time>2008-09-16T08:38:06Z</time>
      </trkpt>
      <trkpt lat="44.42172" lon="2.54475">
        <ele>545</ele>
        <time>2008-09-16T08:38:07Z</time>
      </trkpt>
      <trkpt lat="44.42171" lon="2.5448">
        <ele>546</ele>
        <time>2008-09-16T08:38:07Z</time>
      </trkpt>
      <trkpt lat="44.42171" lon="2.54484">
        <ele>546</ele>
        <time>2008-09-16T08:38:07Z</time>
      </trkpt>
      <trkpt lat="44.42171" lon="2.54488">
        <ele>547</ele>
        <time>2008-09-16T08:38:08Z</time>
      </trkpt>
      <trkpt lat="44.4217" lon="2.54491">
        <ele>547</ele>
        <time>2008-09-16T08:38:08Z</time>
      </trkpt>
      <trkpt lat="44.42169" lon="2.54494">
        <ele>548</ele>
        <time>2008-09-16T08:38:09Z</time>
      </trkpt>
      <trkpt lat="44.42169" lon="2.54497">
        <ele>548</ele>
        <time>2008-09-16T08:38:09Z</time>
      </trkpt>
      <trkpt lat="44.42168" lon="2.545">
        <ele>548</ele>
        <time>2008-09-16T08:38:09Z</time>
      </trkpt>
      <trkpt lat="44.42167" lon="2.54503">
        <ele>548</ele>
        <time>2008-09-16T08:38:10Z</time>
      </trkpt>
      <trkpt lat="44.42167" lon="2.54507">
        <ele>549</ele>
        <time>2008-09-16T08:38:10Z</time>
      </trkpt>
      <trkpt lat="44.42166" lon="2.54511">
        <ele>549</ele>
        <time>2008-09-16T08:38:11Z</time>
      </trkpt>
      <trkpt lat="44.42166" lon="2.54515">
        <ele>549</ele>
        <time>2008-09-16T08:38:11Z</time>
      </trkpt>
      <trkpt lat="44.42165" lon="2.5452">
        <ele>549</ele>
        <time>2008-09-16T08:38:12Z</time>
      </trkpt>
      <trkpt lat="44.42165" lon="2.54524">
        <ele>549</ele>
        <time>2008-09-16T08:38:12Z</time>
      </trkpt>
      <trkpt lat="44.42164" lon="2.54529">
        <ele>549</ele>
        <time>2008-09-16T08:38:13Z</time>
      </trkpt>
      <trkpt lat="44.42163" lon="2.54534">
        <ele>549</ele>
        <time>2008-09-16T08:38:13Z</time>
      </trkpt>
      <trkpt lat="44.42162" lon="2.54539">
        <ele>550</ele>
        <time>2008-09-16T08:38:14Z</time>
      </trkpt>
      <trkpt lat="44.42162" lon="2.54544">
        <ele>550</ele>
        <time>2008-09-16T08:38:15Z</time>
      </trkpt>
      <trkpt lat="44.42161" lon="2.5455">
        <ele>550</ele>
        <time>2008-09-16T08:38:15Z</time>
      </trkpt>
      <trkpt lat="44.4216" lon="2.54555">
        <ele>549</ele>
        <time>2008-09-16T08:38:16Z</time>
      </trkpt>
      <trkpt lat="44.42159" lon="2.54561">
        <ele>549</ele>
        <time>2008-09-16T08:38:17Z</time>
      </trkpt>
      <trkpt lat="44.42158" lon="2.54567">
        <ele>549</ele>
        <time>2008-09-16T08:38:17Z</time>
      </trkpt>
      <trkpt lat="44.42157" lon="2.54574">
        <ele>549</ele>
        <time>2008-09-16T08:38:18Z</time>
      </trkpt>
      <trkpt lat="44.42156" lon="2.5458">
        <ele>549</ele>
        <time>2008-09-16T08:38:19Z</time>
      </trkpt>
      <trkpt lat="44.42155" lon="2.54587">
        <ele>549</ele>
        <time>2008-09-16T08:38:20Z</time>
      </trkpt>
      <trkpt lat="44.42153" lon="2.54593">
        <ele>549</ele>
        <time>2008-09-16T08:38:20Z</time>
      </trkpt>
      <trkpt lat="44.42152" lon="2.54599">
        <ele>549</ele>
        <time>2008-09-16T08:38:21Z</time>
      </trkpt>
      <trkpt lat="44.42151" lon="2.54605">
        <ele>549</ele>
        <time>2008-09-16T08:38:22Z</time>
      </trkpt>
      <trkpt lat="44.4215" lon="2.54611">
        <ele>549</ele>
        <time>2008-09-16T08:38:22Z</time>
      </trkpt>
      <trkpt lat="44.42149" lon="2.54616">
        <ele>549</ele>
        <time>2008-09-16T08:38:23Z</time>
      </trkpt>
      <trkpt lat="44.42148" lon="2.54622">
        <ele>549</ele>
        <time>2008-09-16T08:38:24Z</time>
      </trkpt>
      <trkpt lat="44.42148" lon="2.54627">
        <ele>549</ele>
        <time>2008-09-16T08:38:24Z</time>
      </trkpt>
      <trkpt lat="44.42147" lon="2.54633">
        <ele>549</ele>
        <time>2008-09-16T08:38:25Z</time>
      </trkpt>
      <trkpt lat="44.42145" lon="2.54638">
        <ele>550</ele>
        <time>2008-09-16T08:38:26Z</time>
      </trkpt>
      <trkpt lat="44.42144" lon="2.54644">
        <ele>550</ele>
        <time>2008-09-16T08:38:26Z</time>
      </trkpt>
      <trkpt lat="44.42143" lon="2.54648">
        <ele>550</ele>
        <time>2008-09-16T08:38:27Z</time>
      </trkpt>
      <trkpt lat="44.42141" lon="2.54653">
        <ele>550</ele>
        <time>2008-09-16T08:38:27Z</time>
      </trkpt>
      <trkpt lat="44.42139" lon="2.54658">
        <ele>549</ele>
        <time>2008-09-16T08:38:28Z</time>
      </trkpt>
      <trkpt lat="44.42137" lon="2.54664">
        <ele>549</ele>
        <time>2008-09-16T08:38:29Z</time>
      </trkpt>
      <trkpt lat="44.42135" lon="2.54671">
        <ele>549</ele>
        <time>2008-09-16T08:38:30Z</time>
      </trkpt>
      <trkpt lat="44.42132" lon="2.54677">
        <ele>548</ele>
        <time>2008-09-16T08:38:31Z</time>
      </trkpt>
      <trkpt lat="44.42129" lon="2.54683">
        <ele>548</ele>
        <time>2008-09-16T08:38:31Z</time>
      </trkpt>
      <trkpt lat="44.42127" lon="2.54689">
        <ele>548</ele>
        <time>2008-09-16T08:38:32Z</time>
      </trkpt>
      <trkpt lat="44.42125" lon="2.54695">
        <ele>548</ele>
        <time>2008-09-16T08:38:33Z</time>
      </trkpt>
      <trkpt lat="44.42124" lon="2.547">
        <ele>549</ele>
        <time>2008-09-16T08:38:34Z</time>
      </trkpt>
      <trkpt lat="44.42123" lon="2.54705">
        <ele>548</ele>
        <time>2008-09-16T08:38:34Z</time>
      </trkpt>
      <trkpt lat="44.42122" lon="2.54711">
        <ele>548</ele>
        <time>2008-09-16T08:38:35Z</time>
      </trkpt>
      <trkpt lat="44.42121" lon="2.54716">
        <ele>548</ele>
        <time>2008-09-16T08:38:36Z</time>
      </trkpt>
      <trkpt lat="44.4212" lon="2.54722">
        <ele>548</ele>
        <time>2008-09-16T08:38:36Z</time>
      </trkpt>
      <trkpt lat="44.42118" lon="2.54728">
        <ele>548</ele>
        <time>2008-09-16T08:38:37Z</time>
      </trkpt>
      <trkpt lat="44.42116" lon="2.54734">
        <ele>547</ele>
        <time>2008-09-16T08:38:38Z</time>
      </trkpt>
      <trkpt lat="44.42114" lon="2.5474">
        <ele>547</ele>
        <time>2008-09-16T08:38:38Z</time>
      </trkpt>
      <trkpt lat="44.42113" lon="2.54746">
        <ele>547</ele>
        <time>2008-09-16T08:38:39Z</time>
      </trkpt>
      <trkpt lat="44.42113" lon="2.54752">
        <ele>547</ele>
        <time>2008-09-16T08:38:40Z</time>
      </trkpt>
      <trkpt lat="44.42113" lon="2.54759">
        <ele>547</ele>
        <time>2008-09-16T08:38:41Z</time>
      </trkpt>
      <trkpt lat="44.42113" lon="2.54764">
        <ele>547</ele>
        <time>2008-09-16T08:38:41Z</time>
      </trkpt>
      <trkpt lat="44.42111" lon="2.54769">
        <ele>546</ele>
        <time>2008-09-16T08:38:42Z</time>
      </trkpt>
      <trkpt lat="44.4211" lon="2.54776">
        <ele>546</ele>
        <time>2008-09-16T08:38:43Z</time>
      </trkpt>
      <trkpt lat="44.4211" lon="2.54782">
        <ele>546</ele>
        <time>2008-09-16T08:38:43Z</time>
      </trkpt>
      <trkpt lat="44.42109" lon="2.54788">
        <ele>546</ele>
        <time>2008-09-16T08:38:44Z</time>
      </trkpt>
      <trkpt lat="44.42108" lon="2.54795">
        <ele>547</ele>
        <time>2008-09-16T08:38:45Z</time>
      </trkpt>
      <trkpt lat="44.42107" lon="2.54801">
        <ele>547</ele>
        <time>2008-09-16T08:38:46Z</time>
      </trkpt>
      <trkpt lat="44.42106" lon="2.54807">
        <ele>546</ele>
        <time>2008-09-16T08:38:46Z</time>
      </trkpt>
      <trkpt lat="44.42104" lon="2.54814">
        <ele>546</ele>
        <time>2008-09-16T08:38:47Z</time>
      </trkpt>
      <trkpt lat="44.42102" lon="2.54822">
        <ele>545</ele>
        <time>2008-09-16T08:38:48Z</time>
      </trkpt>
      <trkpt lat="44.42099" lon="2.5483">
        <ele>545</ele>
        <time>2008-09-16T08:38:49Z</time>
      </trkpt>
      <trkpt lat="44.42097" lon="2.54839">
        <ele>544</ele>
        <time>2008-09-16T08:38:50Z</time>
      </trkpt>
      <trkpt lat="44.42096" lon="2.54848">
        <ele>544</ele>
        <time>2008-09-16T08:38:51Z</time>
      </trkpt>
      <trkpt lat="44.42096" lon="2.54856">
        <ele>545</ele>
        <time>2008-09-16T08:38:52Z</time>
      </trkpt>
      <trkpt lat="44.42095" lon="2.54864">
        <ele>545</ele>
        <time>2008-09-16T08:38:53Z</time>
      </trkpt>
      <trkpt lat="44.42095" lon="2.54871">
        <ele>545</ele>
        <time>2008-09-16T08:38:54Z</time>
      </trkpt>
      <trkpt lat="44.42094" lon="2.54878">
        <ele>545</ele>
        <time>2008-09-16T08:38:55Z</time>
      </trkpt>
      <trkpt lat="44.42093" lon="2.54885">
        <ele>545</ele>
        <time>2008-09-16T08:38:56Z</time>
      </trkpt>
      <trkpt lat="44.42092" lon="2.54892">
        <ele>545</ele>
        <time>2008-09-16T08:38:56Z</time>
      </trkpt>
      <trkpt lat="44.42091" lon="2.549">
        <ele>545</ele>
        <time>2008-09-16T08:38:57Z</time>
      </trkpt>
      <trkpt lat="44.4209" lon="2.54908">
        <ele>545</ele>
        <time>2008-09-16T08:38:58Z</time>
      </trkpt>
      <trkpt lat="44.4209" lon="2.54915">
        <ele>545</ele>
        <time>2008-09-16T08:38:59Z</time>
      </trkpt>
      <trkpt lat="44.42089" lon="2.54923">
        <ele>544</ele>
        <time>2008-09-16T08:39:00Z</time>
      </trkpt>
      <trkpt lat="44.42089" lon="2.54931">
        <ele>544</ele>
        <time>2008-09-16T08:39:01Z</time>
      </trkpt>
      <trkpt lat="44.42088" lon="2.54939">
        <ele>544</ele>
        <time>2008-09-16T08:39:02Z</time>
      </trkpt>
      <trkpt lat="44.42086" lon="2.54947">
        <ele>544</ele>
        <time>2008-09-16T08:39:03Z</time>
      </trkpt>
      <trkpt lat="44.42085" lon="2.54955">
        <ele>544</ele>
        <time>2008-09-16T08:39:04Z</time>
      </trkpt>
      <trkpt lat="44.42083" lon="2.54962">
        <ele>544</ele>
        <time>2008-09-16T08:39:05Z</time>
      </trkpt>
      <trkpt lat="44.42082" lon="2.5497">
        <ele>544</ele>
        <time>2008-09-16T08:39:05Z</time>
      </trkpt>
      <trkpt lat="44.42081" lon="2.54978">
        <ele>543</ele>
        <time>2008-09-16T08:39:06Z</time>
      </trkpt>
      <trkpt lat="44.4208" lon="2.54985">
        <ele>543</ele>
        <time>2008-09-16T08:39:07Z</time>
      </trkpt>
      <trkpt lat="44.42079" lon="2.54993">
        <ele>544</ele>
        <time>2008-09-16T08:39:08Z</time>
      </trkpt>
      <trkpt lat="44.42078" lon="2.55">
        <ele>544</ele>
        <time>2008-09-16T08:39:09Z</time>
      </trkpt>
      <trkpt lat="44.42077" lon="2.55007">
        <ele>544</ele>
        <time>2008-09-16T08:39:10Z</time>
      </trkpt>
      <trkpt lat="44.42076" lon="2.55014">
        <ele>544</ele>
        <time>2008-09-16T08:39:11Z</time>
      </trkpt>
      <trkpt lat="44.42074" lon="2.5502">
        <ele>544</ele>
        <time>2008-09-16T08:39:11Z</time>
      </trkpt>
      <trkpt lat="44.42071" lon="2.55027">
        <ele>544</ele>
        <time>2008-09-16T08:39:12Z</time>
      </trkpt>
      <trkpt lat="44.42069" lon="2.55033">
        <ele>545</ele>
        <time>2008-09-16T08:39:13Z</time>
      </trkpt>
      <trkpt lat="44.42067" lon="2.5504">
        <ele>545</ele>
        <time>2008-09-16T08:39:14Z</time>
      </trkpt>
      <trkpt lat="44.42065" lon="2.55046">
        <ele>546</ele>
        <time>2008-09-16T08:39:15Z</time>
      </trkpt>
      <trkpt lat="44.42064" lon="2.55052">
        <ele>546</ele>
        <time>2008-09-16T08:39:15Z</time>
      </trkpt>
      <trkpt lat="44.42064" lon="2.55057">
        <ele>547</ele>
        <time>2008-09-16T08:39:16Z</time>
      </trkpt>
      <trkpt lat="44.42063" lon="2.55062">
        <ele>548</ele>
        <time>2008-09-16T08:39:16Z</time>
      </trkpt>
      <trkpt lat="44.42063" lon="2.55066">
        <ele>548</ele>
        <time>2008-09-16T08:39:17Z</time>
      </trkpt>
      <trkpt lat="44.42062" lon="2.5507">
        <ele>548</ele>
        <time>2008-09-16T08:39:17Z</time>
      </trkpt>
      <trkpt lat="44.4206" lon="2.55074">
        <ele>548</ele>
        <time>2008-09-16T08:39:18Z</time>
      </trkpt>
      <trkpt lat="44.42059" lon="2.55078">
        <ele>548</ele>
        <time>2008-09-16T08:39:18Z</time>
      </trkpt>
      <trkpt lat="44.42058" lon="2.55084">
        <ele>548</ele>
        <time>2008-09-16T08:39:19Z</time>
      </trkpt>
      <trkpt lat="44.42057" lon="2.55089">
        <ele>549</ele>
        <time>2008-09-16T08:39:20Z</time>
      </trkpt>
      <trkpt lat="44.42056" lon="2.55095">
        <ele>549</ele>
        <time>2008-09-16T08:39:20Z</time>
      </trkpt>
      <trkpt lat="44.42056" lon="2.55101">
        <ele>549</ele>
        <time>2008-09-16T08:39:21Z</time>
      </trkpt>
      <trkpt lat="44.42055" lon="2.55107">
        <ele>549</ele>
        <time>2008-09-16T08:39:22Z</time>
      </trkpt>
      <trkpt lat="44.42054" lon="2.55112">
        <ele>549</ele>
        <time>2008-09-16T08:39:22Z</time>
      </trkpt>
      <trkpt lat="44.42054" lon="2.55118">
        <ele>549</ele>
        <time>2008-09-16T08:39:23Z</time>
      </trkpt>
      <trkpt lat="44.42054" lon="2.55124">
        <ele>549</ele>
        <time>2008-09-16T08:39:24Z</time>
      </trkpt>
      <trkpt lat="44.42054" lon="2.55128">
        <ele>549</ele>
        <time>2008-09-16T08:39:24Z</time>
      </trkpt>
      <trkpt lat="44.42053" lon="2.55132">
        <ele>549</ele>
        <time>2008-09-16T08:39:25Z</time>
      </trkpt>
      <trkpt lat="44.42052" lon="2.55136">
        <ele>549</ele>
        <time>2008-09-16T08:39:25Z</time>
      </trkpt>
      <trkpt lat="44.42051" lon="2.55141">
        <ele>548</ele>
        <time>2008-09-16T08:39:26Z</time>
      </trkpt>
      <trkpt lat="44.42051" lon="2.55146">
        <ele>548</ele>
        <time>2008-09-16T08:39:26Z</time>
      </trkpt>
      <trkpt lat="44.42051" lon="2.55151">
        <ele>548</ele>
        <time>2008-09-16T08:39:27Z</time>
      </trkpt>
      <trkpt lat="44.42052" lon="2.55154">
        <ele>548</ele>
        <time>2008-09-16T08:39:27Z</time>
      </trkpt>
      <trkpt lat="44.42054" lon="2.55157">
        <ele>548</ele>
        <time>2008-09-16T08:39:28Z</time>
      </trkpt>
      <trkpt lat="44.42054" lon="2.55161">
        <ele>548</ele>
        <time>2008-09-16T08:39:28Z</time>
      </trkpt>
      <trkpt lat="44.42054" lon="2.55166">
        <ele>548</ele>
        <time>2008-09-16T08:39:29Z</time>
      </trkpt>
      <trkpt lat="44.42052" lon="2.55171">
        <ele>547</ele>
        <time>2008-09-16T08:39:29Z</time>
      </trkpt>
      <trkpt lat="44.4205" lon="2.55178">
        <ele>546</ele>
        <time>2008-09-16T08:39:30Z</time>
      </trkpt>
      <trkpt lat="44.42049" lon="2.55184">
        <ele>546</ele>
        <time>2008-09-16T08:39:31Z</time>
      </trkpt>
      <trkpt lat="44.42048" lon="2.5519">
        <ele>546</ele>
        <time>2008-09-16T08:39:32Z</time>
      </trkpt>
      <trkpt lat="44.42046" lon="2.55195">
        <ele>546</ele>
        <time>2008-09-16T08:39:32Z</time>
      </trkpt>
      <trkpt lat="44.42045" lon="2.55201">
        <ele>546</ele>
        <time>2008-09-16T08:39:33Z</time>
      </trkpt>
      <trkpt lat="44.42044" lon="2.55207">
        <ele>546</ele>
        <time>2008-09-16T08:39:34Z</time>
      </trkpt>
      <trkpt lat="44.42043" lon="2.55213">
        <ele>545</ele>
        <time>2008-09-16T08:39:34Z</time>
      </trkpt>
      <trkpt lat="44.42041" lon="2.55217">
        <ele>545</ele>
        <time>2008-09-16T08:39:35Z</time>
      </trkpt>
      <trkpt lat="44.42039" lon="2.55222">
        <ele>544</ele>
        <time>2008-09-16T08:39:36Z</time>
      </trkpt>
      <trkpt lat="44.42038" lon="2.55227">
        <ele>545</ele>
        <time>2008-09-16T08:39:36Z</time>
      </trkpt>
      <trkpt lat="44.42037" lon="2.55232">
        <ele>545</ele>
        <time>2008-09-16T08:39:37Z</time>
      </trkpt>
      <trkpt lat="44.42036" lon="2.55237">
        <ele>545</ele>
        <time>2008-09-16T08:39:37Z</time>
      </trkpt>
      <trkpt lat="44.42034" lon="2.55242">
        <ele>545</ele>
        <time>2008-09-16T08:39:38Z</time>
      </trkpt>
      <trkpt lat="44.42032" lon="2.55247">
        <ele>545</ele>
        <time>2008-09-16T08:39:39Z</time>
      </trkpt>
      <trkpt lat="44.42029" lon="2.55252">
        <ele>545</ele>
        <time>2008-09-16T08:39:39Z</time>
      </trkpt>
      <trkpt lat="44.42028" lon="2.55257">
        <ele>545</ele>
        <time>2008-09-16T08:39:40Z</time>
      </trkpt>
      <trkpt lat="44.42027" lon="2.55263">
        <ele>545</ele>
        <time>2008-09-16T08:39:41Z</time>
      </trkpt>
      <trkpt lat="44.42025" lon="2.55269">
        <ele>544</ele>
        <time>2008-09-16T08:39:41Z</time>
      </trkpt>
      <trkpt lat="44.42024" lon="2.55275">
        <ele>545</ele>
        <time>2008-09-16T08:39:42Z</time>
      </trkpt>
      <trkpt lat="44.42022" lon="2.55282">
        <ele>545</ele>
        <time>2008-09-16T08:39:43Z</time>
      </trkpt>
      <trkpt lat="44.4202" lon="2.55288">
        <ele>545</ele>
        <time>2008-09-16T08:39:44Z</time>
      </trkpt>
      <trkpt lat="44.4202" lon="2.55295">
        <ele>546</ele>
        <time>2008-09-16T08:39:45Z</time>
      </trkpt>
      <trkpt lat="44.42019" lon="2.553">
        <ele>547</ele>
        <time>2008-09-16T08:39:45Z</time>
      </trkpt>
      <trkpt lat="44.42018" lon="2.55305">
        <ele>547</ele>
        <time>2008-09-16T08:39:46Z</time>
      </trkpt>
      <trkpt lat="44.42018" lon="2.55309">
        <ele>548</ele>
        <time>2008-09-16T08:39:46Z</time>
      </trkpt>
      <trkpt lat="44.42017" lon="2.55313">
        <ele>549</ele>
        <time>2008-09-16T08:39:47Z</time>
      </trkpt>
      <trkpt lat="44.42017" lon="2.55318">
        <ele>549</ele>
        <time>2008-09-16T08:39:47Z</time>
      </trkpt>
      <trkpt lat="44.42016" lon="2.55322">
        <ele>550</ele>
        <time>2008-09-16T08:39:48Z</time>
      </trkpt>
      <trkpt lat="44.42016" lon="2.55327">
        <ele>550</ele>
        <time>2008-09-16T08:39:48Z</time>
      </trkpt>
      <trkpt lat="44.42015" lon="2.55331">
        <ele>550</ele>
        <time>2008-09-16T08:39:49Z</time>
      </trkpt>
      <trkpt lat="44.42014" lon="2.55336">
        <ele>550</ele>
        <time>2008-09-16T08:39:49Z</time>
      </trkpt>
      <trkpt lat="44.42013" lon="2.55341">
        <ele>551</ele>
        <time>2008-09-16T08:39:50Z</time>
      </trkpt>
      <trkpt lat="44.42012" lon="2.55346">
        <ele>551</ele>
        <time>2008-09-16T08:39:51Z</time>
      </trkpt>
      <trkpt lat="44.42011" lon="2.55351">
        <ele>551</ele>
        <time>2008-09-16T08:39:51Z</time>
      </trkpt>
      <trkpt lat="44.42009" lon="2.55356">
        <ele>551</ele>
        <time>2008-09-16T08:39:52Z</time>
      </trkpt>
      <trkpt lat="44.42008" lon="2.55361">
        <ele>551</ele>
        <time>2008-09-16T08:39:52Z</time>
      </trkpt>
      <trkpt lat="44.42007" lon="2.55366">
        <ele>551</ele>
        <time>2008-09-16T08:39:53Z</time>
      </trkpt>
      <trkpt lat="44.42007" lon="2.55371">
        <ele>551</ele>
        <time>2008-09-16T08:39:54Z</time>
      </trkpt>
      <trkpt lat="44.42006" lon="2.55376">
        <ele>552</ele>
        <time>2008-09-16T08:39:54Z</time>
      </trkpt>
      <trkpt lat="44.42005" lon="2.55381">
        <ele>552</ele>
        <time>2008-09-16T08:39:55Z</time>
      </trkpt>
      <trkpt lat="44.42005" lon="2.55386">
        <ele>552</ele>
        <time>2008-09-16T08:39:55Z</time>
      </trkpt>
      <trkpt lat="44.42004" lon="2.55392">
        <ele>552</ele>
        <time>2008-09-16T08:39:56Z</time>
      </trkpt>
      <trkpt lat="44.42003" lon="2.55397">
        <ele>552</ele>
        <time>2008-09-16T08:39:57Z</time>
      </trkpt>
      <trkpt lat="44.42002" lon="2.55403">
        <ele>552</ele>
        <time>2008-09-16T08:39:57Z</time>
      </trkpt>
      <trkpt lat="44.42001" lon="2.55408">
        <ele>552</ele>
        <time>2008-09-16T08:39:58Z</time>
      </trkpt>
      <trkpt lat="44.42001" lon="2.55414">
        <ele>552</ele>
        <time>2008-09-16T08:39:59Z</time>
      </trkpt>
      <trkpt lat="44.42" lon="2.5542">
        <ele>552</ele>
        <time>2008-09-16T08:39:59Z</time>
      </trkpt>
      <trkpt lat="44.41999" lon="2.55426">
        <ele>552</ele>
        <time>2008-09-16T08:40:00Z</time>
      </trkpt>
      <trkpt lat="44.41998" lon="2.55431">
        <ele>552</ele>
        <time>2008-09-16T08:40:01Z</time>
      </trkpt>
      <trkpt lat="44.41998" lon="2.55437">
        <ele>552</ele>
        <time>2008-09-16T08:40:01Z</time>
      </trkpt>
      <trkpt lat="44.41999" lon="2.55443">
        <ele>552</ele>
        <time>2008-09-16T08:40:02Z</time>
      </trkpt>
      <trkpt lat="44.42" lon="2.55448">
        <ele>552</ele>
        <time>2008-09-16T08:40:03Z</time>
      </trkpt>
      <trkpt lat="44.42001" lon="2.55453">
        <ele>552</ele>
        <time>2008-09-16T08:40:03Z</time>
      </trkpt>
      <trkpt lat="44.42003" lon="2.55458">
        <ele>553</ele>
        <time>2008-09-16T08:40:04Z</time>
      </trkpt>
      <trkpt lat="44.42006" lon="2.55461">
        <ele>553</ele>
        <time>2008-09-16T08:40:04Z</time>
      </trkpt>
      <trkpt lat="44.42009" lon="2.55463">
        <ele>553</ele>
        <time>2008-09-16T08:40:05Z</time>
      </trkpt>
      <trkpt lat="44.42012" lon="2.55464">
        <ele>553</ele>
        <time>2008-09-16T08:40:05Z</time>
      </trkpt>
      <trkpt lat="44.42016" lon="2.55465">
        <ele>553</ele>
        <time>2008-09-16T08:40:06Z</time>
      </trkpt>
      <trkpt lat="44.42019" lon="2.55465">
        <ele>553</ele>
        <time>2008-09-16T08:40:06Z</time>
      </trkpt>
      <trkpt lat="44.42022" lon="2.55467">
        <ele>553</ele>
        <time>2008-09-16T08:40:07Z</time>
      </trkpt>
      <trkpt lat="44.42024" lon="2.55469">
        <ele>553</ele>
        <time>2008-09-16T08:40:08Z</time>
      </trkpt>
      <trkpt lat="44.42027" lon="2.55472">
        <ele>553</ele>
        <time>2008-09-16T08:40:08Z</time>
      </trkpt>
      <trkpt lat="44.4203" lon="2.55476">
        <ele>553</ele>
        <time>2008-09-16T08:40:09Z</time>
      </trkpt>
      <trkpt lat="44.42032" lon="2.55481">
        <ele>553</ele>
        <time>2008-09-16T08:40:09Z</time>
      </trkpt>
      <trkpt lat="44.42035" lon="2.55486">
        <ele>553</ele>
        <time>2008-09-16T08:40:10Z</time>
      </trkpt>
      <trkpt lat="44.42037" lon="2.55492">
        <ele>553</ele>
        <time>2008-09-16T08:40:11Z</time>
      </trkpt>
      <trkpt lat="44.42039" lon="2.55497">
        <ele>553</ele>
        <time>2008-09-16T08:40:12Z</time>
      </trkpt>
      <trkpt lat="44.42041" lon="2.55503">
        <ele>553</ele>
        <time>2008-09-16T08:40:12Z</time>
      </trkpt>
      <trkpt lat="44.42043" lon="2.55508">
        <ele>553</ele>
        <time>2008-09-16T08:40:13Z</time>
      </trkpt>
      <trkpt lat="44.42045" lon="2.55513">
        <ele>553</ele>
        <time>2008-09-16T08:40:14Z</time>
      </trkpt>
      <trkpt lat="44.42048" lon="2.55517">
        <ele>553</ele>
        <time>2008-09-16T08:40:14Z</time>
      </trkpt>
      <trkpt lat="44.42051" lon="2.5552">
        <ele>553</ele>
        <time>2008-09-16T08:40:15Z</time>
      </trkpt>
      <trkpt lat="44.42054" lon="2.55522">
        <ele>553</ele>
        <time>2008-09-16T08:40:15Z</time>
      </trkpt>
      <trkpt lat="44.42058" lon="2.55525">
        <ele>553</ele>
        <time>2008-09-16T08:40:16Z</time>
      </trkpt>
      <trkpt lat="44.42061" lon="2.55526">
        <ele>553</ele>
        <time>2008-09-16T08:40:17Z</time>
      </trkpt>
      <trkpt lat="44.42064" lon="2.55528">
        <ele>553</ele>
        <time>2008-09-16T08:40:17Z</time>
      </trkpt>
      <trkpt lat="44.42067" lon="2.5553">
        <ele>553</ele>
        <time>2008-09-16T08:40:18Z</time>
      </trkpt>
      <trkpt lat="44.42069" lon="2.55532">
        <ele>554</ele>
        <time>2008-09-16T08:40:18Z</time>
      </trkpt>
      <trkpt lat="44.42073" lon="2.55534">
        <ele>553</ele>
        <time>2008-09-16T08:40:19Z</time>
      </trkpt>
      <trkpt lat="44.42076" lon="2.55536">
        <ele>553</ele>
        <time>2008-09-16T08:40:19Z</time>
      </trkpt>
      <trkpt lat="44.42079" lon="2.55538">
        <ele>554</ele>
        <time>2008-09-16T08:40:20Z</time>
      </trkpt>
      <trkpt lat="44.42082" lon="2.5554">
        <ele>554</ele>
        <time>2008-09-16T08:40:20Z</time>
      </trkpt>
      <trkpt lat="44.42085" lon="2.55542">
        <ele>554</ele>
        <time>2008-09-16T08:40:21Z</time>
      </trkpt>
      <trkpt lat="44.42088" lon="2.55545">
        <ele>554</ele>
        <time>2008-09-16T08:40:21Z</time>
      </trkpt>
      <trkpt lat="44.42091" lon="2.55547">
        <ele>554</ele>
        <time>2008-09-16T08:40:22Z</time>
      </trkpt>
      <trkpt lat="44.42094" lon="2.5555">
        <ele>555</ele>
        <time>2008-09-16T08:40:23Z</time>
      </trkpt>
      <trkpt lat="44.42097" lon="2.55553">
        <ele>555</ele>
        <time>2008-09-16T08:40:23Z</time>
      </trkpt>
      <trkpt lat="44.42099" lon="2.55556">
        <ele>555</ele>
        <time>2008-09-16T08:40:24Z</time>
      </trkpt>
      <trkpt lat="44.42102" lon="2.55559">
        <ele>555</ele>
        <time>2008-09-16T08:40:24Z</time>
      </trkpt>
      <trkpt lat="44.42104" lon="2.55562">
        <ele>555</ele>
        <time>2008-09-16T08:40:25Z</time>
      </trkpt>
      <trkpt lat="44.42106" lon="2.55566">
        <ele>555</ele>
        <time>2008-09-16T08:40:25Z</time>
      </trkpt>
      <trkpt lat="44.42108" lon="2.55569">
        <ele>556</ele>
        <time>2008-09-16T08:40:26Z</time>
      </trkpt>
      <trkpt lat="44.4211" lon="2.55573">
        <ele>556</ele>
        <time>2008-09-16T08:40:26Z</time>
      </trkpt>
      <trkpt lat="44.42112" lon="2.55577">
        <ele>556</ele>
        <time>2008-09-16T08:40:27Z</time>
      </trkpt>
      <trkpt lat="44.42114" lon="2.55581">
        <ele>556</ele>
        <time>2008-09-16T08:40:27Z</time>
      </trkpt>
      <trkpt lat="44.42116" lon="2.55585">
        <ele>557</ele>
        <time>2008-09-16T08:40:28Z</time>
      </trkpt>
      <trkpt lat="44.42117" lon="2.55588">
        <ele>557</ele>
        <time>2008-09-16T08:40:28Z</time>
      </trkpt>
      <trkpt lat="44.42119" lon="2.55592">
        <ele>558</ele>
        <time>2008-09-16T08:40:29Z</time>
      </trkpt>
      <trkpt lat="44.4212" lon="2.55596">
        <ele>558</ele>
        <time>2008-09-16T08:40:29Z</time>
      </trkpt>
      <trkpt lat="44.4212" lon="2.556">
        <ele>558</ele>
        <time>2008-09-16T08:40:30Z</time>
      </trkpt>
      <trkpt lat="44.42121" lon="2.55604">
        <ele>558</ele>
        <time>2008-09-16T08:40:30Z</time>
      </trkpt>
      <trkpt lat="44.42122" lon="2.55608">
        <ele>559</ele>
        <time>2008-09-16T08:40:31Z</time>
      </trkpt>
      <trkpt lat="44.42122" lon="2.55613">
        <ele>559</ele>
        <time>2008-09-16T08:40:31Z</time>
      </trkpt>
      <trkpt lat="44.42123" lon="2.55617">
        <ele>559</ele>
        <time>2008-09-16T08:40:32Z</time>
      </trkpt>
      <trkpt lat="44.42122" lon="2.55621">
        <ele>559</ele>
        <time>2008-09-16T08:40:32Z</time>
      </trkpt>
      <trkpt lat="44.42122" lon="2.55625">
        <ele>560</ele>
        <time>2008-09-16T08:40:33Z</time>
      </trkpt>
      <trkpt lat="44.42122" lon="2.55629">
        <ele>560</ele>
        <time>2008-09-16T08:40:33Z</time>
      </trkpt>
      <trkpt lat="44.42122" lon="2.55633">
        <ele>560</ele>
        <time>2008-09-16T08:40:34Z</time>
      </trkpt>
      <trkpt lat="44.42122" lon="2.55638">
        <ele>561</ele>
        <time>2008-09-16T08:40:34Z</time>
      </trkpt>
      <trkpt lat="44.42122" lon="2.55642">
        <ele>561</ele>
        <time>2008-09-16T08:40:35Z</time>
      </trkpt>
      <trkpt lat="44.42122" lon="2.55646">
        <ele>561</ele>
        <time>2008-09-16T08:40:35Z</time>
      </trkpt>
      <trkpt lat="44.42122" lon="2.5565">
        <ele>561</ele>
        <time>2008-09-16T08:40:36Z</time>
      </trkpt>
      <trkpt lat="44.42122" lon="2.55655">
        <ele>561</ele>
        <time>2008-09-16T08:40:36Z</time>
      </trkpt>
      <trkpt lat="44.42122" lon="2.55659">
        <ele>561</ele>
        <time>2008-09-16T08:40:37Z</time>
      </trkpt>
      <trkpt lat="44.42122" lon="2.55664">
        <ele>561</ele>
        <time>2008-09-16T08:40:37Z</time>
      </trkpt>
      <trkpt lat="44.42123" lon="2.55669">
        <ele>561</ele>
        <time>2008-09-16T08:40:38Z</time>
      </trkpt>
      <trkpt lat="44.42123" lon="2.55674">
        <ele>561</ele>
        <time>2008-09-16T08:40:38Z</time>
      </trkpt>
      <trkpt lat="44.42123" lon="2.5568">
        <ele>561</ele>
        <time>2008-09-16T08:40:39Z</time>
      </trkpt>
      <trkpt lat="44.42124" lon="2.55684">
        <ele>561</ele>
        <time>2008-09-16T08:40:39Z</time>
      </trkpt>
      <trkpt lat="44.42124" lon="2.55689">
        <ele>562</ele>
        <time>2008-09-16T08:40:40Z</time>
      </trkpt>
      <trkpt lat="44.42125" lon="2.55694">
        <ele>561</ele>
        <time>2008-09-16T08:40:41Z</time>
      </trkpt>
      <trkpt lat="44.42126" lon="2.55699">
        <ele>561</ele>
        <time>2008-09-16T08:40:41Z</time>
      </trkpt>
      <trkpt lat="44.42127" lon="2.55704">
        <ele>561</ele>
        <time>2008-09-16T08:40:42Z</time>
      </trkpt>
      <trkpt lat="44.42129" lon="2.55709">
        <ele>562</ele>
        <time>2008-09-16T08:40:42Z</time>
      </trkpt>
      <trkpt lat="44.4213" lon="2.55714">
        <ele>561</ele>
        <time>2008-09-16T08:40:43Z</time>
      </trkpt>
      <trkpt lat="44.42132" lon="2.55719">
        <ele>561</ele>
        <time>2008-09-16T08:40:44Z</time>
      </trkpt>
      <trkpt lat="44.42133" lon="2.55724">
        <ele>561</ele>
        <time>2008-09-16T08:40:44Z</time>
      </trkpt>
      <trkpt lat="44.42135" lon="2.55729">
        <ele>561</ele>
        <time>2008-09-16T08:40:45Z</time>
      </trkpt>
      <trkpt lat="44.42136" lon="2.55734">
        <ele>561</ele>
        <time>2008-09-16T08:40:45Z</time>
      </trkpt>
      <trkpt lat="44.42138" lon="2.55739">
        <ele>561</ele>
        <time>2008-09-16T08:40:46Z</time>
      </trkpt>
      <trkpt lat="44.42139" lon="2.55744">
        <ele>562</ele>
        <time>2008-09-16T08:40:47Z</time>
      </trkpt>
      <trkpt lat="44.4214" lon="2.55749">
        <ele>562</ele>
        <time>2008-09-16T08:40:47Z</time>
      </trkpt>
      <trkpt lat="44.42142" lon="2.55754">
        <ele>562</ele>
        <time>2008-09-16T08:40:48Z</time>
      </trkpt>
      <trkpt lat="44.42143" lon="2.55758">
        <ele>562</ele>
        <time>2008-09-16T08:40:48Z</time>
      </trkpt>
      <trkpt lat="44.42144" lon="2.55763">
        <ele>563</ele>
        <time>2008-09-16T08:40:49Z</time>
      </trkpt>
      <trkpt lat="44.42145" lon="2.55768">
        <ele>563</ele>
        <time>2008-09-16T08:40:50Z</time>
      </trkpt>
      <trkpt lat="44.42146" lon="2.55773">
        <ele>563</ele>
        <time>2008-09-16T08:40:50Z</time>
      </trkpt>
      <trkpt lat="44.42148" lon="2.55778">
        <ele>563</ele>
        <time>2008-09-16T08:40:51Z</time>
      </trkpt>
      <trkpt lat="44.42149" lon="2.55783">
        <ele>563</ele>
        <time>2008-09-16T08:40:51Z</time>
      </trkpt>
      <trkpt lat="44.42149" lon="2.55788">
        <ele>563</ele>
        <time>2008-09-16T08:40:52Z</time>
      </trkpt>
      <trkpt lat="44.4215" lon="2.55793">
        <ele>563</ele>
        <time>2008-09-16T08:40:53Z</time>
      </trkpt>
      <trkpt lat="44.42151" lon="2.55799">
        <ele>563</ele>
        <time>2008-09-16T08:40:53Z</time>
      </trkpt>
      <trkpt lat="44.42152" lon="2.55804">
        <ele>563</ele>
        <time>2008-09-16T08:40:54Z</time>
      </trkpt>
      <trkpt lat="44.42152" lon="2.55809">
        <ele>563</ele>
        <time>2008-09-16T08:40:55Z</time>
      </trkpt>
      <trkpt lat="44.42153" lon="2.55815">
        <ele>563</ele>
        <time>2008-09-16T08:40:55Z</time>
      </trkpt>
      <trkpt lat="44.42152" lon="2.5582">
        <ele>563</ele>
        <time>2008-09-16T08:40:56Z</time>
      </trkpt>
      <trkpt lat="44.42151" lon="2.55826">
        <ele>563</ele>
        <time>2008-09-16T08:40:56Z</time>
      </trkpt>
      <trkpt lat="44.42149" lon="2.55831">
        <ele>563</ele>
        <time>2008-09-16T08:40:57Z</time>
      </trkpt>
      <trkpt lat="44.42147" lon="2.55836">
        <ele>563</ele>
        <time>2008-09-16T08:40:58Z</time>
      </trkpt>
      <trkpt lat="44.42145" lon="2.55841">
        <ele>563</ele>
        <time>2008-09-16T08:40:58Z</time>
      </trkpt>
      <trkpt lat="44.42143" lon="2.55845">
        <ele>563</ele>
        <time>2008-09-16T08:40:59Z</time>
      </trkpt>
      <trkpt lat="44.42141" lon="2.5585">
        <ele>562</ele>
        <time>2008-09-16T08:41:00Z</time>
      </trkpt>
      <trkpt lat="44.4214" lon="2.55855">
        <ele>562</ele>
        <time>2008-09-16T08:41:00Z</time>
      </trkpt>
      <trkpt lat="44.42138" lon="2.5586">
        <ele>562</ele>
        <time>2008-09-16T08:41:01Z</time>
      </trkpt>
      <trkpt lat="44.42137" lon="2.55865">
        <ele>562</ele>
        <time>2008-09-16T08:41:01Z</time>
      </trkpt>
      <trkpt lat="44.42136" lon="2.5587">
        <ele>562</ele>
        <time>2008-09-16T08:41:02Z</time>
      </trkpt>
      <trkpt lat="44.42135" lon="2.55874">
        <ele>562</ele>
        <time>2008-09-16T08:41:03Z</time>
      </trkpt>
      <trkpt lat="44.42135" lon="2.55879">
        <ele>562</ele>
        <time>2008-09-16T08:41:03Z</time>
      </trkpt>
      <trkpt lat="44.42134" lon="2.55884">
        <ele>562</ele>
        <time>2008-09-16T08:41:04Z</time>
      </trkpt>
      <trkpt lat="44.42133" lon="2.55889">
        <ele>562</ele>
        <time>2008-09-16T08:41:04Z</time>
      </trkpt>
      <trkpt lat="44.42133" lon="2.55894">
        <ele>562</ele>
        <time>2008-09-16T08:41:05Z</time>
      </trkpt>
      <trkpt lat="44.42132" lon="2.55899">
        <ele>562</ele>
        <time>2008-09-16T08:41:06Z</time>
      </trkpt>
      <trkpt lat="44.42131" lon="2.55905">
        <ele>562</ele>
        <time>2008-09-16T08:41:06Z</time>
      </trkpt>
      <trkpt lat="44.42131" lon="2.5591">
        <ele>562</ele>
        <time>2008-09-16T08:41:07Z</time>
      </trkpt>
      <trkpt lat="44.42131" lon="2.55915">
        <ele>562</ele>
        <time>2008-09-16T08:41:07Z</time>
      </trkpt>
      <trkpt lat="44.4213" lon="2.5592">
        <ele>562</ele>
        <time>2008-09-16T08:41:08Z</time>
      </trkpt>
      <trkpt lat="44.4213" lon="2.55925">
        <ele>562</ele>
        <time>2008-09-16T08:41:09Z</time>
      </trkpt>
      <trkpt lat="44.4213" lon="2.5593">
        <ele>562</ele>
        <time>2008-09-16T08:41:09Z</time>
      </trkpt>
      <trkpt lat="44.4213" lon="2.55935">
        <ele>562</ele>
        <time>2008-09-16T08:41:10Z</time>
      </trkpt>
      <trkpt lat="44.42129" lon="2.5594">
        <ele>563</ele>
        <time>2008-09-16T08:41:10Z</time>
      </trkpt>
      <trkpt lat="44.4213" lon="2.55944">
        <ele>563</ele>
        <time>2008-09-16T08:41:11Z</time>
      </trkpt>
      <trkpt lat="44.4213" lon="2.55949">
        <ele>563</ele>
        <time>2008-09-16T08:41:11Z</time>
      </trkpt>
      <trkpt lat="44.4213" lon="2.55954">
        <ele>563</ele>
        <time>2008-09-16T08:41:12Z</time>
      </trkpt>
      <trkpt lat="44.4213" lon="2.55959">
        <ele>563</ele>
        <time>2008-09-16T08:41:12Z</time>
      </trkpt>
      <trkpt lat="44.4213" lon="2.55963">
        <ele>564</ele>
        <time>2008-09-16T08:41:13Z</time>
      </trkpt>
      <trkpt lat="44.4213" lon="2.55968">
        <ele>564</ele>
        <time>2008-09-16T08:41:13Z</time>
      </trkpt>
      <trkpt lat="44.42131" lon="2.55973">
        <ele>565</ele>
        <time>2008-09-16T08:41:14Z</time>
      </trkpt>
      <trkpt lat="44.42132" lon="2.55977">
        <ele>565</ele>
        <time>2008-09-16T08:41:14Z</time>
      </trkpt>
      <trkpt lat="44.42133" lon="2.55982">
        <ele>565</ele>
        <time>2008-09-16T08:41:15Z</time>
      </trkpt>
      <trkpt lat="44.42134" lon="2.55986">
        <ele>565</ele>
        <time>2008-09-16T08:41:16Z</time>
      </trkpt>
      <trkpt lat="44.42135" lon="2.55991">
        <ele>565</ele>
        <time>2008-09-16T08:41:16Z</time>
      </trkpt>
      <trkpt lat="44.42136" lon="2.55996">
        <ele>566</ele>
        <time>2008-09-16T08:41:17Z</time>
      </trkpt>
      <trkpt lat="44.42138" lon="2.56">
        <ele>566</ele>
        <time>2008-09-16T08:41:17Z</time>
      </trkpt>
      <trkpt lat="44.4214" lon="2.56005">
        <ele>566</ele>
        <time>2008-09-16T08:41:18Z</time>
      </trkpt>
      <trkpt lat="44.42142" lon="2.56009">
        <ele>566</ele>
        <time>2008-09-16T08:41:19Z</time>
      </trkpt>
      <trkpt lat="44.42144" lon="2.56014">
        <ele>566</ele>
        <time>2008-09-16T08:41:19Z</time>
      </trkpt>
      <trkpt lat="44.42147" lon="2.56018">
        <ele>566</ele>
        <time>2008-09-16T08:41:20Z</time>
      </trkpt>
      <trkpt lat="44.42149" lon="2.56022">
        <ele>566</ele>
        <time>2008-09-16T08:41:20Z</time>
      </trkpt>
      <trkpt lat="44.42151" lon="2.56027">
        <ele>567</ele>
        <time>2008-09-16T08:41:21Z</time>
      </trkpt>
      <trkpt lat="44.42153" lon="2.56031">
        <ele>567</ele>
        <time>2008-09-16T08:41:22Z</time>
      </trkpt>
      <trkpt lat="44.42155" lon="2.56035">
        <ele>567</ele>
        <time>2008-09-16T08:41:22Z</time>
      </trkpt>
      <trkpt lat="44.42158" lon="2.56039">
        <ele>568</ele>
        <time>2008-09-16T08:41:23Z</time>
      </trkpt>
      <trkpt lat="44.4216" lon="2.56042">
        <ele>568</ele>
        <time>2008-09-16T08:41:23Z</time>
      </trkpt>
      <trkpt lat="44.42163" lon="2.56045">
        <ele>568</ele>
        <time>2008-09-16T08:41:24Z</time>
      </trkpt>
      <trkpt lat="44.42166" lon="2.56048">
        <ele>568</ele>
        <time>2008-09-16T08:41:24Z</time>
      </trkpt>
      <trkpt lat="44.42171" lon="2.5605">
        <ele>571</ele>
        <time>2008-09-16T08:41:25Z</time>
      </trkpt>
      <trkpt lat="44.42173" lon="2.56055">
        <ele>570</ele>
        <time>2008-09-16T08:41:26Z</time>
      </trkpt>
      <trkpt lat="44.42175" lon="2.56059">
        <ele>570</ele>
        <time>2008-09-16T08:41:26Z</time>
      </trkpt>
      <trkpt lat="44.42178" lon="2.56063">
        <ele>570</ele>
        <time>2008-09-16T08:41:27Z</time>
      </trkpt>
      <trkpt lat="44.4218" lon="2.56067">
        <ele>570</ele>
        <time>2008-09-16T08:41:28Z</time>
      </trkpt>
      <trkpt lat="44.42183" lon="2.56071">
        <ele>570</ele>
        <time>2008-09-16T08:41:28Z</time>
      </trkpt>
      <trkpt lat="44.42186" lon="2.56075">
        <ele>571</ele>
        <time>2008-09-16T08:41:29Z</time>
      </trkpt>
      <trkpt lat="44.42189" lon="2.56078">
        <ele>571</ele>
        <time>2008-09-16T08:41:30Z</time>
      </trkpt>
      <trkpt lat="44.42191" lon="2.56082">
        <ele>571</ele>
        <time>2008-09-16T08:41:30Z</time>
      </trkpt>
      <trkpt lat="44.42194" lon="2.56086">
        <ele>571</ele>
        <time>2008-09-16T08:41:31Z</time>
      </trkpt>
      <trkpt lat="44.42197" lon="2.5609">
        <ele>571</ele>
        <time>2008-09-16T08:41:32Z</time>
      </trkpt>
      <trkpt lat="44.42199" lon="2.56095">
        <ele>571</ele>
        <time>2008-09-16T08:41:32Z</time>
      </trkpt>
      <trkpt lat="44.42201" lon="2.56101">
        <ele>571</ele>
        <time>2008-09-16T08:41:33Z</time>
      </trkpt>
      <trkpt lat="44.42203" lon="2.56106">
        <ele>571</ele>
        <time>2008-09-16T08:41:34Z</time>
      </trkpt>
      <trkpt lat="44.42204" lon="2.56112">
        <ele>571</ele>
        <time>2008-09-16T08:41:34Z</time>
      </trkpt>
      <trkpt lat="44.42205" lon="2.56117">
        <ele>571</ele>
        <time>2008-09-16T08:41:35Z</time>
      </trkpt>
      <trkpt lat="44.42206" lon="2.56123">
        <ele>571</ele>
        <time>2008-09-16T08:41:36Z</time>
      </trkpt>
      <trkpt lat="44.42207" lon="2.56129">
        <ele>571</ele>
        <time>2008-09-16T08:41:36Z</time>
      </trkpt>
      <trkpt lat="44.42207" lon="2.56134">
        <ele>571</ele>
        <time>2008-09-16T08:41:37Z</time>
      </trkpt>
      <trkpt lat="44.42207" lon="2.56139">
        <ele>571</ele>
        <time>2008-09-16T08:41:37Z</time>
      </trkpt>
      <trkpt lat="44.42207" lon="2.56145">
        <ele>571</ele>
        <time>2008-09-16T08:41:38Z</time>
      </trkpt>
      <trkpt lat="44.42207" lon="2.56151">
        <ele>571</ele>
        <time>2008-09-16T08:41:39Z</time>
      </trkpt>
      <trkpt lat="44.42207" lon="2.56156">
        <ele>571</ele>
        <time>2008-09-16T08:41:39Z</time>
      </trkpt>
      <trkpt lat="44.42207" lon="2.56162">
        <ele>571</ele>
        <time>2008-09-16T08:41:40Z</time>
      </trkpt>
      <trkpt lat="44.42207" lon="2.56168">
        <ele>571</ele>
        <time>2008-09-16T08:41:41Z</time>
      </trkpt>
      <trkpt lat="44.42207" lon="2.56173">
        <ele>571</ele>
        <time>2008-09-16T08:41:41Z</time>
      </trkpt>
      <trkpt lat="44.42206" lon="2.56179">
        <ele>571</ele>
        <time>2008-09-16T08:41:42Z</time>
      </trkpt>
      <trkpt lat="44.42206" lon="2.56184">
        <ele>571</ele>
        <time>2008-09-16T08:41:43Z</time>
      </trkpt>
      <trkpt lat="44.42206" lon="2.5619">
        <ele>571</ele>
        <time>2008-09-16T08:41:43Z</time>
      </trkpt>
      <trkpt lat="44.42205" lon="2.56196">
        <ele>571</ele>
        <time>2008-09-16T08:41:44Z</time>
      </trkpt>
      <trkpt lat="44.42205" lon="2.56202">
        <ele>571</ele>
        <time>2008-09-16T08:41:45Z</time>
      </trkpt>
      <trkpt lat="44.42204" lon="2.56208">
        <ele>571</ele>
        <time>2008-09-16T08:41:45Z</time>
      </trkpt>
      <trkpt lat="44.42204" lon="2.56214">
        <ele>571</ele>
        <time>2008-09-16T08:41:46Z</time>
      </trkpt>
      <trkpt lat="44.42204" lon="2.5622">
        <ele>572</ele>
        <time>2008-09-16T08:41:47Z</time>
      </trkpt>
      <trkpt lat="44.42204" lon="2.56226">
        <ele>572</ele>
        <time>2008-09-16T08:41:47Z</time>
      </trkpt>
      <trkpt lat="44.42204" lon="2.56232">
        <ele>572</ele>
        <time>2008-09-16T08:41:48Z</time>
      </trkpt>
      <trkpt lat="44.42203" lon="2.56238">
        <ele>572</ele>
        <time>2008-09-16T08:41:49Z</time>
      </trkpt>
      <trkpt lat="44.42203" lon="2.56245">
        <ele>572</ele>
        <time>2008-09-16T08:41:50Z</time>
      </trkpt>
      <trkpt lat="44.42203" lon="2.56251">
        <ele>572</ele>
        <time>2008-09-16T08:41:50Z</time>
      </trkpt>
      <trkpt lat="44.42203" lon="2.56258">
        <ele>572</ele>
        <time>2008-09-16T08:41:51Z</time>
      </trkpt>
      <trkpt lat="44.42204" lon="2.56264">
        <ele>572</ele>
        <time>2008-09-16T08:41:52Z</time>
      </trkpt>
      <trkpt lat="44.42205" lon="2.56271">
        <ele>572</ele>
        <time>2008-09-16T08:41:53Z</time>
      </trkpt>
      <trkpt lat="44.42206" lon="2.56277">
        <ele>572</ele>
        <time>2008-09-16T08:41:53Z</time>
      </trkpt>
      <trkpt lat="44.42207" lon="2.56285">
        <ele>571</ele>
        <time>2008-09-16T08:41:54Z</time>
      </trkpt>
      <trkpt lat="44.42208" lon="2.56292">
        <ele>571</ele>
        <time>2008-09-16T08:41:55Z</time>
      </trkpt>
      <trkpt lat="44.42209" lon="2.563">
        <ele>571</ele>
        <time>2008-09-16T08:41:56Z</time>
      </trkpt>
      <trkpt lat="44.42209" lon="2.56307">
        <ele>571</ele>
        <time>2008-09-16T08:41:57Z</time>
      </trkpt>
      <trkpt lat="44.42209" lon="2.56315">
        <ele>571</ele>
        <time>2008-09-16T08:41:58Z</time>
      </trkpt>
      <trkpt lat="44.42208" lon="2.56322">
        <ele>571</ele>
        <time>2008-09-16T08:41:58Z</time>
      </trkpt>
      <trkpt lat="44.42207" lon="2.56329">
        <ele>571</ele>
        <time>2008-09-16T08:41:59Z</time>
      </trkpt>
      <trkpt lat="44.42205" lon="2.56335">
        <ele>571</ele>
        <time>2008-09-16T08:42:00Z</time>
      </trkpt>
      <trkpt lat="44.42203" lon="2.56341">
        <ele>571</ele>
        <time>2008-09-16T08:42:01Z</time>
      </trkpt>
      <trkpt lat="44.42202" lon="2.56347">
        <ele>571</ele>
        <time>2008-09-16T08:42:02Z</time>
      </trkpt>
      <trkpt lat="44.42202" lon="2.56352">
        <ele>570</ele>
        <time>2008-09-16T08:42:02Z</time>
      </trkpt>
      <trkpt lat="44.42205" lon="2.56355">
        <ele>570</ele>
        <time>2008-09-16T08:42:03Z</time>
      </trkpt>
      <trkpt lat="44.42209" lon="2.56356">
        <ele>569</ele>
        <time>2008-09-16T08:42:03Z</time>
      </trkpt>
      <trkpt lat="44.42213" lon="2.56355">
        <ele>569</ele>
        <time>2008-09-16T08:42:04Z</time>
      </trkpt>
      <trkpt lat="44.42217" lon="2.56351">
        <ele>568</ele>
        <time>2008-09-16T08:42:05Z</time>
      </trkpt>
      <trkpt lat="44.42222" lon="2.56347">
        <ele>567</ele>
        <time>2008-09-16T08:42:06Z</time>
      </trkpt>
      <trkpt lat="44.42227" lon="2.56341">
        <ele>567</ele>
        <time>2008-09-16T08:42:07Z</time>
      </trkpt>
      <trkpt lat="44.42232" lon="2.56334">
        <ele>566</ele>
        <time>2008-09-16T08:42:08Z</time>
      </trkpt>
      <trkpt lat="44.42237" lon="2.56327">
        <ele>565</ele>
        <time>2008-09-16T08:42:09Z</time>
      </trkpt>
      <trkpt lat="44.42242" lon="2.5632">
        <ele>565</ele>
        <time>2008-09-16T08:42:10Z</time>
      </trkpt>
      <trkpt lat="44.42248" lon="2.56314">
        <ele>564</ele>
        <time>2008-09-16T08:42:11Z</time>
      </trkpt>
      <trkpt lat="44.42254" lon="2.56307">
        <ele>563</ele>
        <time>2008-09-16T08:42:13Z</time>
      </trkpt>
      <trkpt lat="44.4226" lon="2.56302">
        <ele>563</ele>
        <time>2008-09-16T08:42:14Z</time>
      </trkpt>
      <trkpt lat="44.42267" lon="2.56296">
        <ele>563</ele>
        <time>2008-09-16T08:42:15Z</time>
      </trkpt>
      <trkpt lat="44.42273" lon="2.56292">
        <ele>563</ele>
        <time>2008-09-16T08:42:16Z</time>
      </trkpt>
      <trkpt lat="44.42279" lon="2.56288">
        <ele>563</ele>
        <time>2008-09-16T08:42:17Z</time>
      </trkpt>
      <trkpt lat="44.42286" lon="2.56286">
        <ele>562</ele>
        <time>2008-09-16T08:42:18Z</time>
      </trkpt>
      <trkpt lat="44.42292" lon="2.56286">
        <ele>562</ele>
        <time>2008-09-16T08:42:19Z</time>
      </trkpt>
      <trkpt lat="44.42298" lon="2.56286">
        <ele>562</ele>
        <time>2008-09-16T08:42:20Z</time>
      </trkpt>
      <trkpt lat="44.42304" lon="2.56286">
        <ele>562</ele>
        <time>2008-09-16T08:42:21Z</time>
      </trkpt>
      <trkpt lat="44.42309" lon="2.56286">
        <ele>562</ele>
        <time>2008-09-16T08:42:22Z</time>
      </trkpt>
      <trkpt lat="44.42314" lon="2.56286">
        <ele>563</ele>
        <time>2008-09-16T08:42:23Z</time>
      </trkpt>
      <trkpt lat="44.4232" lon="2.56286">
        <ele>563</ele>
        <time>2008-09-16T08:42:24Z</time>
      </trkpt>
      <trkpt lat="44.42325" lon="2.56286">
        <ele>563</ele>
        <time>2008-09-16T08:42:24Z</time>
      </trkpt>
      <trkpt lat="44.4233" lon="2.56286">
        <ele>563</ele>
        <time>2008-09-16T08:42:25Z</time>
      </trkpt>
      <trkpt lat="44.42334" lon="2.56286">
        <ele>563</ele>
        <time>2008-09-16T08:42:26Z</time>
      </trkpt>
      <trkpt lat="44.42339" lon="2.56285">
        <ele>564</ele>
        <time>2008-09-16T08:42:27Z</time>
      </trkpt>
      <trkpt lat="44.42343" lon="2.56285">
        <ele>564</ele>
        <time>2008-09-16T08:42:27Z</time>
      </trkpt>
      <trkpt lat="44.42348" lon="2.56284">
        <ele>564</ele>
        <time>2008-09-16T08:42:28Z</time>
      </trkpt>
      <trkpt lat="44.42352" lon="2.56284">
        <ele>565</ele>
        <time>2008-09-16T08:42:29Z</time>
      </trkpt>
      <trkpt lat="44.42356" lon="2.56283">
        <ele>565</ele>
        <time>2008-09-16T08:42:30Z</time>
      </trkpt>
      <trkpt lat="44.42361" lon="2.56283">
        <ele>565</ele>
        <time>2008-09-16T08:42:30Z</time>
      </trkpt>
      <trkpt lat="44.42365" lon="2.56283">
        <ele>565</ele>
        <time>2008-09-16T08:42:31Z</time>
      </trkpt>
      <trkpt lat="44.4237" lon="2.56282">
        <ele>566</ele>
        <time>2008-09-16T08:42:32Z</time>
      </trkpt>
      <trkpt lat="44.42374" lon="2.56282">
        <ele>566</ele>
        <time>2008-09-16T08:42:32Z</time>
      </trkpt>
      <trkpt lat="44.42379" lon="2.56282">
        <ele>566</ele>
        <time>2008-09-16T08:42:33Z</time>
      </trkpt>
      <trkpt lat="44.42383" lon="2.56282">
        <ele>567</ele>
        <time>2008-09-16T08:42:34Z</time>
      </trkpt>
      <trkpt lat="44.42388" lon="2.56281">
        <ele>567</ele>
        <time>2008-09-16T08:42:35Z</time>
      </trkpt>
      <trkpt lat="44.42392" lon="2.56281">
        <ele>567</ele>
        <time>2008-09-16T08:42:35Z</time>
      </trkpt>
      <trkpt lat="44.42396" lon="2.56282">
        <ele>567</ele>
        <time>2008-09-16T08:42:36Z</time>
      </trkpt>
      <trkpt lat="44.424" lon="2.56282">
        <ele>568</ele>
        <time>2008-09-16T08:42:37Z</time>
      </trkpt>
      <trkpt lat="44.42405" lon="2.56282">
        <ele>568</ele>
        <time>2008-09-16T08:42:37Z</time>
      </trkpt>
      <trkpt lat="44.42409" lon="2.56282">
        <ele>568</ele>
        <time>2008-09-16T08:42:38Z</time>
      </trkpt>
      <trkpt lat="44.42413" lon="2.56282">
        <ele>568</ele>
        <time>2008-09-16T08:42:39Z</time>
      </trkpt>
      <trkpt lat="44.42418" lon="2.56283">
        <ele>568</ele>
        <time>2008-09-16T08:42:39Z</time>
      </trkpt>
      <trkpt lat="44.42422" lon="2.56284">
        <ele>569</ele>
        <time>2008-09-16T08:42:40Z</time>
      </trkpt>
      <trkpt lat="44.42426" lon="2.56284">
        <ele>569</ele>
        <time>2008-09-16T08:42:41Z</time>
      </trkpt>
      <trkpt lat="44.42431" lon="2.56285">
        <ele>569</ele>
        <time>2008-09-16T08:42:42Z</time>
      </trkpt>
      <trkpt lat="44.42435" lon="2.56286">
        <ele>569</ele>
        <time>2008-09-16T08:42:42Z</time>
      </trkpt>
      <trkpt lat="44.42439" lon="2.56287">
        <ele>570</ele>
        <time>2008-09-16T08:42:43Z</time>
      </trkpt>
      <trkpt lat="44.42443" lon="2.56288">
        <ele>570</ele>
        <time>2008-09-16T08:42:44Z</time>
      </trkpt>
      <trkpt lat="44.42447" lon="2.56289">
        <ele>570</ele>
        <time>2008-09-16T08:42:44Z</time>
      </trkpt>
      <trkpt lat="44.42451" lon="2.5629">
        <ele>570</ele>
        <time>2008-09-16T08:42:45Z</time>
      </trkpt>
      <trkpt lat="44.42456" lon="2.56291">
        <ele>570</ele>
        <time>2008-09-16T08:42:46Z</time>
      </trkpt>
      <trkpt lat="44.4246" lon="2.56292">
        <ele>570</ele>
        <time>2008-09-16T08:42:46Z</time>
      </trkpt>
      <trkpt lat="44.42464" lon="2.56293">
        <ele>570</ele>
        <time>2008-09-16T08:42:47Z</time>
      </trkpt>
      <trkpt lat="44.42469" lon="2.56293">
        <ele>571</ele>
        <time>2008-09-16T08:42:48Z</time>
      </trkpt>
      <trkpt lat="44.42474" lon="2.56294">
        <ele>571</ele>
        <time>2008-09-16T08:42:48Z</time>
      </trkpt>
      <trkpt lat="44.42478" lon="2.56294">
        <ele>571</ele>
        <time>2008-09-16T08:42:49Z</time>
      </trkpt>
      <trkpt lat="44.42482" lon="2.56294">
        <ele>571</ele>
        <time>2008-09-16T08:42:50Z</time>
      </trkpt>
      <trkpt lat="44.42486" lon="2.56294">
        <ele>570</ele>
        <time>2008-09-16T08:42:50Z</time>
      </trkpt>
      <trkpt lat="44.4249" lon="2.56294">
        <ele>570</ele>
        <time>2008-09-16T08:42:51Z</time>
      </trkpt>
      <trkpt lat="44.42494" lon="2.56294">
        <ele>570</ele>
        <time>2008-09-16T08:42:52Z</time>
      </trkpt>
      <trkpt lat="44.42498" lon="2.56294">
        <ele>570</ele>
        <time>2008-09-16T08:42:52Z</time>
      </trkpt>
      <trkpt lat="44.42502" lon="2.56293">
        <ele>570</ele>
        <time>2008-09-16T08:42:53Z</time>
      </trkpt>
      <trkpt lat="44.42506" lon="2.56293">
        <ele>570</ele>
        <time>2008-09-16T08:42:54Z</time>
      </trkpt>
      <trkpt lat="44.4251" lon="2.56293">
        <ele>570</ele>
        <time>2008-09-16T08:42:54Z</time>
      </trkpt>
      <trkpt lat="44.42515" lon="2.56293">
        <ele>569</ele>
        <time>2008-09-16T08:42:55Z</time>
      </trkpt>
      <trkpt lat="44.42519" lon="2.56293">
        <ele>569</ele>
        <time>2008-09-16T08:42:56Z</time>
      </trkpt>
      <trkpt lat="44.42524" lon="2.56293">
        <ele>569</ele>
        <time>2008-09-16T08:42:57Z</time>
      </trkpt>
      <trkpt lat="44.42529" lon="2.56293">
        <ele>569</ele>
        <time>2008-09-16T08:42:57Z</time>
      </trkpt>
      <trkpt lat="44.42534" lon="2.56293">
        <ele>568</ele>
        <time>2008-09-16T08:42:58Z</time>
      </trkpt>
      <trkpt lat="44.42539" lon="2.56293">
        <ele>568</ele>
        <time>2008-09-16T08:42:59Z</time>
      </trkpt>
      <trkpt lat="44.42544" lon="2.56293">
        <ele>568</ele>
        <time>2008-09-16T08:43:00Z</time>
      </trkpt>
      <trkpt lat="44.4255" lon="2.56293">
        <ele>567</ele>
        <time>2008-09-16T08:43:01Z</time>
      </trkpt>
      <trkpt lat="44.42555" lon="2.56293">
        <ele>567</ele>
        <time>2008-09-16T08:43:02Z</time>
      </trkpt>
      <trkpt lat="44.42561" lon="2.56292">
        <ele>567</ele>
        <time>2008-09-16T08:43:02Z</time>
      </trkpt>
      <trkpt lat="44.42566" lon="2.5629">
        <ele>566</ele>
        <time>2008-09-16T08:43:03Z</time>
      </trkpt>
      <trkpt lat="44.42571" lon="2.56287">
        <ele>566</ele>
        <time>2008-09-16T08:43:04Z</time>
      </trkpt>
      <trkpt lat="44.42576" lon="2.56282">
        <ele>565</ele>
        <time>2008-09-16T08:43:05Z</time>
      </trkpt>
      <trkpt lat="44.42581" lon="2.56277">
        <ele>565</ele>
        <time>2008-09-16T08:43:06Z</time>
      </trkpt>
      <trkpt lat="44.42586" lon="2.56272">
        <ele>565</ele>
        <time>2008-09-16T08:43:07Z</time>
      </trkpt>
      <trkpt lat="44.42591" lon="2.56268">
        <ele>564</ele>
        <time>2008-09-16T08:43:08Z</time>
      </trkpt>
      <trkpt lat="44.42596" lon="2.56263">
        <ele>564</ele>
        <time>2008-09-16T08:43:09Z</time>
      </trkpt>
      <trkpt lat="44.42601" lon="2.56258">
        <ele>564</ele>
        <time>2008-09-16T08:43:10Z</time>
      </trkpt>
      <trkpt lat="44.42606" lon="2.56254">
        <ele>564</ele>
        <time>2008-09-16T08:43:11Z</time>
      </trkpt>
      <trkpt lat="44.42611" lon="2.56251">
        <ele>564</ele>
        <time>2008-09-16T08:43:12Z</time>
      </trkpt>
      <trkpt lat="44.42617" lon="2.5625">
        <ele>564</ele>
        <time>2008-09-16T08:43:13Z</time>
      </trkpt>
      <trkpt lat="44.42622" lon="2.56249">
        <ele>564</ele>
        <time>2008-09-16T08:43:14Z</time>
      </trkpt>
      <trkpt lat="44.42627" lon="2.56249">
        <ele>564</ele>
        <time>2008-09-16T08:43:14Z</time>
      </trkpt>
      <trkpt lat="44.42632" lon="2.56249">
        <ele>565</ele>
        <time>2008-09-16T08:43:15Z</time>
      </trkpt>
      <trkpt lat="44.42636" lon="2.56249">
        <ele>565</ele>
        <time>2008-09-16T08:43:16Z</time>
      </trkpt>
      <trkpt lat="44.4264" lon="2.56249">
        <ele>566</ele>
        <time>2008-09-16T08:43:16Z</time>
      </trkpt>
      <trkpt lat="44.42644" lon="2.5625">
        <ele>566</ele>
        <time>2008-09-16T08:43:17Z</time>
      </trkpt>
      <trkpt lat="44.42647" lon="2.5625">
        <ele>566</ele>
        <time>2008-09-16T08:43:18Z</time>
      </trkpt>
      <trkpt lat="44.42652" lon="2.5625">
        <ele>567</ele>
        <time>2008-09-16T08:43:18Z</time>
      </trkpt>
      <trkpt lat="44.42656" lon="2.56251">
        <ele>567</ele>
        <time>2008-09-16T08:43:19Z</time>
      </trkpt>
      <trkpt lat="44.4266" lon="2.56251">
        <ele>567</ele>
        <time>2008-09-16T08:43:20Z</time>
      </trkpt>
      <trkpt lat="44.42663" lon="2.56251">
        <ele>568</ele>
        <time>2008-09-16T08:43:20Z</time>
      </trkpt>
      <trkpt lat="44.42667" lon="2.56252">
        <ele>568</ele>
        <time>2008-09-16T08:43:21Z</time>
      </trkpt>
      <trkpt lat="44.42671" lon="2.56253">
        <ele>568</ele>
        <time>2008-09-16T08:43:21Z</time>
      </trkpt>
      <trkpt lat="44.42675" lon="2.56253">
        <ele>569</ele>
        <time>2008-09-16T08:43:22Z</time>
      </trkpt>
      <trkpt lat="44.42678" lon="2.56253">
        <ele>569</ele>
        <time>2008-09-16T08:43:23Z</time>
      </trkpt>
      <trkpt lat="44.42682" lon="2.56253">
        <ele>569</ele>
        <time>2008-09-16T08:43:23Z</time>
      </trkpt>
      <trkpt lat="44.42686" lon="2.56254">
        <ele>569</ele>
        <time>2008-09-16T08:43:24Z</time>
      </trkpt>
      <trkpt lat="44.4269" lon="2.56254">
        <ele>570</ele>
        <time>2008-09-16T08:43:24Z</time>
      </trkpt>
      <trkpt lat="44.42693" lon="2.56254">
        <ele>570</ele>
        <time>2008-09-16T08:43:25Z</time>
      </trkpt>
      <trkpt lat="44.42697" lon="2.56255">
        <ele>570</ele>
        <time>2008-09-16T08:43:26Z</time>
      </trkpt>
      <trkpt lat="44.42701" lon="2.56255">
        <ele>570</ele>
        <time>2008-09-16T08:43:26Z</time>
      </trkpt>
      <trkpt lat="44.42704" lon="2.56256">
        <ele>570</ele>
        <time>2008-09-16T08:43:27Z</time>
      </trkpt>
      <trkpt lat="44.42708" lon="2.56256">
        <ele>571</ele>
        <time>2008-09-16T08:43:27Z</time>
      </trkpt>
      <trkpt lat="44.42712" lon="2.56256">
        <ele>571</ele>
        <time>2008-09-16T08:43:28Z</time>
      </trkpt>
      <trkpt lat="44.42716" lon="2.56257">
        <ele>571</ele>
        <time>2008-09-16T08:43:29Z</time>
      </trkpt>
      <trkpt lat="44.42719" lon="2.56258">
        <ele>571</ele>
        <time>2008-09-16T08:43:29Z</time>
      </trkpt>
      <trkpt lat="44.42723" lon="2.56258">
        <ele>571</ele>
        <time>2008-09-16T08:43:30Z</time>
      </trkpt>
      <trkpt lat="44.42727" lon="2.5626">
        <ele>571</ele>
        <time>2008-09-16T08:43:30Z</time>
      </trkpt>
      <trkpt lat="44.42731" lon="2.56261">
        <ele>571</ele>
        <time>2008-09-16T08:43:31Z</time>
      </trkpt>
      <trkpt lat="44.42735" lon="2.56262">
        <ele>571</ele>
        <time>2008-09-16T08:43:32Z</time>
      </trkpt>
      <trkpt lat="44.42739" lon="2.56263">
        <ele>571</ele>
        <time>2008-09-16T08:43:32Z</time>
      </trkpt>
      <trkpt lat="44.42742" lon="2.56265">
        <ele>571</ele>
        <time>2008-09-16T08:43:33Z</time>
      </trkpt>
      <trkpt lat="44.42745" lon="2.56268">
        <ele>572</ele>
        <time>2008-09-16T08:43:34Z</time>
      </trkpt>
      <trkpt lat="44.42747" lon="2.56271">
        <ele>571</ele>
        <time>2008-09-16T08:43:34Z</time>
      </trkpt>
      <trkpt lat="44.42748" lon="2.56276">
        <ele>571</ele>
        <time>2008-09-16T08:43:35Z</time>
      </trkpt>
      <trkpt lat="44.42747" lon="2.56281">
        <ele>571</ele>
        <time>2008-09-16T08:43:35Z</time>
      </trkpt>
      <trkpt lat="44.42745" lon="2.56286">
        <ele>571</ele>
        <time>2008-09-16T08:43:36Z</time>
      </trkpt>
      <trkpt lat="44.42743" lon="2.56291">
        <ele>571</ele>
        <time>2008-09-16T08:43:37Z</time>
      </trkpt>
      <trkpt lat="44.4274" lon="2.56296">
        <ele>571</ele>
        <time>2008-09-16T08:43:37Z</time>
      </trkpt>
      <trkpt lat="44.42737" lon="2.56302">
        <ele>571</ele>
        <time>2008-09-16T08:43:38Z</time>
      </trkpt>
      <trkpt lat="44.42733" lon="2.56307">
        <ele>571</ele>
        <time>2008-09-16T08:43:39Z</time>
      </trkpt>
      <trkpt lat="44.4273" lon="2.56312">
        <ele>570</ele>
        <time>2008-09-16T08:43:40Z</time>
      </trkpt>
      <trkpt lat="44.42727" lon="2.56318">
        <ele>570</ele>
        <time>2008-09-16T08:43:41Z</time>
      </trkpt>
      <trkpt lat="44.42723" lon="2.56324">
        <ele>570</ele>
        <time>2008-09-16T08:43:41Z</time>
      </trkpt>
      <trkpt lat="44.4272" lon="2.56331">
        <ele>570</ele>
        <time>2008-09-16T08:43:42Z</time>
      </trkpt>
      <trkpt lat="44.42717" lon="2.56338">
        <ele>570</ele>
        <time>2008-09-16T08:43:43Z</time>
      </trkpt>
      <trkpt lat="44.42713" lon="2.56344">
        <ele>569</ele>
        <time>2008-09-16T08:43:44Z</time>
      </trkpt>
      <trkpt lat="44.42709" lon="2.56349">
        <ele>569</ele>
        <time>2008-09-16T08:43:45Z</time>
      </trkpt>
      <trkpt lat="44.42704" lon="2.56355">
        <ele>569</ele>
        <time>2008-09-16T08:43:46Z</time>
      </trkpt>
      <trkpt lat="44.42699" lon="2.5636">
        <ele>569</ele>
        <time>2008-09-16T08:43:47Z</time>
      </trkpt>
      <trkpt lat="44.42694" lon="2.56366">
        <ele>568</ele>
        <time>2008-09-16T08:43:48Z</time>
      </trkpt>
      <trkpt lat="44.42689" lon="2.56373">
        <ele>568</ele>
        <time>2008-09-16T08:43:49Z</time>
      </trkpt>
      <trkpt lat="44.42685" lon="2.56379">
        <ele>568</ele>
        <time>2008-09-16T08:43:50Z</time>
      </trkpt>
      <trkpt lat="44.4268" lon="2.56386">
        <ele>567</ele>
        <time>2008-09-16T08:43:51Z</time>
      </trkpt>
      <trkpt lat="44.42675" lon="2.56393">
        <ele>567</ele>
        <time>2008-09-16T08:43:53Z</time>
      </trkpt>
      <trkpt lat="44.4267" lon="2.564">
        <ele>567</ele>
        <time>2008-09-16T08:43:54Z</time>
      </trkpt>
      <trkpt lat="44.42665" lon="2.56406">
        <ele>566</ele>
        <time>2008-09-16T08:43:55Z</time>
      </trkpt>
      <trkpt lat="44.4266" lon="2.56413">
        <ele>566</ele>
        <time>2008-09-16T08:43:56Z</time>
      </trkpt>
      <trkpt lat="44.42656" lon="2.56419">
        <ele>566</ele>
        <time>2008-09-16T08:43:57Z</time>
      </trkpt>
      <trkpt lat="44.42651" lon="2.56425">
        <ele>566</ele>
        <time>2008-09-16T08:43:58Z</time>
      </trkpt>
      <trkpt lat="44.42647" lon="2.56431">
        <ele>566</ele>
        <time>2008-09-16T08:43:59Z</time>
      </trkpt>
      <trkpt lat="44.42643" lon="2.56437">
        <ele>566</ele>
        <time>2008-09-16T08:44:00Z</time>
      </trkpt>
      <trkpt lat="44.42639" lon="2.56443">
        <ele>566</ele>
        <time>2008-09-16T08:44:01Z</time>
      </trkpt>
      <trkpt lat="44.42635" lon="2.56447">
        <ele>566</ele>
        <time>2008-09-16T08:44:02Z</time>
      </trkpt>
      <trkpt lat="44.4263" lon="2.56452">
        <ele>566</ele>
        <time>2008-09-16T08:44:02Z</time>
      </trkpt>
      <trkpt lat="44.42625" lon="2.56457">
        <ele>566</ele>
        <time>2008-09-16T08:44:03Z</time>
      </trkpt>
      <trkpt lat="44.42621" lon="2.56461">
        <ele>567</ele>
        <time>2008-09-16T08:44:04Z</time>
      </trkpt>
      <trkpt lat="44.42616" lon="2.56466">
        <ele>567</ele>
        <time>2008-09-16T08:44:05Z</time>
      </trkpt>
      <trkpt lat="44.42611" lon="2.5647">
        <ele>567</ele>
        <time>2008-09-16T08:44:06Z</time>
      </trkpt>
      <trkpt lat="44.42607" lon="2.56475">
        <ele>567</ele>
        <time>2008-09-16T08:44:07Z</time>
      </trkpt>
      <trkpt lat="44.42603" lon="2.56479">
        <ele>567</ele>
        <time>2008-09-16T08:44:08Z</time>
      </trkpt>
      <trkpt lat="44.42598" lon="2.56483">
        <ele>567</ele>
        <time>2008-09-16T08:44:09Z</time>
      </trkpt>
      <trkpt lat="44.42594" lon="2.56488">
        <ele>567</ele>
        <time>2008-09-16T08:44:10Z</time>
      </trkpt>
      <trkpt lat="44.4259" lon="2.56492">
        <ele>567</ele>
        <time>2008-09-16T08:44:10Z</time>
      </trkpt>
      <trkpt lat="44.42586" lon="2.56497">
        <ele>568</ele>
        <time>2008-09-16T08:44:11Z</time>
      </trkpt>
      <trkpt lat="44.42582" lon="2.56502">
        <ele>568</ele>
        <time>2008-09-16T08:44:12Z</time>
      </trkpt>
      <trkpt lat="44.42578" lon="2.56506">
        <ele>568</ele>
        <time>2008-09-16T08:44:13Z</time>
      </trkpt>
      <trkpt lat="44.42573" lon="2.56511">
        <ele>568</ele>
        <time>2008-09-16T08:44:14Z</time>
      </trkpt>
      <trkpt lat="44.42569" lon="2.56516">
        <ele>568</ele>
        <time>2008-09-16T08:44:15Z</time>
      </trkpt>
      <trkpt lat="44.42565" lon="2.56521">
        <ele>568</ele>
        <time>2008-09-16T08:44:16Z</time>
      </trkpt>
      <trkpt lat="44.4256" lon="2.56526">
        <ele>568</ele>
        <time>2008-09-16T08:44:16Z</time>
      </trkpt>
      <trkpt lat="44.42556" lon="2.56531">
        <ele>568</ele>
        <time>2008-09-16T08:44:17Z</time>
      </trkpt>
      <trkpt lat="44.42552" lon="2.56537">
        <ele>569</ele>
        <time>2008-09-16T08:44:18Z</time>
      </trkpt>
      <trkpt lat="44.42548" lon="2.56542">
        <ele>569</ele>
        <time>2008-09-16T08:44:19Z</time>
      </trkpt>
      <trkpt lat="44.42545" lon="2.56548">
        <ele>569</ele>
        <time>2008-09-16T08:44:20Z</time>
      </trkpt>
      <trkpt lat="44.42541" lon="2.56553">
        <ele>569</ele>
        <time>2008-09-16T08:44:21Z</time>
      </trkpt>
      <trkpt lat="44.42537" lon="2.56559">
        <ele>569</ele>
        <time>2008-09-16T08:44:22Z</time>
      </trkpt>
      <trkpt lat="44.42534" lon="2.56565">
        <ele>568</ele>
        <time>2008-09-16T08:44:23Z</time>
      </trkpt>
      <trkpt lat="44.4253" lon="2.56571">
        <ele>568</ele>
        <time>2008-09-16T08:44:24Z</time>
      </trkpt>
      <trkpt lat="44.42526" lon="2.56577">
        <ele>568</ele>
        <time>2008-09-16T08:44:25Z</time>
      </trkpt>
      <trkpt lat="44.42521" lon="2.56583">
        <ele>567</ele>
        <time>2008-09-16T08:44:26Z</time>
      </trkpt>
      <trkpt lat="44.42517" lon="2.56589">
        <ele>567</ele>
        <time>2008-09-16T08:44:26Z</time>
      </trkpt>
      <trkpt lat="44.42513" lon="2.56595">
        <ele>567</ele>
        <time>2008-09-16T08:44:27Z</time>
      </trkpt>
      <trkpt lat="44.4251" lon="2.56601">
        <ele>566</ele>
        <time>2008-09-16T08:44:28Z</time>
      </trkpt>
      <trkpt lat="44.42508" lon="2.56606">
        <ele>566</ele>
        <time>2008-09-16T08:44:29Z</time>
      </trkpt>
      <trkpt lat="44.42508" lon="2.56611">
        <ele>566</ele>
        <time>2008-09-16T08:44:30Z</time>
      </trkpt>
      <trkpt lat="44.42509" lon="2.56616">
        <ele>566</ele>
        <time>2008-09-16T08:44:30Z</time>
      </trkpt>
      <trkpt lat="44.42512" lon="2.5662">
        <ele>566</ele>
        <time>2008-09-16T08:44:31Z</time>
      </trkpt>
      <trkpt lat="44.42516" lon="2.56622">
        <ele>567</ele>
        <time>2008-09-16T08:44:31Z</time>
      </trkpt>
      <trkpt lat="44.4252" lon="2.56624">
        <ele>567</ele>
        <time>2008-09-16T08:44:32Z</time>
      </trkpt>
      <trkpt lat="44.42524" lon="2.56626">
        <ele>567</ele>
        <time>2008-09-16T08:44:33Z</time>
      </trkpt>
      <trkpt lat="44.42528" lon="2.56627">
        <ele>567</ele>
        <time>2008-09-16T08:44:33Z</time>
      </trkpt>
      <trkpt lat="44.42532" lon="2.56628">
        <ele>568</ele>
        <time>2008-09-16T08:44:34Z</time>
      </trkpt>
      <trkpt lat="44.42536" lon="2.56629">
        <ele>568</ele>
        <time>2008-09-16T08:44:35Z</time>
      </trkpt>
      <trkpt lat="44.42539" lon="2.56631">
        <ele>568</ele>
        <time>2008-09-16T08:44:35Z</time>
      </trkpt>
      <trkpt lat="44.42543" lon="2.56632">
        <ele>568</ele>
        <time>2008-09-16T08:44:36Z</time>
      </trkpt>
      <trkpt lat="44.42546" lon="2.56633">
        <ele>569</ele>
        <time>2008-09-16T08:44:36Z</time>
      </trkpt>
      <trkpt lat="44.42549" lon="2.56634">
        <ele>569</ele>
        <time>2008-09-16T08:44:37Z</time>
      </trkpt>
      <trkpt lat="44.42552" lon="2.56635">
        <ele>569</ele>
        <time>2008-09-16T08:44:37Z</time>
      </trkpt>
      <trkpt lat="44.42555" lon="2.56637">
        <ele>569</ele>
        <time>2008-09-16T08:44:38Z</time>
      </trkpt>
      <trkpt lat="44.42558" lon="2.56638">
        <ele>569</ele>
        <time>2008-09-16T08:44:38Z</time>
      </trkpt>
      <trkpt lat="44.42562" lon="2.56639">
        <ele>569</ele>
        <time>2008-09-16T08:44:39Z</time>
      </trkpt>
      <trkpt lat="44.42565" lon="2.56641">
        <ele>569</ele>
        <time>2008-09-16T08:44:40Z</time>
      </trkpt>
      <trkpt lat="44.42568" lon="2.56642">
        <ele>569</ele>
        <time>2008-09-16T08:44:40Z</time>
      </trkpt>
      <trkpt lat="44.42572" lon="2.56643">
        <ele>570</ele>
        <time>2008-09-16T08:44:41Z</time>
      </trkpt>
      <trkpt lat="44.42575" lon="2.56644">
        <ele>570</ele>
        <time>2008-09-16T08:44:41Z</time>
      </trkpt>
      <trkpt lat="44.42579" lon="2.56646">
        <ele>570</ele>
        <time>2008-09-16T08:44:42Z</time>
      </trkpt>
      <trkpt lat="44.42583" lon="2.56647">
        <ele>570</ele>
        <time>2008-09-16T08:44:43Z</time>
      </trkpt>
      <trkpt lat="44.42586" lon="2.56648">
        <ele>570</ele>
        <time>2008-09-16T08:44:43Z</time>
      </trkpt>
      <trkpt lat="44.4259" lon="2.5665">
        <ele>570</ele>
        <time>2008-09-16T08:44:44Z</time>
      </trkpt>
      <trkpt lat="44.42592" lon="2.56654">
        <ele>571</ele>
        <time>2008-09-16T08:44:44Z</time>
      </trkpt>
      <trkpt lat="44.42593" lon="2.56659">
        <ele>571</ele>
        <time>2008-09-16T08:44:45Z</time>
      </trkpt>
      <trkpt lat="44.42592" lon="2.56665">
        <ele>571</ele>
        <time>2008-09-16T08:44:46Z</time>
      </trkpt>
      <trkpt lat="44.42591" lon="2.56672">
        <ele>571</ele>
        <time>2008-09-16T08:44:46Z</time>
      </trkpt>
      <trkpt lat="44.4259" lon="2.56678">
        <ele>571</ele>
        <time>2008-09-16T08:44:47Z</time>
      </trkpt>
      <trkpt lat="44.42589" lon="2.56685">
        <ele>571</ele>
        <time>2008-09-16T08:44:48Z</time>
      </trkpt>
      <trkpt lat="44.42587" lon="2.56691">
        <ele>571</ele>
        <time>2008-09-16T08:44:49Z</time>
      </trkpt>
      <trkpt lat="44.42586" lon="2.56697">
        <ele>571</ele>
        <time>2008-09-16T08:44:49Z</time>
      </trkpt>
      <trkpt lat="44.42584" lon="2.56702">
        <ele>571</ele>
        <time>2008-09-16T08:44:50Z</time>
      </trkpt>
      <trkpt lat="44.42582" lon="2.56709">
        <ele>571</ele>
        <time>2008-09-16T08:44:51Z</time>
      </trkpt>
      <trkpt lat="44.42581" lon="2.56716">
        <ele>571</ele>
        <time>2008-09-16T08:44:52Z</time>
      </trkpt>
      <trkpt lat="44.4258" lon="2.56722">
        <ele>571</ele>
        <time>2008-09-16T08:44:52Z</time>
      </trkpt>
      <trkpt lat="44.42578" lon="2.56729">
        <ele>571</ele>
        <time>2008-09-16T08:44:53Z</time>
      </trkpt>
      <trkpt lat="44.42577" lon="2.56735">
        <ele>571</ele>
        <time>2008-09-16T08:44:54Z</time>
      </trkpt>
      <trkpt lat="44.42575" lon="2.56742">
        <ele>571</ele>
        <time>2008-09-16T08:44:55Z</time>
      </trkpt>
      <trkpt lat="44.42573" lon="2.56749">
        <ele>571</ele>
        <time>2008-09-16T08:44:56Z</time>
      </trkpt>
      <trkpt lat="44.42571" lon="2.56756">
        <ele>571</ele>
        <time>2008-09-16T08:44:57Z</time>
      </trkpt>
      <trkpt lat="44.42569" lon="2.56763">
        <ele>571</ele>
        <time>2008-09-16T08:44:57Z</time>
      </trkpt>
      <trkpt lat="44.42567" lon="2.5677">
        <ele>571</ele>
        <time>2008-09-16T08:44:58Z</time>
      </trkpt>
      <trkpt lat="44.42565" lon="2.56777">
        <ele>571</ele>
        <time>2008-09-16T08:44:59Z</time>
      </trkpt>
      <trkpt lat="44.42563" lon="2.56784">
        <ele>571</ele>
        <time>2008-09-16T08:45:00Z</time>
      </trkpt>
      <trkpt lat="44.42561" lon="2.56791">
        <ele>571</ele>
        <time>2008-09-16T08:45:01Z</time>
      </trkpt>
      <trkpt lat="44.42559" lon="2.56798">
        <ele>571</ele>
        <time>2008-09-16T08:45:02Z</time>
      </trkpt>
      <trkpt lat="44.42557" lon="2.56805">
        <ele>571</ele>
        <time>2008-09-16T08:45:03Z</time>
      </trkpt>
      <trkpt lat="44.42554" lon="2.56812">
        <ele>571</ele>
        <time>2008-09-16T08:45:03Z</time>
      </trkpt>
      <trkpt lat="44.42552" lon="2.56819">
        <ele>571</ele>
        <time>2008-09-16T08:45:04Z</time>
      </trkpt>
      <trkpt lat="44.4255" lon="2.56826">
        <ele>571</ele>
        <time>2008-09-16T08:45:05Z</time>
      </trkpt>
      <trkpt lat="44.42548" lon="2.56832">
        <ele>570</ele>
        <time>2008-09-16T08:45:06Z</time>
      </trkpt>
      <trkpt lat="44.42545" lon="2.56839">
        <ele>570</ele>
        <time>2008-09-16T08:45:07Z</time>
      </trkpt>
      <trkpt lat="44.42543" lon="2.56846">
        <ele>569</ele>
        <time>2008-09-16T08:45:08Z</time>
      </trkpt>
      <trkpt lat="44.42541" lon="2.56852">
        <ele>569</ele>
        <time>2008-09-16T08:45:08Z</time>
      </trkpt>
      <trkpt lat="44.4254" lon="2.56856">
        <ele>569</ele>
        <time>2008-09-16T08:45:09Z</time>
      </trkpt>
      <trkpt lat="44.42539" lon="2.56859">
        <ele>569</ele>
        <time>2008-09-16T08:45:09Z</time>
      </trkpt>
      <trkpt lat="44.42537" lon="2.5686">
        <ele>569</ele>
        <time>2008-09-16T08:45:10Z</time>
      </trkpt>
      <trkpt lat="44.42534" lon="2.56858">
        <ele>569</ele>
        <time>2008-09-16T08:45:10Z</time>
      </trkpt>
      <trkpt lat="44.42532" lon="2.56854">
        <ele>569</ele>
        <time>2008-09-16T08:45:11Z</time>
      </trkpt>
      <trkpt lat="44.4253" lon="2.56849">
        <ele>569</ele>
        <time>2008-09-16T08:45:11Z</time>
      </trkpt>
      <trkpt lat="44.42527" lon="2.56843">
        <ele>569</ele>
        <time>2008-09-16T08:45:12Z</time>
      </trkpt>
      <trkpt lat="44.42524" lon="2.56838">
        <ele>568</ele>
        <time>2008-09-16T08:45:13Z</time>
      </trkpt>
      <trkpt lat="44.42521" lon="2.56832">
        <ele>568</ele>
        <time>2008-09-16T08:45:14Z</time>
      </trkpt>
      <trkpt lat="44.42517" lon="2.56826">
        <ele>568</ele>
        <time>2008-09-16T08:45:15Z</time>
      </trkpt>
      <trkpt lat="44.42513" lon="2.56821">
        <ele>568</ele>
        <time>2008-09-16T08:45:16Z</time>
      </trkpt>
      <trkpt lat="44.4251" lon="2.56815">
        <ele>568</ele>
        <time>2008-09-16T08:45:16Z</time>
      </trkpt>
      <trkpt lat="44.42506" lon="2.5681">
        <ele>567</ele>
        <time>2008-09-16T08:45:17Z</time>
      </trkpt>
      <trkpt lat="44.42502" lon="2.56804">
        <ele>567</ele>
        <time>2008-09-16T08:45:18Z</time>
      </trkpt>
      <trkpt lat="44.42498" lon="2.56798">
        <ele>567</ele>
        <time>2008-09-16T08:45:19Z</time>
      </trkpt>
      <trkpt lat="44.42493" lon="2.56792">
        <ele>567</ele>
        <time>2008-09-16T08:45:20Z</time>
      </trkpt>
      <trkpt lat="44.42489" lon="2.56786">
        <ele>566</ele>
        <time>2008-09-16T08:45:21Z</time>
      </trkpt>
      <trkpt lat="44.42485" lon="2.5678">
        <ele>566</ele>
        <time>2008-09-16T08:45:22Z</time>
      </trkpt>
      <trkpt lat="44.42481" lon="2.56774">
        <ele>566</ele>
        <time>2008-09-16T08:45:23Z</time>
      </trkpt>
      <trkpt lat="44.42477" lon="2.56769">
        <ele>566</ele>
        <time>2008-09-16T08:45:24Z</time>
      </trkpt>
      <trkpt lat="44.42472" lon="2.56763">
        <ele>566</ele>
        <time>2008-09-16T08:45:25Z</time>
      </trkpt>
      <trkpt lat="44.42467" lon="2.56759">
        <ele>566</ele>
        <time>2008-09-16T08:45:26Z</time>
      </trkpt>
      <trkpt lat="44.42462" lon="2.56755">
        <ele>566</ele>
        <time>2008-09-16T08:45:27Z</time>
      </trkpt>
      <trkpt lat="44.42457" lon="2.56751">
        <ele>566</ele>
        <time>2008-09-16T08:45:28Z</time>
      </trkpt>
      <trkpt lat="44.42452" lon="2.56748">
        <ele>566</ele>
        <time>2008-09-16T08:45:29Z</time>
      </trkpt>
      <trkpt lat="44.42447" lon="2.56745">
        <ele>567</ele>
        <time>2008-09-16T08:45:29Z</time>
      </trkpt>
      <trkpt lat="44.42443" lon="2.56742">
        <ele>567</ele>
        <time>2008-09-16T08:45:30Z</time>
      </trkpt>
      <trkpt lat="44.42438" lon="2.5674">
        <ele>567</ele>
        <time>2008-09-16T08:45:31Z</time>
      </trkpt>
      <trkpt lat="44.42434" lon="2.56737">
        <ele>568</ele>
        <time>2008-09-16T08:45:32Z</time>
      </trkpt>
      <trkpt lat="44.4243" lon="2.56735">
        <ele>568</ele>
        <time>2008-09-16T08:45:32Z</time>
      </trkpt>
      <trkpt lat="44.42427" lon="2.56733">
        <ele>569</ele>
        <time>2008-09-16T08:45:33Z</time>
      </trkpt>
      <trkpt lat="44.42424" lon="2.56731">
        <ele>569</ele>
        <time>2008-09-16T08:45:33Z</time>
      </trkpt>
      <trkpt lat="44.42421" lon="2.56729">
        <ele>569</ele>
        <time>2008-09-16T08:45:34Z</time>
      </trkpt>
      <trkpt lat="44.42418" lon="2.56727">
        <ele>569</ele>
        <time>2008-09-16T08:45:35Z</time>
      </trkpt>
      <trkpt lat="44.42415" lon="2.56726">
        <ele>570</ele>
        <time>2008-09-16T08:45:35Z</time>
      </trkpt>
      <trkpt lat="44.42412" lon="2.56725">
        <ele>570</ele>
        <time>2008-09-16T08:45:36Z</time>
      </trkpt>
      <trkpt lat="44.42409" lon="2.56723">
        <ele>570</ele>
        <time>2008-09-16T08:45:36Z</time>
      </trkpt>
      <trkpt lat="44.42406" lon="2.56722">
        <ele>570</ele>
        <time>2008-09-16T08:45:37Z</time>
      </trkpt>
      <trkpt lat="44.42403" lon="2.56722">
        <ele>571</ele>
        <time>2008-09-16T08:45:37Z</time>
      </trkpt>
      <trkpt lat="44.424" lon="2.56721">
        <ele>571</ele>
        <time>2008-09-16T08:45:38Z</time>
      </trkpt>
      <trkpt lat="44.42397" lon="2.5672">
        <ele>571</ele>
        <time>2008-09-16T08:45:38Z</time>
      </trkpt>
      <trkpt lat="44.42393" lon="2.56719">
        <ele>571</ele>
        <time>2008-09-16T08:45:39Z</time>
      </trkpt>
      <trkpt lat="44.4239" lon="2.56719">
        <ele>572</ele>
        <time>2008-09-16T08:45:39Z</time>
      </trkpt>
      <trkpt lat="44.42387" lon="2.56718">
        <ele>572</ele>
        <time>2008-09-16T08:45:40Z</time>
      </trkpt>
      <trkpt lat="44.42383" lon="2.56717">
        <ele>572</ele>
        <time>2008-09-16T08:45:40Z</time>
      </trkpt>
      <trkpt lat="44.4238" lon="2.56716">
        <ele>572</ele>
        <time>2008-09-16T08:45:41Z</time>
      </trkpt>
      <trkpt lat="44.42376" lon="2.56715">
        <ele>572</ele>
        <time>2008-09-16T08:45:42Z</time>
      </trkpt>
      <trkpt lat="44.42372" lon="2.56714">
        <ele>573</ele>
        <time>2008-09-16T08:45:42Z</time>
      </trkpt>
      <trkpt lat="44.42367" lon="2.56713">
        <ele>573</ele>
        <time>2008-09-16T08:45:43Z</time>
      </trkpt>
      <trkpt lat="44.42363" lon="2.56712">
        <ele>573</ele>
        <time>2008-09-16T08:45:44Z</time>
      </trkpt>
      <trkpt lat="44.42358" lon="2.56711">
        <ele>573</ele>
        <time>2008-09-16T08:45:44Z</time>
      </trkpt>
      <trkpt lat="44.42354" lon="2.5671">
        <ele>573</ele>
        <time>2008-09-16T08:45:45Z</time>
      </trkpt>
      <trkpt lat="44.42349" lon="2.56709">
        <ele>573</ele>
        <time>2008-09-16T08:45:46Z</time>
      </trkpt>
      <trkpt lat="44.42344" lon="2.56708">
        <ele>572</ele>
        <time>2008-09-16T08:45:47Z</time>
      </trkpt>
      <trkpt lat="44.42339" lon="2.56706">
        <ele>572</ele>
        <time>2008-09-16T08:45:48Z</time>
      </trkpt>
      <trkpt lat="44.42334" lon="2.56705">
        <ele>572</ele>
        <time>2008-09-16T08:45:48Z</time>
      </trkpt>
      <trkpt lat="44.42328" lon="2.56703">
        <ele>572</ele>
        <time>2008-09-16T08:45:49Z</time>
      </trkpt>
      <trkpt lat="44.42323" lon="2.56702">
        <ele>572</ele>
        <time>2008-09-16T08:45:50Z</time>
      </trkpt>
      <trkpt lat="44.42318" lon="2.567">
        <ele>571</ele>
        <time>2008-09-16T08:45:51Z</time>
      </trkpt>
      <trkpt lat="44.42313" lon="2.56699">
        <ele>571</ele>
        <time>2008-09-16T08:45:52Z</time>
      </trkpt>
      <trkpt lat="44.42308" lon="2.56697">
        <ele>571</ele>
        <time>2008-09-16T08:45:53Z</time>
      </trkpt>
      <trkpt lat="44.42302" lon="2.56696">
        <ele>571</ele>
        <time>2008-09-16T08:45:54Z</time>
      </trkpt>
      <trkpt lat="44.42296" lon="2.56695">
        <ele>570</ele>
        <time>2008-09-16T08:45:54Z</time>
      </trkpt>
      <trkpt lat="44.42291" lon="2.56694">
        <ele>570</ele>
        <time>2008-09-16T08:45:55Z</time>
      </trkpt>
      <trkpt lat="44.42285" lon="2.56692">
        <ele>570</ele>
        <time>2008-09-16T08:45:56Z</time>
      </trkpt>
      <trkpt lat="44.42279" lon="2.56691">
        <ele>570</ele>
        <time>2008-09-16T08:45:57Z</time>
      </trkpt>
      <trkpt lat="44.42273" lon="2.56689">
        <ele>570</ele>
        <time>2008-09-16T08:45:58Z</time>
      </trkpt>
      <trkpt lat="44.42268" lon="2.56686">
        <ele>570</ele>
        <time>2008-09-16T08:45:59Z</time>
      </trkpt>
      <trkpt lat="44.42263" lon="2.56683">
        <ele>570</ele>
        <time>2008-09-16T08:46:00Z</time>
      </trkpt>
      <trkpt lat="44.42258" lon="2.5668">
        <ele>570</ele>
        <time>2008-09-16T08:46:01Z</time>
      </trkpt>
      <trkpt lat="44.42254" lon="2.56676">
        <ele>570</ele>
        <time>2008-09-16T08:46:02Z</time>
      </trkpt>
      <trkpt lat="44.4225" lon="2.56671">
        <ele>570</ele>
        <time>2008-09-16T08:46:03Z</time>
      </trkpt>
      <trkpt lat="44.42246" lon="2.56666">
        <ele>570</ele>
        <time>2008-09-16T08:46:03Z</time>
      </trkpt>
      <trkpt lat="44.42242" lon="2.56661">
        <ele>570</ele>
        <time>2008-09-16T08:46:04Z</time>
      </trkpt>
      <trkpt lat="44.42239" lon="2.56656">
        <ele>570</ele>
        <time>2008-09-16T08:46:05Z</time>
      </trkpt>
      <trkpt lat="44.42235" lon="2.56652">
        <ele>570</ele>
        <time>2008-09-16T08:46:06Z</time>
      </trkpt>
      <trkpt lat="44.42231" lon="2.56648">
        <ele>571</ele>
        <time>2008-09-16T08:46:07Z</time>
      </trkpt>
      <trkpt lat="44.42227" lon="2.56644">
        <ele>571</ele>
        <time>2008-09-16T08:46:07Z</time>
      </trkpt>
      <trkpt lat="44.42224" lon="2.56641">
        <ele>571</ele>
        <time>2008-09-16T08:46:08Z</time>
      </trkpt>
      <trkpt lat="44.4222" lon="2.56638">
        <ele>572</ele>
        <time>2008-09-16T08:46:09Z</time>
      </trkpt>
      <trkpt lat="44.42216" lon="2.56635">
        <ele>572</ele>
        <time>2008-09-16T08:46:09Z</time>
      </trkpt>
      <trkpt lat="44.42212" lon="2.56632">
        <ele>572</ele>
        <time>2008-09-16T08:46:10Z</time>
      </trkpt>
      <trkpt lat="44.42208" lon="2.5663">
        <ele>572</ele>
        <time>2008-09-16T08:46:11Z</time>
      </trkpt>
      <trkpt lat="44.42204" lon="2.56628">
        <ele>572</ele>
        <time>2008-09-16T08:46:11Z</time>
      </trkpt>
      <trkpt lat="44.42199" lon="2.56626">
        <ele>573</ele>
        <time>2008-09-16T08:46:12Z</time>
      </trkpt>
      <trkpt lat="44.42195" lon="2.56624">
        <ele>573</ele>
        <time>2008-09-16T08:46:13Z</time>
      </trkpt>
      <trkpt lat="44.4219" lon="2.56622">
        <ele>573</ele>
        <time>2008-09-16T08:46:14Z</time>
      </trkpt>
      <trkpt lat="44.42185" lon="2.56621">
        <ele>573</ele>
        <time>2008-09-16T08:46:15Z</time>
      </trkpt>
      <trkpt lat="44.42181" lon="2.5662">
        <ele>573</ele>
        <time>2008-09-16T08:46:15Z</time>
      </trkpt>
      <trkpt lat="44.42176" lon="2.56618">
        <ele>574</ele>
        <time>2008-09-16T08:46:16Z</time>
      </trkpt>
      <trkpt lat="44.42172" lon="2.56617">
        <ele>574</ele>
        <time>2008-09-16T08:46:17Z</time>
      </trkpt>
      <trkpt lat="44.42167" lon="2.56615">
        <ele>574</ele>
        <time>2008-09-16T08:46:18Z</time>
      </trkpt>
      <trkpt lat="44.42163" lon="2.56613">
        <ele>575</ele>
        <time>2008-09-16T08:46:18Z</time>
      </trkpt>
      <trkpt lat="44.42159" lon="2.5661">
        <ele>575</ele>
        <time>2008-09-16T08:46:19Z</time>
      </trkpt>
      <trkpt lat="44.42155" lon="2.56606">
        <ele>575</ele>
        <time>2008-09-16T08:46:20Z</time>
      </trkpt>
      <trkpt lat="44.42152" lon="2.56601">
        <ele>575</ele>
        <time>2008-09-16T08:46:20Z</time>
      </trkpt>
      <trkpt lat="44.42149" lon="2.56596">
        <ele>575</ele>
        <time>2008-09-16T08:46:21Z</time>
      </trkpt>
      <trkpt lat="44.42147" lon="2.56591">
        <ele>575</ele>
        <time>2008-09-16T08:46:22Z</time>
      </trkpt>
      <trkpt lat="44.42145" lon="2.56585">
        <ele>575</ele>
        <time>2008-09-16T08:46:23Z</time>
      </trkpt>
      <trkpt lat="44.42144" lon="2.56579">
        <ele>575</ele>
        <time>2008-09-16T08:46:23Z</time>
      </trkpt>
      <trkpt lat="44.42143" lon="2.56572">
        <ele>574</ele>
        <time>2008-09-16T08:46:24Z</time>
      </trkpt>
      <trkpt lat="44.42143" lon="2.56565">
        <ele>574</ele>
        <time>2008-09-16T08:46:25Z</time>
      </trkpt>
      <trkpt lat="44.42143" lon="2.56557">
        <ele>574</ele>
        <time>2008-09-16T08:46:26Z</time>
      </trkpt>
      <trkpt lat="44.42144" lon="2.5655">
        <ele>574</ele>
        <time>2008-09-16T08:46:27Z</time>
      </trkpt>
      <trkpt lat="44.42144" lon="2.56542">
        <ele>573</ele>
        <time>2008-09-16T08:46:28Z</time>
      </trkpt>
      <trkpt lat="44.42145" lon="2.56534">
        <ele>573</ele>
        <time>2008-09-16T08:46:28Z</time>
      </trkpt>
      <trkpt lat="44.42146" lon="2.56527">
        <ele>573</ele>
        <time>2008-09-16T08:46:29Z</time>
      </trkpt>
      <trkpt lat="44.42147" lon="2.56519">
        <ele>572</ele>
        <time>2008-09-16T08:46:30Z</time>
      </trkpt>
      <trkpt lat="44.42148" lon="2.56511">
        <ele>572</ele>
        <time>2008-09-16T08:46:31Z</time>
      </trkpt>
      <trkpt lat="44.42149" lon="2.56503">
        <ele>572</ele>
        <time>2008-09-16T08:46:32Z</time>
      </trkpt>
      <trkpt lat="44.4215" lon="2.56495">
        <ele>572</ele>
        <time>2008-09-16T08:46:33Z</time>
      </trkpt>
      <trkpt lat="44.42152" lon="2.56487">
        <ele>571</ele>
        <time>2008-09-16T08:46:34Z</time>
      </trkpt>
      <trkpt lat="44.42152" lon="2.5648">
        <ele>571</ele>
        <time>2008-09-16T08:46:35Z</time>
      </trkpt>
      <trkpt lat="44.42152" lon="2.56472">
        <ele>571</ele>
        <time>2008-09-16T08:46:36Z</time>
      </trkpt>
      <trkpt lat="44.4215" lon="2.56465">
        <ele>571</ele>
        <time>2008-09-16T08:46:37Z</time>
      </trkpt>
      <trkpt lat="44.42147" lon="2.56459">
        <ele>572</ele>
        <time>2008-09-16T08:46:37Z</time>
      </trkpt>
      <trkpt lat="44.42143" lon="2.56453">
        <ele>572</ele>
        <time>2008-09-16T08:46:38Z</time>
      </trkpt>
      <trkpt lat="44.4214" lon="2.56448">
        <ele>572</ele>
        <time>2008-09-16T08:46:39Z</time>
      </trkpt>
      <trkpt lat="44.42136" lon="2.56443">
        <ele>572</ele>
        <time>2008-09-16T08:46:40Z</time>
      </trkpt>
      <trkpt lat="44.42132" lon="2.56439">
        <ele>573</ele>
        <time>2008-09-16T08:46:41Z</time>
      </trkpt>
      <trkpt lat="44.42128" lon="2.56434">
        <ele>573</ele>
        <time>2008-09-16T08:46:42Z</time>
      </trkpt>
      <trkpt lat="44.42125" lon="2.56431">
        <ele>574</ele>
        <time>2008-09-16T08:46:42Z</time>
      </trkpt>
      <trkpt lat="44.42122" lon="2.56426">
        <ele>574</ele>
        <time>2008-09-16T08:46:43Z</time>
      </trkpt>
      <trkpt lat="44.42119" lon="2.56422">
        <ele>575</ele>
        <time>2008-09-16T08:46:44Z</time>
      </trkpt>
      <trkpt lat="44.42116" lon="2.56417">
        <ele>575</ele>
        <time>2008-09-16T08:46:44Z</time>
      </trkpt>
      <trkpt lat="44.42114" lon="2.56412">
        <ele>575</ele>
        <time>2008-09-16T08:46:45Z</time>
      </trkpt>
      <trkpt lat="44.42111" lon="2.56408">
        <ele>575</ele>
        <time>2008-09-16T08:46:46Z</time>
      </trkpt>
      <trkpt lat="44.42107" lon="2.56404">
        <ele>576</ele>
        <time>2008-09-16T08:46:46Z</time>
      </trkpt>
      <trkpt lat="44.42104" lon="2.56399">
        <ele>576</ele>
        <time>2008-09-16T08:46:47Z</time>
      </trkpt>
      <trkpt lat="44.421" lon="2.56395">
        <ele>576</ele>
        <time>2008-09-16T08:46:48Z</time>
      </trkpt>
      <trkpt lat="44.42096" lon="2.56392">
        <ele>576</ele>
        <time>2008-09-16T08:46:49Z</time>
      </trkpt>
      <trkpt lat="44.42092" lon="2.56389">
        <ele>576</ele>
        <time>2008-09-16T08:46:49Z</time>
      </trkpt>
      <trkpt lat="44.42088" lon="2.56387">
        <ele>576</ele>
        <time>2008-09-16T08:46:50Z</time>
      </trkpt>
      <trkpt lat="44.42083" lon="2.56385">
        <ele>576</ele>
        <time>2008-09-16T08:46:51Z</time>
      </trkpt>
      <trkpt lat="44.42079" lon="2.56385">
        <ele>576</ele>
        <time>2008-09-16T08:46:52Z</time>
      </trkpt>
      <trkpt lat="44.42074" lon="2.56386">
        <ele>576</ele>
        <time>2008-09-16T08:46:52Z</time>
      </trkpt>
      <trkpt lat="44.42069" lon="2.56388">
        <ele>576</ele>
        <time>2008-09-16T08:46:53Z</time>
      </trkpt>
      <trkpt lat="44.42065" lon="2.56389">
        <ele>576</ele>
        <time>2008-09-16T08:46:54Z</time>
      </trkpt>
      <trkpt lat="44.4206" lon="2.56391">
        <ele>576</ele>
        <time>2008-09-16T08:46:55Z</time>
      </trkpt>
      <trkpt lat="44.42055" lon="2.56392">
        <ele>576</ele>
        <time>2008-09-16T08:46:55Z</time>
      </trkpt>
      <trkpt lat="44.4205" lon="2.56393">
        <ele>577</ele>
        <time>2008-09-16T08:46:56Z</time>
      </trkpt>
      <trkpt lat="44.42046" lon="2.56394">
        <ele>576</ele>
        <time>2008-09-16T08:46:57Z</time>
      </trkpt>
      <trkpt lat="44.42041" lon="2.56396">
        <ele>576</ele>
        <time>2008-09-16T08:46:58Z</time>
      </trkpt>
      <trkpt lat="44.42036" lon="2.56397">
        <ele>577</ele>
        <time>2008-09-16T08:46:59Z</time>
      </trkpt>
      <trkpt lat="44.42031" lon="2.56398">
        <ele>577</ele>
        <time>2008-09-16T08:46:59Z</time>
      </trkpt>
      <trkpt lat="44.42026" lon="2.56398">
        <ele>577</ele>
        <time>2008-09-16T08:47:00Z</time>
      </trkpt>
      <trkpt lat="44.42021" lon="2.56398">
        <ele>577</ele>
        <time>2008-09-16T08:47:01Z</time>
      </trkpt>
      <trkpt lat="44.42017" lon="2.56399">
        <ele>577</ele>
        <time>2008-09-16T08:47:02Z</time>
      </trkpt>
      <trkpt lat="44.42012" lon="2.56401">
        <ele>577</ele>
        <time>2008-09-16T08:47:02Z</time>
      </trkpt>
      <trkpt lat="44.42008" lon="2.56402">
        <ele>577</ele>
        <time>2008-09-16T08:47:03Z</time>
      </trkpt>
      <trkpt lat="44.42003" lon="2.56403">
        <ele>577</ele>
        <time>2008-09-16T08:47:04Z</time>
      </trkpt>
      <trkpt lat="44.41999" lon="2.56404">
        <ele>578</ele>
        <time>2008-09-16T08:47:05Z</time>
      </trkpt>
      <trkpt lat="44.41995" lon="2.56405">
        <ele>578</ele>
        <time>2008-09-16T08:47:05Z</time>
      </trkpt>
      <trkpt lat="44.41992" lon="2.56405">
        <ele>579</ele>
        <time>2008-09-16T08:47:06Z</time>
      </trkpt>
      <trkpt lat="44.41988" lon="2.56405">
        <ele>579</ele>
        <time>2008-09-16T08:47:06Z</time>
      </trkpt>
      <trkpt lat="44.41984" lon="2.56405">
        <ele>579</ele>
        <time>2008-09-16T08:47:07Z</time>
      </trkpt>
      <trkpt lat="44.41981" lon="2.56405">
        <ele>579</ele>
        <time>2008-09-16T08:47:08Z</time>
      </trkpt>
      <trkpt lat="44.41977" lon="2.56405">
        <ele>579</ele>
        <time>2008-09-16T08:47:08Z</time>
      </trkpt>
    </trkseg>
  </trk>
</gpx>